<?xml version="1.0" encoding="UTF-8" standalone="no" ?>
<gpx xmlns="http://www.topografix.com/GPX/1/1" xmlns:xsi="http://www.w3.org/2001/XMLSchema-instance" xsi:schemaLocation="http://www.topografix.com/GPX/1/1 http://www.topografix.com/GPX/1/1/gpx.xsd" version="1.1" creator="VisuGPX - https://www.visugpx.com">
  <metadata>
    <name>Entrainement CO des GR - 29/01/12</name>
    <desc><![CDATA[CO de Ren\'O]]></desc>
  </metadata>
  <trk>
    <name><![CDATA[2012-01-29T08:11:39Z]]></name>
    <trkseg>
      <trkpt lat="45.83463" lon="4.82342">
        <ele>253</ele>
        <time>2012-01-29T08:11:45Z</time>
      </trkpt>
      <trkpt lat="45.83465" lon="4.82344">
        <ele>253</ele>
        <time>2012-01-29T08:11:48Z</time>
      </trkpt>
      <trkpt lat="45.83467" lon="4.82346">
        <ele>252</ele>
        <time>2012-01-29T08:11:49Z</time>
      </trkpt>
      <trkpt lat="45.83468" lon="4.82348">
        <ele>252</ele>
        <time>2012-01-29T08:11:52Z</time>
      </trkpt>
      <trkpt lat="45.83467" lon="4.82347">
        <ele>252</ele>
        <time>2012-01-29T08:11:54Z</time>
      </trkpt>
      <trkpt lat="45.83465" lon="4.82345">
        <ele>253</ele>
        <time>2012-01-29T08:11:57Z</time>
      </trkpt>
      <trkpt lat="45.83466" lon="4.82346">
        <ele>253</ele>
        <time>2012-01-29T08:12:06Z</time>
      </trkpt>
      <trkpt lat="45.83466" lon="4.82346">
        <ele>253</ele>
        <time>2012-01-29T08:12:13Z</time>
      </trkpt>
      <trkpt lat="45.83464" lon="4.82344">
        <ele>253</ele>
        <time>2012-01-29T08:12:16Z</time>
      </trkpt>
      <trkpt lat="45.83463" lon="4.8234">
        <ele>253</ele>
        <time>2012-01-29T08:12:18Z</time>
      </trkpt>
      <trkpt lat="45.8346" lon="4.82335">
        <ele>254</ele>
        <time>2012-01-29T08:12:20Z</time>
      </trkpt>
      <trkpt lat="45.83456" lon="4.82331">
        <ele>251</ele>
        <time>2012-01-29T08:12:22Z</time>
      </trkpt>
      <trkpt lat="45.83455" lon="4.82329">
        <ele>251</ele>
        <time>2012-01-29T08:12:23Z</time>
      </trkpt>
      <trkpt lat="45.83451" lon="4.8232">
        <ele>252</ele>
        <time>2012-01-29T08:12:26Z</time>
      </trkpt>
      <trkpt lat="45.83443" lon="4.82308">
        <ele>252</ele>
        <time>2012-01-29T08:12:30Z</time>
      </trkpt>
      <trkpt lat="45.83431" lon="4.82295">
        <ele>252</ele>
        <time>2012-01-29T08:12:35Z</time>
      </trkpt>
      <trkpt lat="45.83427" lon="4.82292">
        <ele>252</ele>
        <time>2012-01-29T08:12:37Z</time>
      </trkpt>
      <trkpt lat="45.8342" lon="4.82289">
        <ele>252</ele>
        <time>2012-01-29T08:12:40Z</time>
      </trkpt>
      <trkpt lat="45.83409" lon="4.82285">
        <ele>268</ele>
        <time>2012-01-29T08:12:45Z</time>
      </trkpt>
      <trkpt lat="45.83398" lon="4.82278">
        <ele>268</ele>
        <time>2012-01-29T08:12:50Z</time>
      </trkpt>
      <trkpt lat="45.83392" lon="4.82273">
        <ele>269</ele>
        <time>2012-01-29T08:12:53Z</time>
      </trkpt>
      <trkpt lat="45.83389" lon="4.82267">
        <ele>269</ele>
        <time>2012-01-29T08:12:55Z</time>
      </trkpt>
      <trkpt lat="45.83381" lon="4.82256">
        <ele>270</ele>
        <time>2012-01-29T08:12:59Z</time>
      </trkpt>
      <trkpt lat="45.83379" lon="4.82254">
        <ele>270</ele>
        <time>2012-01-29T08:13:00Z</time>
      </trkpt>
      <trkpt lat="45.83373" lon="4.82247">
        <ele>262</ele>
        <time>2012-01-29T08:13:03Z</time>
      </trkpt>
      <trkpt lat="45.83364" lon="4.82235">
        <ele>263</ele>
        <time>2012-01-29T08:13:08Z</time>
      </trkpt>
      <trkpt lat="45.83362" lon="4.82232">
        <ele>264</ele>
        <time>2012-01-29T08:13:09Z</time>
      </trkpt>
      <trkpt lat="45.8335" lon="4.82214">
        <ele>263</ele>
        <time>2012-01-29T08:13:15Z</time>
      </trkpt>
      <trkpt lat="45.8334" lon="4.82199">
        <ele>261</ele>
        <time>2012-01-29T08:13:20Z</time>
      </trkpt>
      <trkpt lat="45.83337" lon="4.82194">
        <ele>261</ele>
        <time>2012-01-29T08:13:22Z</time>
      </trkpt>
      <trkpt lat="45.83329" lon="4.82185">
        <ele>273</ele>
        <time>2012-01-29T08:13:26Z</time>
      </trkpt>
      <trkpt lat="45.83322" lon="4.82177">
        <ele>272</ele>
        <time>2012-01-29T08:13:31Z</time>
      </trkpt>
      <trkpt lat="45.8332" lon="4.82176">
        <ele>272</ele>
        <time>2012-01-29T08:13:32Z</time>
      </trkpt>
      <trkpt lat="45.83308" lon="4.82164">
        <ele>266</ele>
        <time>2012-01-29T08:13:38Z</time>
      </trkpt>
      <trkpt lat="45.83304" lon="4.8216">
        <ele>267</ele>
        <time>2012-01-29T08:13:40Z</time>
      </trkpt>
      <trkpt lat="45.83298" lon="4.82153">
        <ele>268</ele>
        <time>2012-01-29T08:13:44Z</time>
      </trkpt>
      <trkpt lat="45.83288" lon="4.82143">
        <ele>269</ele>
        <time>2012-01-29T08:13:49Z</time>
      </trkpt>
      <trkpt lat="45.83287" lon="4.82141">
        <ele>269</ele>
        <time>2012-01-29T08:13:50Z</time>
      </trkpt>
      <trkpt lat="45.83279" lon="4.82135">
        <ele>270</ele>
        <time>2012-01-29T08:13:54Z</time>
      </trkpt>
      <trkpt lat="45.83273" lon="4.82129">
        <ele>270</ele>
        <time>2012-01-29T08:13:57Z</time>
      </trkpt>
      <trkpt lat="45.83263" lon="4.82119">
        <ele>270</ele>
        <time>2012-01-29T08:14:01Z</time>
      </trkpt>
      <trkpt lat="45.83258" lon="4.82114">
        <ele>270</ele>
        <time>2012-01-29T08:14:05Z</time>
      </trkpt>
      <trkpt lat="45.83253" lon="4.82111">
        <ele>270</ele>
        <time>2012-01-29T08:14:07Z</time>
      </trkpt>
      <trkpt lat="45.83242" lon="4.821">
        <ele>286</ele>
        <time>2012-01-29T08:14:13Z</time>
      </trkpt>
      <trkpt lat="45.8324" lon="4.82098">
        <ele>286</ele>
        <time>2012-01-29T08:14:14Z</time>
      </trkpt>
      <trkpt lat="45.83224" lon="4.82084">
        <ele>290</ele>
        <time>2012-01-29T08:14:21Z</time>
      </trkpt>
      <trkpt lat="45.83215" lon="4.82077">
        <ele>283</ele>
        <time>2012-01-29T08:14:26Z</time>
      </trkpt>
      <trkpt lat="45.83211" lon="4.82071">
        <ele>284</ele>
        <time>2012-01-29T08:14:29Z</time>
      </trkpt>
      <trkpt lat="45.83209" lon="4.82064">
        <ele>284</ele>
        <time>2012-01-29T08:14:31Z</time>
      </trkpt>
      <trkpt lat="45.83207" lon="4.82058">
        <ele>284</ele>
        <time>2012-01-29T08:14:33Z</time>
      </trkpt>
      <trkpt lat="45.83205" lon="4.82052">
        <ele>284</ele>
        <time>2012-01-29T08:14:35Z</time>
      </trkpt>
      <trkpt lat="45.83205" lon="4.82044">
        <ele>283</ele>
        <time>2012-01-29T08:14:38Z</time>
      </trkpt>
      <trkpt lat="45.83203" lon="4.82039">
        <ele>283</ele>
        <time>2012-01-29T08:14:40Z</time>
      </trkpt>
      <trkpt lat="45.83198" lon="4.82033">
        <ele>284</ele>
        <time>2012-01-29T08:14:43Z</time>
      </trkpt>
      <trkpt lat="45.83196" lon="4.82033">
        <ele>284</ele>
        <time>2012-01-29T08:14:44Z</time>
      </trkpt>
      <trkpt lat="45.83192" lon="4.82038">
        <ele>285</ele>
        <time>2012-01-29T08:14:47Z</time>
      </trkpt>
      <trkpt lat="45.83192" lon="4.8204">
        <ele>285</ele>
        <time>2012-01-29T08:14:48Z</time>
      </trkpt>
      <trkpt lat="45.83193" lon="4.82052">
        <ele>287</ele>
        <time>2012-01-29T08:14:53Z</time>
      </trkpt>
      <trkpt lat="45.83195" lon="4.82058">
        <ele>287</ele>
        <time>2012-01-29T08:14:55Z</time>
      </trkpt>
      <trkpt lat="45.83196" lon="4.82063">
        <ele>287</ele>
        <time>2012-01-29T08:14:57Z</time>
      </trkpt>
      <trkpt lat="45.83197" lon="4.82069">
        <ele>288</ele>
        <time>2012-01-29T08:14:59Z</time>
      </trkpt>
      <trkpt lat="45.83202" lon="4.82083">
        <ele>287</ele>
        <time>2012-01-29T08:15:04Z</time>
      </trkpt>
      <trkpt lat="45.83204" lon="4.82089">
        <ele>297</ele>
        <time>2012-01-29T08:15:06Z</time>
      </trkpt>
      <trkpt lat="45.83208" lon="4.82101">
        <ele>297</ele>
        <time>2012-01-29T08:15:10Z</time>
      </trkpt>
      <trkpt lat="45.83214" lon="4.82114">
        <ele>297</ele>
        <time>2012-01-29T08:15:15Z</time>
      </trkpt>
      <trkpt lat="45.83216" lon="4.8212">
        <ele>297</ele>
        <time>2012-01-29T08:15:16Z</time>
      </trkpt>
      <trkpt lat="45.83222" lon="4.82129">
        <ele>297</ele>
        <time>2012-01-29T08:15:22Z</time>
      </trkpt>
      <trkpt lat="45.83229" lon="4.82135">
        <ele>296</ele>
        <time>2012-01-29T08:15:25Z</time>
      </trkpt>
      <trkpt lat="45.83233" lon="4.82142">
        <ele>295</ele>
        <time>2012-01-29T08:15:28Z</time>
      </trkpt>
      <trkpt lat="45.83237" lon="4.82149">
        <ele>295</ele>
        <time>2012-01-29T08:15:33Z</time>
      </trkpt>
      <trkpt lat="45.83241" lon="4.82155">
        <ele>293</ele>
        <time>2012-01-29T08:15:36Z</time>
      </trkpt>
      <trkpt lat="45.83246" lon="4.82159">
        <ele>292</ele>
        <time>2012-01-29T08:15:38Z</time>
      </trkpt>
      <trkpt lat="45.83251" lon="4.82167">
        <ele>289</ele>
        <time>2012-01-29T08:15:43Z</time>
      </trkpt>
      <trkpt lat="45.83257" lon="4.82178">
        <ele>288</ele>
        <time>2012-01-29T08:15:46Z</time>
      </trkpt>
      <trkpt lat="45.8326" lon="4.82183">
        <ele>288</ele>
        <time>2012-01-29T08:15:49Z</time>
      </trkpt>
      <trkpt lat="45.83265" lon="4.82195">
        <ele>288</ele>
        <time>2012-01-29T08:15:54Z</time>
      </trkpt>
      <trkpt lat="45.83268" lon="4.82202">
        <ele>289</ele>
        <time>2012-01-29T08:15:56Z</time>
      </trkpt>
      <trkpt lat="45.83274" lon="4.82211">
        <ele>289</ele>
        <time>2012-01-29T08:16:00Z</time>
      </trkpt>
      <trkpt lat="45.83278" lon="4.82221">
        <ele>291</ele>
        <time>2012-01-29T08:16:04Z</time>
      </trkpt>
      <trkpt lat="45.83278" lon="4.82223">
        <ele>291</ele>
        <time>2012-01-29T08:16:05Z</time>
      </trkpt>
      <trkpt lat="45.83284" lon="4.82232">
        <ele>291</ele>
        <time>2012-01-29T08:16:09Z</time>
      </trkpt>
      <trkpt lat="45.8329" lon="4.82243">
        <ele>290</ele>
        <time>2012-01-29T08:16:15Z</time>
      </trkpt>
      <trkpt lat="45.83299" lon="4.82253">
        <ele>298</ele>
        <time>2012-01-29T08:16:21Z</time>
      </trkpt>
      <trkpt lat="45.83306" lon="4.82261">
        <ele>297</ele>
        <time>2012-01-29T08:16:25Z</time>
      </trkpt>
      <trkpt lat="45.83308" lon="4.82263">
        <ele>296</ele>
        <time>2012-01-29T08:16:26Z</time>
      </trkpt>
      <trkpt lat="45.83315" lon="4.8227">
        <ele>296</ele>
        <time>2012-01-29T08:16:31Z</time>
      </trkpt>
      <trkpt lat="45.83323" lon="4.82278">
        <ele>296</ele>
        <time>2012-01-29T08:16:34Z</time>
      </trkpt>
      <trkpt lat="45.83326" lon="4.82282">
        <ele>296</ele>
        <time>2012-01-29T08:16:37Z</time>
      </trkpt>
      <trkpt lat="45.83336" lon="4.82299">
        <ele>281</ele>
        <time>2012-01-29T08:16:43Z</time>
      </trkpt>
      <trkpt lat="45.83344" lon="4.82317">
        <ele>284</ele>
        <time>2012-01-29T08:16:49Z</time>
      </trkpt>
      <trkpt lat="45.83345" lon="4.8232">
        <ele>284</ele>
        <time>2012-01-29T08:16:51Z</time>
      </trkpt>
      <trkpt lat="45.83345" lon="4.8234">
        <ele>289</ele>
        <time>2012-01-29T08:16:56Z</time>
      </trkpt>
      <trkpt lat="45.83342" lon="4.8235">
        <ele>287</ele>
        <time>2012-01-29T08:16:59Z</time>
      </trkpt>
      <trkpt lat="45.8334" lon="4.82356">
        <ele>286</ele>
        <time>2012-01-29T08:17:01Z</time>
      </trkpt>
      <trkpt lat="45.83333" lon="4.82373">
        <ele>300</ele>
        <time>2012-01-29T08:17:07Z</time>
      </trkpt>
      <trkpt lat="45.83327" lon="4.82391">
        <ele>299</ele>
        <time>2012-01-29T08:17:13Z</time>
      </trkpt>
      <trkpt lat="45.83326" lon="4.82394">
        <ele>299</ele>
        <time>2012-01-29T08:17:15Z</time>
      </trkpt>
      <trkpt lat="45.83321" lon="4.82411">
        <ele>297</ele>
        <time>2012-01-29T08:17:20Z</time>
      </trkpt>
      <trkpt lat="45.83318" lon="4.82423">
        <ele>295</ele>
        <time>2012-01-29T08:17:24Z</time>
      </trkpt>
      <trkpt lat="45.83318" lon="4.82423">
        <ele>295</ele>
        <time>2012-01-29T08:17:25Z</time>
      </trkpt>
      <trkpt lat="45.83312" lon="4.82442">
        <ele>297</ele>
        <time>2012-01-29T08:17:31Z</time>
      </trkpt>
      <trkpt lat="45.8331" lon="4.82448">
        <ele>297</ele>
        <time>2012-01-29T08:17:32Z</time>
      </trkpt>
      <trkpt lat="45.83302" lon="4.82467">
        <ele>297</ele>
        <time>2012-01-29T08:17:38Z</time>
      </trkpt>
      <trkpt lat="45.833" lon="4.82472">
        <ele>297</ele>
        <time>2012-01-29T08:17:40Z</time>
      </trkpt>
      <trkpt lat="45.83296" lon="4.8248">
        <ele>297</ele>
        <time>2012-01-29T08:17:43Z</time>
      </trkpt>
      <trkpt lat="45.83291" lon="4.82498">
        <ele>298</ele>
        <time>2012-01-29T08:17:48Z</time>
      </trkpt>
      <trkpt lat="45.8329" lon="4.82501">
        <ele>293</ele>
        <time>2012-01-29T08:17:49Z</time>
      </trkpt>
      <trkpt lat="45.83282" lon="4.82522">
        <ele>294</ele>
        <time>2012-01-29T08:17:56Z</time>
      </trkpt>
      <trkpt lat="45.83281" lon="4.82525">
        <ele>294</ele>
        <time>2012-01-29T08:17:57Z</time>
      </trkpt>
      <trkpt lat="45.83278" lon="4.82543">
        <ele>293</ele>
        <time>2012-01-29T08:18:02Z</time>
      </trkpt>
      <trkpt lat="45.83279" lon="4.8255">
        <ele>293</ele>
        <time>2012-01-29T08:18:04Z</time>
      </trkpt>
      <trkpt lat="45.83279" lon="4.82565">
        <ele>292</ele>
        <time>2012-01-29T08:18:08Z</time>
      </trkpt>
      <trkpt lat="45.83279" lon="4.82578">
        <ele>292</ele>
        <time>2012-01-29T08:18:12Z</time>
      </trkpt>
      <trkpt lat="45.83279" lon="4.82581">
        <ele>293</ele>
        <time>2012-01-29T08:18:13Z</time>
      </trkpt>
      <trkpt lat="45.83276" lon="4.82595">
        <ele>288</ele>
        <time>2012-01-29T08:18:18Z</time>
      </trkpt>
      <trkpt lat="45.83274" lon="4.82604">
        <ele>288</ele>
        <time>2012-01-29T08:18:20Z</time>
      </trkpt>
      <trkpt lat="45.83271" lon="4.82614">
        <ele>288</ele>
        <time>2012-01-29T08:18:23Z</time>
      </trkpt>
      <trkpt lat="45.83263" lon="4.82626">
        <ele>287</ele>
        <time>2012-01-29T08:18:28Z</time>
      </trkpt>
      <trkpt lat="45.8326" lon="4.82631">
        <ele>287</ele>
        <time>2012-01-29T08:18:30Z</time>
      </trkpt>
      <trkpt lat="45.83248" lon="4.82645">
        <ele>300</ele>
        <time>2012-01-29T08:18:36Z</time>
      </trkpt>
      <trkpt lat="45.83246" lon="4.82648">
        <ele>300</ele>
        <time>2012-01-29T08:18:37Z</time>
      </trkpt>
      <trkpt lat="45.83239" lon="4.8266">
        <ele>297</ele>
        <time>2012-01-29T08:18:41Z</time>
      </trkpt>
      <trkpt lat="45.83236" lon="4.82667">
        <ele>298</ele>
        <time>2012-01-29T08:18:43Z</time>
      </trkpt>
      <trkpt lat="45.83232" lon="4.82676">
        <ele>296</ele>
        <time>2012-01-29T08:18:47Z</time>
      </trkpt>
      <trkpt lat="45.83228" lon="4.82692">
        <ele>297</ele>
        <time>2012-01-29T08:18:52Z</time>
      </trkpt>
      <trkpt lat="45.83228" lon="4.82695">
        <ele>297</ele>
        <time>2012-01-29T08:18:53Z</time>
      </trkpt>
      <trkpt lat="45.83225" lon="4.82716">
        <ele>296</ele>
        <time>2012-01-29T08:18:59Z</time>
      </trkpt>
      <trkpt lat="45.83224" lon="4.82719">
        <ele>296</ele>
        <time>2012-01-29T08:19:00Z</time>
      </trkpt>
      <trkpt lat="45.8322" lon="4.82742">
        <ele>295</ele>
        <time>2012-01-29T08:19:07Z</time>
      </trkpt>
      <trkpt lat="45.83219" lon="4.82745">
        <ele>295</ele>
        <time>2012-01-29T08:19:08Z</time>
      </trkpt>
      <trkpt lat="45.83217" lon="4.82759">
        <ele>292</ele>
        <time>2012-01-29T08:19:12Z</time>
      </trkpt>
      <trkpt lat="45.83215" lon="4.82773">
        <ele>292</ele>
        <time>2012-01-29T08:19:16Z</time>
      </trkpt>
      <trkpt lat="45.83214" lon="4.82776">
        <ele>292</ele>
        <time>2012-01-29T08:19:17Z</time>
      </trkpt>
      <trkpt lat="45.83213" lon="4.82791">
        <ele>292</ele>
        <time>2012-01-29T08:19:22Z</time>
      </trkpt>
      <trkpt lat="45.83212" lon="4.82802">
        <ele>292</ele>
        <time>2012-01-29T08:19:25Z</time>
      </trkpt>
      <trkpt lat="45.83211" lon="4.82805">
        <ele>292</ele>
        <time>2012-01-29T08:19:27Z</time>
      </trkpt>
      <trkpt lat="45.83212" lon="4.8281">
        <ele>291</ele>
        <time>2012-01-29T08:19:28Z</time>
      </trkpt>
      <trkpt lat="45.83216" lon="4.8282">
        <ele>291</ele>
        <time>2012-01-29T08:19:33Z</time>
      </trkpt>
      <trkpt lat="45.83217" lon="4.8282">
        <ele>290</ele>
        <time>2012-01-29T08:19:34Z</time>
      </trkpt>
      <trkpt lat="45.83219" lon="4.82823">
        <ele>290</ele>
        <time>2012-01-29T08:19:42Z</time>
      </trkpt>
      <trkpt lat="45.83218" lon="4.82826">
        <ele>290</ele>
        <time>2012-01-29T08:19:44Z</time>
      </trkpt>
      <trkpt lat="45.83217" lon="4.82834">
        <ele>287</ele>
        <time>2012-01-29T08:19:47Z</time>
      </trkpt>
      <trkpt lat="45.8321" lon="4.82848">
        <ele>288</ele>
        <time>2012-01-29T08:19:52Z</time>
      </trkpt>
      <trkpt lat="45.83209" lon="4.82851">
        <ele>288</ele>
        <time>2012-01-29T08:19:53Z</time>
      </trkpt>
      <trkpt lat="45.83202" lon="4.82867">
        <ele>288</ele>
        <time>2012-01-29T08:19:59Z</time>
      </trkpt>
      <trkpt lat="45.83201" lon="4.8287">
        <ele>288</ele>
        <time>2012-01-29T08:20:01Z</time>
      </trkpt>
      <trkpt lat="45.83197" lon="4.82879">
        <ele>288</ele>
        <time>2012-01-29T08:20:06Z</time>
      </trkpt>
      <trkpt lat="45.83195" lon="4.82883">
        <ele>288</ele>
        <time>2012-01-29T08:20:09Z</time>
      </trkpt>
      <trkpt lat="45.83194" lon="4.8289">
        <ele>288</ele>
        <time>2012-01-29T08:20:13Z</time>
      </trkpt>
      <trkpt lat="45.83193" lon="4.82892">
        <ele>288</ele>
        <time>2012-01-29T08:20:14Z</time>
      </trkpt>
      <trkpt lat="45.83192" lon="4.82895">
        <ele>288</ele>
        <time>2012-01-29T08:20:16Z</time>
      </trkpt>
      <trkpt lat="45.83189" lon="4.82901">
        <ele>289</ele>
        <time>2012-01-29T08:20:19Z</time>
      </trkpt>
      <trkpt lat="45.83189" lon="4.82903">
        <ele>289</ele>
        <time>2012-01-29T08:20:20Z</time>
      </trkpt>
      <trkpt lat="45.83185" lon="4.8291">
        <ele>289</ele>
        <time>2012-01-29T08:20:24Z</time>
      </trkpt>
      <trkpt lat="45.83181" lon="4.82916">
        <ele>290</ele>
        <time>2012-01-29T08:20:28Z</time>
      </trkpt>
      <trkpt lat="45.83179" lon="4.8292">
        <ele>289</ele>
        <time>2012-01-29T08:20:30Z</time>
      </trkpt>
      <trkpt lat="45.83177" lon="4.82922">
        <ele>289</ele>
        <time>2012-01-29T08:20:32Z</time>
      </trkpt>
      <trkpt lat="45.83171" lon="4.82931">
        <ele>288</ele>
        <time>2012-01-29T08:20:39Z</time>
      </trkpt>
      <trkpt lat="45.8317" lon="4.82932">
        <ele>288</ele>
        <time>2012-01-29T08:20:40Z</time>
      </trkpt>
      <trkpt lat="45.83169" lon="4.82937">
        <ele>288</ele>
        <time>2012-01-29T08:20:43Z</time>
      </trkpt>
      <trkpt lat="45.83168" lon="4.82938">
        <ele>288</ele>
        <time>2012-01-29T08:20:44Z</time>
      </trkpt>
      <trkpt lat="45.83166" lon="4.8294">
        <ele>295</ele>
        <time>2012-01-29T08:20:46Z</time>
      </trkpt>
      <trkpt lat="45.83159" lon="4.82948">
        <ele>296</ele>
        <time>2012-01-29T08:20:51Z</time>
      </trkpt>
      <trkpt lat="45.83155" lon="4.82953">
        <ele>296</ele>
        <time>2012-01-29T08:20:54Z</time>
      </trkpt>
      <trkpt lat="45.83154" lon="4.82954">
        <ele>296</ele>
        <time>2012-01-29T08:20:55Z</time>
      </trkpt>
      <trkpt lat="45.83154" lon="4.82956">
        <ele>296</ele>
        <time>2012-01-29T08:20:56Z</time>
      </trkpt>
      <trkpt lat="45.83153" lon="4.82959">
        <ele>296</ele>
        <time>2012-01-29T08:20:58Z</time>
      </trkpt>
      <trkpt lat="45.83152" lon="4.82967">
        <ele>296</ele>
        <time>2012-01-29T08:21:03Z</time>
      </trkpt>
      <trkpt lat="45.8315" lon="4.82978">
        <ele>296</ele>
        <time>2012-01-29T08:21:06Z</time>
      </trkpt>
      <trkpt lat="45.8315" lon="4.82979">
        <ele>296</ele>
        <time>2012-01-29T08:21:07Z</time>
      </trkpt>
      <trkpt lat="45.83151" lon="4.8298">
        <ele>295</ele>
        <time>2012-01-29T08:21:08Z</time>
      </trkpt>
      <trkpt lat="45.83152" lon="4.82981">
        <ele>295</ele>
        <time>2012-01-29T08:21:09Z</time>
      </trkpt>
      <trkpt lat="45.8315" lon="4.82988">
        <ele>295</ele>
        <time>2012-01-29T08:21:12Z</time>
      </trkpt>
      <trkpt lat="45.83149" lon="4.83003">
        <ele>295</ele>
        <time>2012-01-29T08:21:17Z</time>
      </trkpt>
      <trkpt lat="45.83148" lon="4.83008">
        <ele>296</ele>
        <time>2012-01-29T08:21:19Z</time>
      </trkpt>
      <trkpt lat="45.83147" lon="4.83011">
        <ele>296</ele>
        <time>2012-01-29T08:21:20Z</time>
      </trkpt>
      <trkpt lat="45.83147" lon="4.83013">
        <ele>296</ele>
        <time>2012-01-29T08:21:21Z</time>
      </trkpt>
      <trkpt lat="45.83146" lon="4.83015">
        <ele>297</ele>
        <time>2012-01-29T08:21:22Z</time>
      </trkpt>
      <trkpt lat="45.83144" lon="4.83024">
        <ele>298</ele>
        <time>2012-01-29T08:21:25Z</time>
      </trkpt>
      <trkpt lat="45.83144" lon="4.83027">
        <ele>298</ele>
        <time>2012-01-29T08:21:26Z</time>
      </trkpt>
      <trkpt lat="45.83143" lon="4.83035">
        <ele>298</ele>
        <time>2012-01-29T08:21:29Z</time>
      </trkpt>
      <trkpt lat="45.83142" lon="4.83041">
        <ele>299</ele>
        <time>2012-01-29T08:21:31Z</time>
      </trkpt>
      <trkpt lat="45.83142" lon="4.83044">
        <ele>299</ele>
        <time>2012-01-29T08:21:32Z</time>
      </trkpt>
      <trkpt lat="45.83142" lon="4.8305">
        <ele>299</ele>
        <time>2012-01-29T08:21:34Z</time>
      </trkpt>
      <trkpt lat="45.83141" lon="4.83052">
        <ele>299</ele>
        <time>2012-01-29T08:21:35Z</time>
      </trkpt>
      <trkpt lat="45.8314" lon="4.8306">
        <ele>299</ele>
        <time>2012-01-29T08:21:38Z</time>
      </trkpt>
      <trkpt lat="45.8314" lon="4.83063">
        <ele>300</ele>
        <time>2012-01-29T08:21:39Z</time>
      </trkpt>
      <trkpt lat="45.8314" lon="4.83065">
        <ele>300</ele>
        <time>2012-01-29T08:21:40Z</time>
      </trkpt>
      <trkpt lat="45.83139" lon="4.83077">
        <ele>300</ele>
        <time>2012-01-29T08:21:45Z</time>
      </trkpt>
      <trkpt lat="45.83137" lon="4.83086">
        <ele>300</ele>
        <time>2012-01-29T08:21:49Z</time>
      </trkpt>
      <trkpt lat="45.83136" lon="4.83087">
        <ele>300</ele>
        <time>2012-01-29T08:21:50Z</time>
      </trkpt>
      <trkpt lat="45.83136" lon="4.83087">
        <ele>300</ele>
        <time>2012-01-29T08:21:51Z</time>
      </trkpt>
      <trkpt lat="45.83135" lon="4.83091">
        <ele>300</ele>
        <time>2012-01-29T08:21:52Z</time>
      </trkpt>
      <trkpt lat="45.8313" lon="4.83095">
        <ele>300</ele>
        <time>2012-01-29T08:21:57Z</time>
      </trkpt>
      <trkpt lat="45.83129" lon="4.83095">
        <ele>300</ele>
        <time>2012-01-29T08:21:59Z</time>
      </trkpt>
      <trkpt lat="45.83128" lon="4.83097">
        <ele>300</ele>
        <time>2012-01-29T08:22:03Z</time>
      </trkpt>
      <trkpt lat="45.83121" lon="4.83097">
        <ele>300</ele>
        <time>2012-01-29T08:22:09Z</time>
      </trkpt>
      <trkpt lat="45.83119" lon="4.83097">
        <ele>300</ele>
        <time>2012-01-29T08:22:11Z</time>
      </trkpt>
      <trkpt lat="45.83113" lon="4.83096">
        <ele>301</ele>
        <time>2012-01-29T08:22:16Z</time>
      </trkpt>
      <trkpt lat="45.83112" lon="4.83095">
        <ele>301</ele>
        <time>2012-01-29T08:22:17Z</time>
      </trkpt>
      <trkpt lat="45.83102" lon="4.83094">
        <ele>302</ele>
        <time>2012-01-29T08:22:24Z</time>
      </trkpt>
      <trkpt lat="45.83101" lon="4.83093">
        <ele>302</ele>
        <time>2012-01-29T08:22:25Z</time>
      </trkpt>
      <trkpt lat="45.83099" lon="4.83092">
        <ele>302</ele>
        <time>2012-01-29T08:22:27Z</time>
      </trkpt>
      <trkpt lat="45.83092" lon="4.83089">
        <ele>304</ele>
        <time>2012-01-29T08:22:31Z</time>
      </trkpt>
      <trkpt lat="45.83085" lon="4.83089">
        <ele>305</ele>
        <time>2012-01-29T08:22:36Z</time>
      </trkpt>
      <trkpt lat="45.83082" lon="4.83088">
        <ele>306</ele>
        <time>2012-01-29T08:22:38Z</time>
      </trkpt>
      <trkpt lat="45.83075" lon="4.83087">
        <ele>306</ele>
        <time>2012-01-29T08:22:44Z</time>
      </trkpt>
      <trkpt lat="45.83073" lon="4.83087">
        <ele>306</ele>
        <time>2012-01-29T08:22:46Z</time>
      </trkpt>
      <trkpt lat="45.83067" lon="4.83087">
        <ele>306</ele>
        <time>2012-01-29T08:22:51Z</time>
      </trkpt>
      <trkpt lat="45.83062" lon="4.83087">
        <ele>306</ele>
        <time>2012-01-29T08:22:54Z</time>
      </trkpt>
      <trkpt lat="45.83053" lon="4.83086">
        <ele>306</ele>
        <time>2012-01-29T08:23:02Z</time>
      </trkpt>
      <trkpt lat="45.83048" lon="4.83086">
        <ele>306</ele>
        <time>2012-01-29T08:23:06Z</time>
      </trkpt>
      <trkpt lat="45.83045" lon="4.83085">
        <ele>307</ele>
        <time>2012-01-29T08:23:08Z</time>
      </trkpt>
      <trkpt lat="45.83037" lon="4.8308">
        <ele>312</ele>
        <time>2012-01-29T08:23:14Z</time>
      </trkpt>
      <trkpt lat="45.83035" lon="4.83078">
        <ele>312</ele>
        <time>2012-01-29T08:23:16Z</time>
      </trkpt>
      <trkpt lat="45.83036" lon="4.83081">
        <ele>312</ele>
        <time>2012-01-29T08:23:25Z</time>
      </trkpt>
      <trkpt lat="45.83035" lon="4.83082">
        <ele>312</ele>
        <time>2012-01-29T08:23:27Z</time>
      </trkpt>
      <trkpt lat="45.83034" lon="4.83088">
        <ele>308</ele>
        <time>2012-01-29T08:23:31Z</time>
      </trkpt>
      <trkpt lat="45.83032" lon="4.83094">
        <ele>307</ele>
        <time>2012-01-29T08:23:35Z</time>
      </trkpt>
      <trkpt lat="45.83032" lon="4.83101">
        <ele>307</ele>
        <time>2012-01-29T08:23:40Z</time>
      </trkpt>
      <trkpt lat="45.83032" lon="4.83106">
        <ele>307</ele>
        <time>2012-01-29T08:23:46Z</time>
      </trkpt>
      <trkpt lat="45.83032" lon="4.83106">
        <ele>307</ele>
        <time>2012-01-29T08:23:48Z</time>
      </trkpt>
      <trkpt lat="45.83034" lon="4.83102">
        <ele>307</ele>
        <time>2012-01-29T08:24:02Z</time>
      </trkpt>
      <trkpt lat="45.83033" lon="4.83097">
        <ele>307</ele>
        <time>2012-01-29T08:24:07Z</time>
      </trkpt>
      <trkpt lat="45.83033" lon="4.83092">
        <ele>307</ele>
        <time>2012-01-29T08:24:09Z</time>
      </trkpt>
      <trkpt lat="45.83035" lon="4.83085">
        <ele>307</ele>
        <time>2012-01-29T08:24:11Z</time>
      </trkpt>
      <trkpt lat="45.83037" lon="4.83081">
        <ele>312</ele>
        <time>2012-01-29T08:24:13Z</time>
      </trkpt>
      <trkpt lat="45.83039" lon="4.83079">
        <ele>311</ele>
        <time>2012-01-29T08:24:15Z</time>
      </trkpt>
      <trkpt lat="45.83039" lon="4.83077">
        <ele>311</ele>
        <time>2012-01-29T08:24:16Z</time>
      </trkpt>
      <trkpt lat="45.83039" lon="4.83073">
        <ele>311</ele>
        <time>2012-01-29T08:24:23Z</time>
      </trkpt>
      <trkpt lat="45.8304" lon="4.83064">
        <ele>311</ele>
        <time>2012-01-29T08:24:28Z</time>
      </trkpt>
      <trkpt lat="45.8304" lon="4.83055">
        <ele>311</ele>
        <time>2012-01-29T08:24:31Z</time>
      </trkpt>
      <trkpt lat="45.8304" lon="4.83048">
        <ele>312</ele>
        <time>2012-01-29T08:24:33Z</time>
      </trkpt>
      <trkpt lat="45.83042" lon="4.83033">
        <ele>312</ele>
        <time>2012-01-29T08:24:38Z</time>
      </trkpt>
      <trkpt lat="45.83042" lon="4.83026">
        <ele>312</ele>
        <time>2012-01-29T08:24:40Z</time>
      </trkpt>
      <trkpt lat="45.83043" lon="4.83016">
        <ele>312</ele>
        <time>2012-01-29T08:24:43Z</time>
      </trkpt>
      <trkpt lat="45.83046" lon="4.82998">
        <ele>313</ele>
        <time>2012-01-29T08:24:48Z</time>
      </trkpt>
      <trkpt lat="45.83048" lon="4.82976">
        <ele>313</ele>
        <time>2012-01-29T08:24:54Z</time>
      </trkpt>
      <trkpt lat="45.83049" lon="4.82972">
        <ele>313</ele>
        <time>2012-01-29T08:24:56Z</time>
      </trkpt>
      <trkpt lat="45.83049" lon="4.82963">
        <ele>313</ele>
        <time>2012-01-29T08:24:59Z</time>
      </trkpt>
      <trkpt lat="45.83052" lon="4.82945">
        <ele>313</ele>
        <time>2012-01-29T08:25:04Z</time>
      </trkpt>
      <trkpt lat="45.83052" lon="4.82942">
        <ele>313</ele>
        <time>2012-01-29T08:25:05Z</time>
      </trkpt>
      <trkpt lat="45.83055" lon="4.82923">
        <ele>312</ele>
        <time>2012-01-29T08:25:11Z</time>
      </trkpt>
      <trkpt lat="45.83055" lon="4.82919">
        <ele>312</ele>
        <time>2012-01-29T08:25:12Z</time>
      </trkpt>
      <trkpt lat="45.83057" lon="4.82905">
        <ele>316</ele>
        <time>2012-01-29T08:25:16Z</time>
      </trkpt>
      <trkpt lat="45.83058" lon="4.82894">
        <ele>317</ele>
        <time>2012-01-29T08:25:19Z</time>
      </trkpt>
      <trkpt lat="45.83059" lon="4.82891">
        <ele>317</ele>
        <time>2012-01-29T08:25:20Z</time>
      </trkpt>
      <trkpt lat="45.8306" lon="4.82884">
        <ele>318</ele>
        <time>2012-01-29T08:25:22Z</time>
      </trkpt>
      <trkpt lat="45.83061" lon="4.82881">
        <ele>318</ele>
        <time>2012-01-29T08:25:23Z</time>
      </trkpt>
      <trkpt lat="45.83066" lon="4.82869">
        <ele>318</ele>
        <time>2012-01-29T08:25:27Z</time>
      </trkpt>
      <trkpt lat="45.83067" lon="4.82866">
        <ele>318</ele>
        <time>2012-01-29T08:25:28Z</time>
      </trkpt>
      <trkpt lat="45.83069" lon="4.82858">
        <ele>318</ele>
        <time>2012-01-29T08:25:32Z</time>
      </trkpt>
      <trkpt lat="45.83067" lon="4.82856">
        <ele>318</ele>
        <time>2012-01-29T08:25:39Z</time>
      </trkpt>
      <trkpt lat="45.83063" lon="4.82854">
        <ele>319</ele>
        <time>2012-01-29T08:25:44Z</time>
      </trkpt>
      <trkpt lat="45.8306" lon="4.82851">
        <ele>319</ele>
        <time>2012-01-29T08:25:49Z</time>
      </trkpt>
      <trkpt lat="45.83057" lon="4.82849">
        <ele>320</ele>
        <time>2012-01-29T08:25:52Z</time>
      </trkpt>
      <trkpt lat="45.83054" lon="4.82848">
        <ele>320</ele>
        <time>2012-01-29T08:25:55Z</time>
      </trkpt>
      <trkpt lat="45.83049" lon="4.82846">
        <ele>321</ele>
        <time>2012-01-29T08:26:00Z</time>
      </trkpt>
      <trkpt lat="45.83044" lon="4.82844">
        <ele>322</ele>
        <time>2012-01-29T08:26:06Z</time>
      </trkpt>
      <trkpt lat="45.83044" lon="4.82844">
        <ele>322</ele>
        <time>2012-01-29T08:26:07Z</time>
      </trkpt>
      <trkpt lat="45.8304" lon="4.82843">
        <ele>323</ele>
        <time>2012-01-29T08:26:12Z</time>
      </trkpt>
      <trkpt lat="45.83038" lon="4.82843">
        <ele>323</ele>
        <time>2012-01-29T08:26:14Z</time>
      </trkpt>
      <trkpt lat="45.83035" lon="4.82841">
        <ele>324</ele>
        <time>2012-01-29T08:26:18Z</time>
      </trkpt>
      <trkpt lat="45.83033" lon="4.8284">
        <ele>324</ele>
        <time>2012-01-29T08:26:20Z</time>
      </trkpt>
      <trkpt lat="45.83031" lon="4.82838">
        <ele>325</ele>
        <time>2012-01-29T08:26:23Z</time>
      </trkpt>
      <trkpt lat="45.83025" lon="4.82835">
        <ele>327</ele>
        <time>2012-01-29T08:26:32Z</time>
      </trkpt>
      <trkpt lat="45.83023" lon="4.82835">
        <ele>327</ele>
        <time>2012-01-29T08:26:34Z</time>
      </trkpt>
      <trkpt lat="45.8302" lon="4.82833">
        <ele>336</ele>
        <time>2012-01-29T08:26:38Z</time>
      </trkpt>
      <trkpt lat="45.83015" lon="4.8283">
        <ele>336</ele>
        <time>2012-01-29T08:26:42Z</time>
      </trkpt>
      <trkpt lat="45.83011" lon="4.82831">
        <ele>337</ele>
        <time>2012-01-29T08:26:45Z</time>
      </trkpt>
      <trkpt lat="45.83008" lon="4.82827">
        <ele>337</ele>
        <time>2012-01-29T08:26:51Z</time>
      </trkpt>
      <trkpt lat="45.83007" lon="4.82826">
        <ele>337</ele>
        <time>2012-01-29T08:26:54Z</time>
      </trkpt>
      <trkpt lat="45.83006" lon="4.82825">
        <ele>337</ele>
        <time>2012-01-29T08:26:56Z</time>
      </trkpt>
      <trkpt lat="45.83004" lon="4.82823">
        <ele>337</ele>
        <time>2012-01-29T08:26:59Z</time>
      </trkpt>
      <trkpt lat="45.83" lon="4.82821">
        <ele>347</ele>
        <time>2012-01-29T08:27:03Z</time>
      </trkpt>
      <trkpt lat="45.82998" lon="4.82819">
        <ele>348</ele>
        <time>2012-01-29T08:27:05Z</time>
      </trkpt>
      <trkpt lat="45.82995" lon="4.82817">
        <ele>349</ele>
        <time>2012-01-29T08:27:09Z</time>
      </trkpt>
      <trkpt lat="45.82988" lon="4.82815">
        <ele>351</ele>
        <time>2012-01-29T08:27:16Z</time>
      </trkpt>
      <trkpt lat="45.82987" lon="4.82815">
        <ele>352</ele>
        <time>2012-01-29T08:27:17Z</time>
      </trkpt>
      <trkpt lat="45.82986" lon="4.82808">
        <ele>354</ele>
        <time>2012-01-29T08:27:22Z</time>
      </trkpt>
      <trkpt lat="45.82986" lon="4.82806">
        <ele>354</ele>
        <time>2012-01-29T08:27:23Z</time>
      </trkpt>
      <trkpt lat="45.82989" lon="4.82798">
        <ele>356</ele>
        <time>2012-01-29T08:27:29Z</time>
      </trkpt>
      <trkpt lat="45.82991" lon="4.82795">
        <ele>356</ele>
        <time>2012-01-29T08:27:31Z</time>
      </trkpt>
      <trkpt lat="45.82992" lon="4.82788">
        <ele>357</ele>
        <time>2012-01-29T08:27:36Z</time>
      </trkpt>
      <trkpt lat="45.82993" lon="4.82785">
        <ele>358</ele>
        <time>2012-01-29T08:27:38Z</time>
      </trkpt>
      <trkpt lat="45.82994" lon="4.82776">
        <ele>359</ele>
        <time>2012-01-29T08:27:44Z</time>
      </trkpt>
      <trkpt lat="45.82996" lon="4.82774">
        <ele>359</ele>
        <time>2012-01-29T08:27:46Z</time>
      </trkpt>
      <trkpt lat="45.83002" lon="4.82766">
        <ele>347</ele>
        <time>2012-01-29T08:27:51Z</time>
      </trkpt>
      <trkpt lat="45.83004" lon="4.82762">
        <ele>349</ele>
        <time>2012-01-29T08:27:53Z</time>
      </trkpt>
      <trkpt lat="45.83011" lon="4.82757">
        <ele>349</ele>
        <time>2012-01-29T08:27:56Z</time>
      </trkpt>
      <trkpt lat="45.83017" lon="4.8275">
        <ele>356</ele>
        <time>2012-01-29T08:27:59Z</time>
      </trkpt>
      <trkpt lat="45.83021" lon="4.82745">
        <ele>355</ele>
        <time>2012-01-29T08:28:01Z</time>
      </trkpt>
      <trkpt lat="45.83033" lon="4.82733">
        <ele>354</ele>
        <time>2012-01-29T08:28:06Z</time>
      </trkpt>
      <trkpt lat="45.83035" lon="4.8273">
        <ele>354</ele>
        <time>2012-01-29T08:28:07Z</time>
      </trkpt>
      <trkpt lat="45.83043" lon="4.8272">
        <ele>353</ele>
        <time>2012-01-29T08:28:12Z</time>
      </trkpt>
      <trkpt lat="45.83044" lon="4.82717">
        <ele>353</ele>
        <time>2012-01-29T08:28:13Z</time>
      </trkpt>
      <trkpt lat="45.83045" lon="4.82714">
        <ele>353</ele>
        <time>2012-01-29T08:28:14Z</time>
      </trkpt>
      <trkpt lat="45.83047" lon="4.82707">
        <ele>354</ele>
        <time>2012-01-29T08:28:16Z</time>
      </trkpt>
      <trkpt lat="45.83051" lon="4.82702">
        <ele>354</ele>
        <time>2012-01-29T08:28:18Z</time>
      </trkpt>
      <trkpt lat="45.83052" lon="4.82698">
        <ele>354</ele>
        <time>2012-01-29T08:28:19Z</time>
      </trkpt>
      <trkpt lat="45.83054" lon="4.82692">
        <ele>354</ele>
        <time>2012-01-29T08:28:21Z</time>
      </trkpt>
      <trkpt lat="45.83055" lon="4.82689">
        <ele>354</ele>
        <time>2012-01-29T08:28:22Z</time>
      </trkpt>
      <trkpt lat="45.8306" lon="4.82683">
        <ele>353</ele>
        <time>2012-01-29T08:28:25Z</time>
      </trkpt>
      <trkpt lat="45.83064" lon="4.82677">
        <ele>353</ele>
        <time>2012-01-29T08:28:27Z</time>
      </trkpt>
      <trkpt lat="45.83069" lon="4.82671">
        <ele>352</ele>
        <time>2012-01-29T08:28:30Z</time>
      </trkpt>
      <trkpt lat="45.83075" lon="4.82664">
        <ele>356</ele>
        <time>2012-01-29T08:28:33Z</time>
      </trkpt>
      <trkpt lat="45.83083" lon="4.82652">
        <ele>360</ele>
        <time>2012-01-29T08:28:38Z</time>
      </trkpt>
      <trkpt lat="45.8309" lon="4.82639">
        <ele>345</ele>
        <time>2012-01-29T08:28:43Z</time>
      </trkpt>
      <trkpt lat="45.83095" lon="4.82631">
        <ele>345</ele>
        <time>2012-01-29T08:28:46Z</time>
      </trkpt>
      <trkpt lat="45.831" lon="4.82626">
        <ele>344</ele>
        <time>2012-01-29T08:28:48Z</time>
      </trkpt>
      <trkpt lat="45.8311" lon="4.82617">
        <ele>344</ele>
        <time>2012-01-29T08:28:52Z</time>
      </trkpt>
      <trkpt lat="45.83113" lon="4.82614">
        <ele>343</ele>
        <time>2012-01-29T08:28:53Z</time>
      </trkpt>
      <trkpt lat="45.83118" lon="4.826">
        <ele>344</ele>
        <time>2012-01-29T08:28:57Z</time>
      </trkpt>
      <trkpt lat="45.83121" lon="4.82594">
        <ele>343</ele>
        <time>2012-01-29T08:28:59Z</time>
      </trkpt>
      <trkpt lat="45.83123" lon="4.82587">
        <ele>343</ele>
        <time>2012-01-29T08:29:01Z</time>
      </trkpt>
      <trkpt lat="45.83124" lon="4.82584">
        <ele>343</ele>
        <time>2012-01-29T08:29:02Z</time>
      </trkpt>
      <trkpt lat="45.83126" lon="4.82579">
        <ele>351</ele>
        <time>2012-01-29T08:29:04Z</time>
      </trkpt>
      <trkpt lat="45.83128" lon="4.8257">
        <ele>350</ele>
        <time>2012-01-29T08:29:07Z</time>
      </trkpt>
      <trkpt lat="45.83131" lon="4.82564">
        <ele>350</ele>
        <time>2012-01-29T08:29:09Z</time>
      </trkpt>
      <trkpt lat="45.83133" lon="4.82559">
        <ele>350</ele>
        <time>2012-01-29T08:29:11Z</time>
      </trkpt>
      <trkpt lat="45.83138" lon="4.82543">
        <ele>350</ele>
        <time>2012-01-29T08:29:16Z</time>
      </trkpt>
      <trkpt lat="45.8314" lon="4.82539">
        <ele>350</ele>
        <time>2012-01-29T08:29:17Z</time>
      </trkpt>
      <trkpt lat="45.83144" lon="4.82522">
        <ele>349</ele>
        <time>2012-01-29T08:29:22Z</time>
      </trkpt>
      <trkpt lat="45.83144" lon="4.82516">
        <ele>348</ele>
        <time>2012-01-29T08:29:24Z</time>
      </trkpt>
      <trkpt lat="45.83145" lon="4.82505">
        <ele>348</ele>
        <time>2012-01-29T08:29:27Z</time>
      </trkpt>
      <trkpt lat="45.83146" lon="4.82492">
        <ele>352</ele>
        <time>2012-01-29T08:29:31Z</time>
      </trkpt>
      <trkpt lat="45.83145" lon="4.82489">
        <ele>353</ele>
        <time>2012-01-29T08:29:32Z</time>
      </trkpt>
      <trkpt lat="45.83141" lon="4.82472">
        <ele>357</ele>
        <time>2012-01-29T08:29:37Z</time>
      </trkpt>
      <trkpt lat="45.83139" lon="4.82463">
        <ele>358</ele>
        <time>2012-01-29T08:29:40Z</time>
      </trkpt>
      <trkpt lat="45.83139" lon="4.82456">
        <ele>358</ele>
        <time>2012-01-29T08:29:42Z</time>
      </trkpt>
      <trkpt lat="45.8314" lon="4.82439">
        <ele>358</ele>
        <time>2012-01-29T08:29:47Z</time>
      </trkpt>
      <trkpt lat="45.8314" lon="4.82436">
        <ele>358</ele>
        <time>2012-01-29T08:29:48Z</time>
      </trkpt>
      <trkpt lat="45.83139" lon="4.82426">
        <ele>357</ele>
        <time>2012-01-29T08:29:51Z</time>
      </trkpt>
      <trkpt lat="45.8314" lon="4.8241">
        <ele>359</ele>
        <time>2012-01-29T08:29:55Z</time>
      </trkpt>
      <trkpt lat="45.83141" lon="4.82407">
        <ele>359</ele>
        <time>2012-01-29T08:29:56Z</time>
      </trkpt>
      <trkpt lat="45.83141" lon="4.82392">
        <ele>360</ele>
        <time>2012-01-29T08:30:00Z</time>
      </trkpt>
      <trkpt lat="45.83141" lon="4.82382">
        <ele>361</ele>
        <time>2012-01-29T08:30:03Z</time>
      </trkpt>
      <trkpt lat="45.83142" lon="4.82379">
        <ele>360</ele>
        <time>2012-01-29T08:30:04Z</time>
      </trkpt>
      <trkpt lat="45.83144" lon="4.82376">
        <ele>360</ele>
        <time>2012-01-29T08:30:05Z</time>
      </trkpt>
      <trkpt lat="45.83146" lon="4.82366">
        <ele>359</ele>
        <time>2012-01-29T08:30:08Z</time>
      </trkpt>
      <trkpt lat="45.83146" lon="4.82362">
        <ele>359</ele>
        <time>2012-01-29T08:30:09Z</time>
      </trkpt>
      <trkpt lat="45.83146" lon="4.82359">
        <ele>359</ele>
        <time>2012-01-29T08:30:10Z</time>
      </trkpt>
      <trkpt lat="45.83146" lon="4.82352">
        <ele>358</ele>
        <time>2012-01-29T08:30:12Z</time>
      </trkpt>
      <trkpt lat="45.83144" lon="4.82336">
        <ele>357</ele>
        <time>2012-01-29T08:30:17Z</time>
      </trkpt>
      <trkpt lat="45.83141" lon="4.82325">
        <ele>358</ele>
        <time>2012-01-29T08:30:20Z</time>
      </trkpt>
      <trkpt lat="45.8314" lon="4.82319">
        <ele>359</ele>
        <time>2012-01-29T08:30:22Z</time>
      </trkpt>
      <trkpt lat="45.83136" lon="4.82302">
        <ele>361</ele>
        <time>2012-01-29T08:30:27Z</time>
      </trkpt>
      <trkpt lat="45.83134" lon="4.82299">
        <ele>361</ele>
        <time>2012-01-29T08:30:28Z</time>
      </trkpt>
      <trkpt lat="45.83133" lon="4.82284">
        <ele>361</ele>
        <time>2012-01-29T08:30:33Z</time>
      </trkpt>
      <trkpt lat="45.83132" lon="4.82281">
        <ele>361</ele>
        <time>2012-01-29T08:30:34Z</time>
      </trkpt>
      <trkpt lat="45.83131" lon="4.82273">
        <ele>361</ele>
        <time>2012-01-29T08:30:37Z</time>
      </trkpt>
      <trkpt lat="45.8313" lon="4.82271">
        <ele>362</ele>
        <time>2012-01-29T08:30:38Z</time>
      </trkpt>
      <trkpt lat="45.83129" lon="4.82267">
        <ele>362</ele>
        <time>2012-01-29T08:30:41Z</time>
      </trkpt>
      <trkpt lat="45.83129" lon="4.82265">
        <ele>362</ele>
        <time>2012-01-29T08:30:43Z</time>
      </trkpt>
      <trkpt lat="45.83129" lon="4.82264">
        <ele>362</ele>
        <time>2012-01-29T08:30:44Z</time>
      </trkpt>
      <trkpt lat="45.83129" lon="4.82259">
        <ele>362</ele>
        <time>2012-01-29T08:30:48Z</time>
      </trkpt>
      <trkpt lat="45.83129" lon="4.82252">
        <ele>361</ele>
        <time>2012-01-29T08:30:53Z</time>
      </trkpt>
      <trkpt lat="45.83129" lon="4.8225">
        <ele>361</ele>
        <time>2012-01-29T08:30:54Z</time>
      </trkpt>
      <trkpt lat="45.83129" lon="4.82248">
        <ele>357</ele>
        <time>2012-01-29T08:30:56Z</time>
      </trkpt>
      <trkpt lat="45.83129" lon="4.82246">
        <ele>357</ele>
        <time>2012-01-29T08:30:59Z</time>
      </trkpt>
      <trkpt lat="45.83128" lon="4.82246">
        <ele>358</ele>
        <time>2012-01-29T08:31:00Z</time>
      </trkpt>
      <trkpt lat="45.83127" lon="4.82242">
        <ele>358</ele>
        <time>2012-01-29T08:31:11Z</time>
      </trkpt>
      <trkpt lat="45.83126" lon="4.82239">
        <ele>358</ele>
        <time>2012-01-29T08:31:14Z</time>
      </trkpt>
      <trkpt lat="45.83126" lon="4.82234">
        <ele>358</ele>
        <time>2012-01-29T08:31:20Z</time>
      </trkpt>
      <trkpt lat="45.83126" lon="4.82227">
        <ele>358</ele>
        <time>2012-01-29T08:31:27Z</time>
      </trkpt>
      <trkpt lat="45.83124" lon="4.82221">
        <ele>358</ele>
        <time>2012-01-29T08:31:31Z</time>
      </trkpt>
      <trkpt lat="45.83123" lon="4.82216">
        <ele>358</ele>
        <time>2012-01-29T08:31:34Z</time>
      </trkpt>
      <trkpt lat="45.8312" lon="4.82205">
        <ele>358</ele>
        <time>2012-01-29T08:31:40Z</time>
      </trkpt>
      <trkpt lat="45.83117" lon="4.82193">
        <ele>359</ele>
        <time>2012-01-29T08:31:46Z</time>
      </trkpt>
      <trkpt lat="45.83117" lon="4.82191">
        <ele>359</ele>
        <time>2012-01-29T08:31:47Z</time>
      </trkpt>
      <trkpt lat="45.83112" lon="4.8218">
        <ele>361</ele>
        <time>2012-01-29T08:31:53Z</time>
      </trkpt>
      <trkpt lat="45.83106" lon="4.8217">
        <ele>363</ele>
        <time>2012-01-29T08:31:59Z</time>
      </trkpt>
      <trkpt lat="45.83103" lon="4.82164">
        <ele>357</ele>
        <time>2012-01-29T08:32:02Z</time>
      </trkpt>
      <trkpt lat="45.83101" lon="4.82158">
        <ele>357</ele>
        <time>2012-01-29T08:32:06Z</time>
      </trkpt>
      <trkpt lat="45.83095" lon="4.82148">
        <ele>357</ele>
        <time>2012-01-29T08:32:12Z</time>
      </trkpt>
      <trkpt lat="45.83083" lon="4.82136">
        <ele>354</ele>
        <time>2012-01-29T08:32:18Z</time>
      </trkpt>
      <trkpt lat="45.83081" lon="4.82132">
        <ele>376</ele>
        <time>2012-01-29T08:32:20Z</time>
      </trkpt>
      <trkpt lat="45.83075" lon="4.82123">
        <ele>376</ele>
        <time>2012-01-29T08:32:24Z</time>
      </trkpt>
      <trkpt lat="45.83071" lon="4.82117">
        <ele>375</ele>
        <time>2012-01-29T08:32:27Z</time>
      </trkpt>
      <trkpt lat="45.83068" lon="4.82112">
        <ele>374</ele>
        <time>2012-01-29T08:32:30Z</time>
      </trkpt>
      <trkpt lat="45.83067" lon="4.82111">
        <ele>374</ele>
        <time>2012-01-29T08:32:31Z</time>
      </trkpt>
      <trkpt lat="45.83066" lon="4.82109">
        <ele>374</ele>
        <time>2012-01-29T08:32:33Z</time>
      </trkpt>
      <trkpt lat="45.83064" lon="4.82107">
        <ele>374</ele>
        <time>2012-01-29T08:32:35Z</time>
      </trkpt>
      <trkpt lat="45.83058" lon="4.82098">
        <ele>374</ele>
        <time>2012-01-29T08:32:42Z</time>
      </trkpt>
      <trkpt lat="45.83057" lon="4.82096">
        <ele>374</ele>
        <time>2012-01-29T08:32:43Z</time>
      </trkpt>
      <trkpt lat="45.83054" lon="4.82092">
        <ele>375</ele>
        <time>2012-01-29T08:32:46Z</time>
      </trkpt>
      <trkpt lat="45.83048" lon="4.82087">
        <ele>376</ele>
        <time>2012-01-29T08:32:51Z</time>
      </trkpt>
      <trkpt lat="45.83042" lon="4.82078">
        <ele>371</ele>
        <time>2012-01-29T08:32:58Z</time>
      </trkpt>
      <trkpt lat="45.83039" lon="4.82074">
        <ele>372</ele>
        <time>2012-01-29T08:33:00Z</time>
      </trkpt>
      <trkpt lat="45.83034" lon="4.82068">
        <ele>373</ele>
        <time>2012-01-29T08:33:05Z</time>
      </trkpt>
      <trkpt lat="45.83032" lon="4.82065">
        <ele>373</ele>
        <time>2012-01-29T08:33:07Z</time>
      </trkpt>
      <trkpt lat="45.83025" lon="4.82058">
        <ele>375</ele>
        <time>2012-01-29T08:33:12Z</time>
      </trkpt>
      <trkpt lat="45.83024" lon="4.82057">
        <ele>375</ele>
        <time>2012-01-29T08:33:13Z</time>
      </trkpt>
      <trkpt lat="45.8302" lon="4.82053">
        <ele>375</ele>
        <time>2012-01-29T08:33:16Z</time>
      </trkpt>
      <trkpt lat="45.83015" lon="4.82044">
        <ele>375</ele>
        <time>2012-01-29T08:33:22Z</time>
      </trkpt>
      <trkpt lat="45.83012" lon="4.8204">
        <ele>376</ele>
        <time>2012-01-29T08:33:25Z</time>
      </trkpt>
      <trkpt lat="45.83009" lon="4.82035">
        <ele>376</ele>
        <time>2012-01-29T08:33:28Z</time>
      </trkpt>
      <trkpt lat="45.83005" lon="4.82033">
        <ele>377</ele>
        <time>2012-01-29T08:33:33Z</time>
      </trkpt>
      <trkpt lat="45.83002" lon="4.8203">
        <ele>377</ele>
        <time>2012-01-29T08:33:43Z</time>
      </trkpt>
      <trkpt lat="45.82998" lon="4.82031">
        <ele>392</ele>
        <time>2012-01-29T08:34:16Z</time>
      </trkpt>
      <trkpt lat="45.82996" lon="4.82028">
        <ele>392</ele>
        <time>2012-01-29T08:34:17Z</time>
      </trkpt>
      <trkpt lat="45.8299" lon="4.82016">
        <ele>391</ele>
        <time>2012-01-29T08:34:22Z</time>
      </trkpt>
      <trkpt lat="45.82988" lon="4.82013">
        <ele>391</ele>
        <time>2012-01-29T08:34:23Z</time>
      </trkpt>
      <trkpt lat="45.82986" lon="4.82011">
        <ele>391</ele>
        <time>2012-01-29T08:34:24Z</time>
      </trkpt>
      <trkpt lat="45.82981" lon="4.82005">
        <ele>392</ele>
        <time>2012-01-29T08:34:26Z</time>
      </trkpt>
      <trkpt lat="45.82975" lon="4.82">
        <ele>392</ele>
        <time>2012-01-29T08:34:31Z</time>
      </trkpt>
      <trkpt lat="45.82973" lon="4.82">
        <ele>393</ele>
        <time>2012-01-29T08:34:32Z</time>
      </trkpt>
      <trkpt lat="45.82969" lon="4.81999">
        <ele>393</ele>
        <time>2012-01-29T08:34:35Z</time>
      </trkpt>
      <trkpt lat="45.82968" lon="4.81997">
        <ele>393</ele>
        <time>2012-01-29T08:34:36Z</time>
      </trkpt>
      <trkpt lat="45.82968" lon="4.81996">
        <ele>393</ele>
        <time>2012-01-29T08:34:37Z</time>
      </trkpt>
      <trkpt lat="45.82958" lon="4.8199">
        <ele>394</ele>
        <time>2012-01-29T08:35:17Z</time>
      </trkpt>
      <trkpt lat="45.82958" lon="4.81992">
        <ele>394</ele>
        <time>2012-01-29T08:35:18Z</time>
      </trkpt>
      <trkpt lat="45.82957" lon="4.81995">
        <ele>394</ele>
        <time>2012-01-29T08:35:21Z</time>
      </trkpt>
      <trkpt lat="45.82956" lon="4.81994">
        <ele>394</ele>
        <time>2012-01-29T08:35:23Z</time>
      </trkpt>
      <trkpt lat="45.82954" lon="4.81987">
        <ele>395</ele>
        <time>2012-01-29T08:35:29Z</time>
      </trkpt>
      <trkpt lat="45.82954" lon="4.81986">
        <ele>395</ele>
        <time>2012-01-29T08:35:30Z</time>
      </trkpt>
      <trkpt lat="45.82954" lon="4.81983">
        <ele>395</ele>
        <time>2012-01-29T08:35:32Z</time>
      </trkpt>
      <trkpt lat="45.82953" lon="4.8198">
        <ele>395</ele>
        <time>2012-01-29T08:35:34Z</time>
      </trkpt>
      <trkpt lat="45.82952" lon="4.81975">
        <ele>395</ele>
        <time>2012-01-29T08:35:37Z</time>
      </trkpt>
      <trkpt lat="45.82951" lon="4.81972">
        <ele>395</ele>
        <time>2012-01-29T08:35:39Z</time>
      </trkpt>
      <trkpt lat="45.82951" lon="4.8197">
        <ele>395</ele>
        <time>2012-01-29T08:35:40Z</time>
      </trkpt>
      <trkpt lat="45.82949" lon="4.81964">
        <ele>395</ele>
        <time>2012-01-29T08:35:45Z</time>
      </trkpt>
      <trkpt lat="45.82947" lon="4.81958">
        <ele>396</ele>
        <time>2012-01-29T08:35:50Z</time>
      </trkpt>
      <trkpt lat="45.82946" lon="4.81957">
        <ele>396</ele>
        <time>2012-01-29T08:35:51Z</time>
      </trkpt>
      <trkpt lat="45.82942" lon="4.8195">
        <ele>396</ele>
        <time>2012-01-29T08:35:56Z</time>
      </trkpt>
      <trkpt lat="45.82941" lon="4.81948">
        <ele>396</ele>
        <time>2012-01-29T08:35:57Z</time>
      </trkpt>
      <trkpt lat="45.82941" lon="4.81946">
        <ele>397</ele>
        <time>2012-01-29T08:35:58Z</time>
      </trkpt>
      <trkpt lat="45.82941" lon="4.8194">
        <ele>397</ele>
        <time>2012-01-29T08:36:01Z</time>
      </trkpt>
      <trkpt lat="45.82941" lon="4.81938">
        <ele>397</ele>
        <time>2012-01-29T08:36:02Z</time>
      </trkpt>
      <trkpt lat="45.8294" lon="4.81935">
        <ele>397</ele>
        <time>2012-01-29T08:36:04Z</time>
      </trkpt>
      <trkpt lat="45.82938" lon="4.81932">
        <ele>398</ele>
        <time>2012-01-29T08:36:07Z</time>
      </trkpt>
      <trkpt lat="45.82935" lon="4.81932">
        <ele>398</ele>
        <time>2012-01-29T08:36:13Z</time>
      </trkpt>
      <trkpt lat="45.82932" lon="4.81929">
        <ele>399</ele>
        <time>2012-01-29T08:36:19Z</time>
      </trkpt>
      <trkpt lat="45.8293" lon="4.81929">
        <ele>399</ele>
        <time>2012-01-29T08:36:20Z</time>
      </trkpt>
      <trkpt lat="45.82929" lon="4.81929">
        <ele>400</ele>
        <time>2012-01-29T08:36:21Z</time>
      </trkpt>
      <trkpt lat="45.82926" lon="4.81925">
        <ele>401</ele>
        <time>2012-01-29T08:36:25Z</time>
      </trkpt>
      <trkpt lat="45.8292" lon="4.81921">
        <ele>403</ele>
        <time>2012-01-29T08:36:31Z</time>
      </trkpt>
      <trkpt lat="45.82917" lon="4.81918">
        <ele>404</ele>
        <time>2012-01-29T08:36:35Z</time>
      </trkpt>
      <trkpt lat="45.82916" lon="4.81916">
        <ele>405</ele>
        <time>2012-01-29T08:36:38Z</time>
      </trkpt>
      <trkpt lat="45.82915" lon="4.81914">
        <ele>406</ele>
        <time>2012-01-29T08:36:40Z</time>
      </trkpt>
      <trkpt lat="45.82914" lon="4.81914">
        <ele>407</ele>
        <time>2012-01-29T08:36:43Z</time>
      </trkpt>
      <trkpt lat="45.82911" lon="4.81911">
        <ele>408</ele>
        <time>2012-01-29T08:36:49Z</time>
      </trkpt>
      <trkpt lat="45.82909" lon="4.81909">
        <ele>409</ele>
        <time>2012-01-29T08:36:55Z</time>
      </trkpt>
      <trkpt lat="45.82905" lon="4.81906">
        <ele>410</ele>
        <time>2012-01-29T08:37:00Z</time>
      </trkpt>
      <trkpt lat="45.82903" lon="4.81901">
        <ele>412</ele>
        <time>2012-01-29T08:37:05Z</time>
      </trkpt>
      <trkpt lat="45.82901" lon="4.819">
        <ele>412</ele>
        <time>2012-01-29T08:37:07Z</time>
      </trkpt>
      <trkpt lat="45.82899" lon="4.81898">
        <ele>412</ele>
        <time>2012-01-29T08:37:09Z</time>
      </trkpt>
      <trkpt lat="45.82899" lon="4.81897">
        <ele>413</ele>
        <time>2012-01-29T08:37:10Z</time>
      </trkpt>
      <trkpt lat="45.82894" lon="4.81895">
        <ele>413</ele>
        <time>2012-01-29T08:37:15Z</time>
      </trkpt>
      <trkpt lat="45.82892" lon="4.81893">
        <ele>414</ele>
        <time>2012-01-29T08:37:17Z</time>
      </trkpt>
      <trkpt lat="45.82891" lon="4.81892">
        <ele>414</ele>
        <time>2012-01-29T08:37:19Z</time>
      </trkpt>
      <trkpt lat="45.82889" lon="4.81891">
        <ele>414</ele>
        <time>2012-01-29T08:37:21Z</time>
      </trkpt>
      <trkpt lat="45.82888" lon="4.81891">
        <ele>414</ele>
        <time>2012-01-29T08:37:22Z</time>
      </trkpt>
      <trkpt lat="45.82886" lon="4.81885">
        <ele>415</ele>
        <time>2012-01-29T08:37:26Z</time>
      </trkpt>
      <trkpt lat="45.82886" lon="4.81884">
        <ele>415</ele>
        <time>2012-01-29T08:37:27Z</time>
      </trkpt>
      <trkpt lat="45.82885" lon="4.8188">
        <ele>415</ele>
        <time>2012-01-29T08:37:29Z</time>
      </trkpt>
      <trkpt lat="45.82884" lon="4.81876">
        <ele>416</ele>
        <time>2012-01-29T08:37:33Z</time>
      </trkpt>
      <trkpt lat="45.82883" lon="4.81874">
        <ele>416</ele>
        <time>2012-01-29T08:37:34Z</time>
      </trkpt>
      <trkpt lat="45.82883" lon="4.81872">
        <ele>416</ele>
        <time>2012-01-29T08:37:36Z</time>
      </trkpt>
      <trkpt lat="45.82883" lon="4.8187">
        <ele>416</ele>
        <time>2012-01-29T08:37:39Z</time>
      </trkpt>
      <trkpt lat="45.82878" lon="4.81865">
        <ele>416</ele>
        <time>2012-01-29T08:37:49Z</time>
      </trkpt>
      <trkpt lat="45.82876" lon="4.81862">
        <ele>417</ele>
        <time>2012-01-29T08:37:51Z</time>
      </trkpt>
      <trkpt lat="45.82874" lon="4.81861">
        <ele>417</ele>
        <time>2012-01-29T08:37:55Z</time>
      </trkpt>
      <trkpt lat="45.82872" lon="4.81859">
        <ele>417</ele>
        <time>2012-01-29T08:37:58Z</time>
      </trkpt>
      <trkpt lat="45.8287" lon="4.81856">
        <ele>418</ele>
        <time>2012-01-29T08:38:01Z</time>
      </trkpt>
      <trkpt lat="45.82867" lon="4.81853">
        <ele>418</ele>
        <time>2012-01-29T08:38:05Z</time>
      </trkpt>
      <trkpt lat="45.82865" lon="4.81853">
        <ele>418</ele>
        <time>2012-01-29T08:38:09Z</time>
      </trkpt>
      <trkpt lat="45.82861" lon="4.81852">
        <ele>419</ele>
        <time>2012-01-29T08:38:14Z</time>
      </trkpt>
      <trkpt lat="45.82861" lon="4.81851">
        <ele>419</ele>
        <time>2012-01-29T08:38:15Z</time>
      </trkpt>
      <trkpt lat="45.8286" lon="4.8185">
        <ele>419</ele>
        <time>2012-01-29T08:38:17Z</time>
      </trkpt>
      <trkpt lat="45.82856" lon="4.8185">
        <ele>420</ele>
        <time>2012-01-29T08:38:21Z</time>
      </trkpt>
      <trkpt lat="45.82855" lon="4.81849">
        <ele>420</ele>
        <time>2012-01-29T08:38:22Z</time>
      </trkpt>
      <trkpt lat="45.82854" lon="4.81848">
        <ele>420</ele>
        <time>2012-01-29T08:38:23Z</time>
      </trkpt>
      <trkpt lat="45.82852" lon="4.81844">
        <ele>421</ele>
        <time>2012-01-29T08:38:26Z</time>
      </trkpt>
      <trkpt lat="45.82852" lon="4.81842">
        <ele>421</ele>
        <time>2012-01-29T08:38:28Z</time>
      </trkpt>
      <trkpt lat="45.82851" lon="4.81841">
        <ele>421</ele>
        <time>2012-01-29T08:38:29Z</time>
      </trkpt>
      <trkpt lat="45.82846" lon="4.81842">
        <ele>422</ele>
        <time>2012-01-29T08:38:34Z</time>
      </trkpt>
      <trkpt lat="45.82845" lon="4.81841">
        <ele>423</ele>
        <time>2012-01-29T08:38:35Z</time>
      </trkpt>
      <trkpt lat="45.82841" lon="4.8184">
        <ele>424</ele>
        <time>2012-01-29T08:38:39Z</time>
      </trkpt>
      <trkpt lat="45.8284" lon="4.81838">
        <ele>424</ele>
        <time>2012-01-29T08:38:40Z</time>
      </trkpt>
      <trkpt lat="45.82839" lon="4.81833">
        <ele>425</ele>
        <time>2012-01-29T08:38:45Z</time>
      </trkpt>
      <trkpt lat="45.82838" lon="4.81831">
        <ele>425</ele>
        <time>2012-01-29T08:38:46Z</time>
      </trkpt>
      <trkpt lat="45.82837" lon="4.81827">
        <ele>425</ele>
        <time>2012-01-29T08:38:49Z</time>
      </trkpt>
      <trkpt lat="45.82836" lon="4.81823">
        <ele>424</ele>
        <time>2012-01-29T08:38:52Z</time>
      </trkpt>
      <trkpt lat="45.82835" lon="4.81821">
        <ele>424</ele>
        <time>2012-01-29T08:38:54Z</time>
      </trkpt>
      <trkpt lat="45.82834" lon="4.81817">
        <ele>423</ele>
        <time>2012-01-29T08:38:56Z</time>
      </trkpt>
      <trkpt lat="45.82834" lon="4.81815">
        <ele>423</ele>
        <time>2012-01-29T08:38:58Z</time>
      </trkpt>
      <trkpt lat="45.82833" lon="4.81812">
        <ele>431</ele>
        <time>2012-01-29T08:39:02Z</time>
      </trkpt>
      <trkpt lat="45.82833" lon="4.81811">
        <ele>431</ele>
        <time>2012-01-29T08:39:03Z</time>
      </trkpt>
      <trkpt lat="45.82832" lon="4.81807">
        <ele>431</ele>
        <time>2012-01-29T08:39:06Z</time>
      </trkpt>
      <trkpt lat="45.82833" lon="4.81804">
        <ele>431</ele>
        <time>2012-01-29T08:39:08Z</time>
      </trkpt>
      <trkpt lat="45.82832" lon="4.81803">
        <ele>432</ele>
        <time>2012-01-29T08:39:09Z</time>
      </trkpt>
      <trkpt lat="45.8283" lon="4.818">
        <ele>432</ele>
        <time>2012-01-29T08:39:14Z</time>
      </trkpt>
      <trkpt lat="45.82829" lon="4.81796">
        <ele>432</ele>
        <time>2012-01-29T08:39:18Z</time>
      </trkpt>
      <trkpt lat="45.82827" lon="4.81796">
        <ele>432</ele>
        <time>2012-01-29T08:39:23Z</time>
      </trkpt>
      <trkpt lat="45.82826" lon="4.81794">
        <ele>432</ele>
        <time>2012-01-29T08:39:25Z</time>
      </trkpt>
      <trkpt lat="45.82823" lon="4.81789">
        <ele>432</ele>
        <time>2012-01-29T08:39:30Z</time>
      </trkpt>
      <trkpt lat="45.8282" lon="4.81782">
        <ele>433</ele>
        <time>2012-01-29T08:39:35Z</time>
      </trkpt>
      <trkpt lat="45.8282" lon="4.81781">
        <ele>433</ele>
        <time>2012-01-29T08:39:37Z</time>
      </trkpt>
      <trkpt lat="45.8282" lon="4.81778">
        <ele>433</ele>
        <time>2012-01-29T08:39:40Z</time>
      </trkpt>
      <trkpt lat="45.8282" lon="4.81776">
        <ele>433</ele>
        <time>2012-01-29T08:39:41Z</time>
      </trkpt>
      <trkpt lat="45.82821" lon="4.81773">
        <ele>433</ele>
        <time>2012-01-29T08:39:44Z</time>
      </trkpt>
      <trkpt lat="45.82821" lon="4.81771">
        <ele>433</ele>
        <time>2012-01-29T08:39:46Z</time>
      </trkpt>
      <trkpt lat="45.82822" lon="4.81771">
        <ele>433</ele>
        <time>2012-01-29T08:39:48Z</time>
      </trkpt>
      <trkpt lat="45.8282" lon="4.81769">
        <ele>433</ele>
        <time>2012-01-29T08:39:51Z</time>
      </trkpt>
      <trkpt lat="45.82819" lon="4.81769">
        <ele>433</ele>
        <time>2012-01-29T08:39:52Z</time>
      </trkpt>
      <trkpt lat="45.82816" lon="4.81766">
        <ele>433</ele>
        <time>2012-01-29T08:39:56Z</time>
      </trkpt>
      <trkpt lat="45.82811" lon="4.81762">
        <ele>433</ele>
        <time>2012-01-29T08:40:03Z</time>
      </trkpt>
      <trkpt lat="45.82807" lon="4.81761">
        <ele>433</ele>
        <time>2012-01-29T08:40:08Z</time>
      </trkpt>
      <trkpt lat="45.82807" lon="4.81759">
        <ele>433</ele>
        <time>2012-01-29T08:40:09Z</time>
      </trkpt>
      <trkpt lat="45.82808" lon="4.81758">
        <ele>433</ele>
        <time>2012-01-29T08:40:10Z</time>
      </trkpt>
      <trkpt lat="45.82809" lon="4.81757">
        <ele>433</ele>
        <time>2012-01-29T08:40:12Z</time>
      </trkpt>
      <trkpt lat="45.8281" lon="4.81756">
        <ele>433</ele>
        <time>2012-01-29T08:40:13Z</time>
      </trkpt>
      <trkpt lat="45.82811" lon="4.81754">
        <ele>433</ele>
        <time>2012-01-29T08:40:15Z</time>
      </trkpt>
      <trkpt lat="45.82811" lon="4.8175">
        <ele>432</ele>
        <time>2012-01-29T08:40:19Z</time>
      </trkpt>
      <trkpt lat="45.82813" lon="4.81746">
        <ele>432</ele>
        <time>2012-01-29T08:40:24Z</time>
      </trkpt>
      <trkpt lat="45.82811" lon="4.81744">
        <ele>432</ele>
        <time>2012-01-29T08:40:34Z</time>
      </trkpt>
      <trkpt lat="45.82807" lon="4.81737">
        <ele>432</ele>
        <time>2012-01-29T08:40:42Z</time>
      </trkpt>
      <trkpt lat="45.82806" lon="4.81736">
        <ele>432</ele>
        <time>2012-01-29T08:40:43Z</time>
      </trkpt>
      <trkpt lat="45.82803" lon="4.81733">
        <ele>432</ele>
        <time>2012-01-29T08:40:45Z</time>
      </trkpt>
      <trkpt lat="45.82803" lon="4.81729">
        <ele>432</ele>
        <time>2012-01-29T08:40:48Z</time>
      </trkpt>
      <trkpt lat="45.82802" lon="4.81722">
        <ele>432</ele>
        <time>2012-01-29T08:41:07Z</time>
      </trkpt>
      <trkpt lat="45.82802" lon="4.8172">
        <ele>432</ele>
        <time>2012-01-29T08:41:08Z</time>
      </trkpt>
      <trkpt lat="45.82802" lon="4.81716">
        <ele>431</ele>
        <time>2012-01-29T08:41:10Z</time>
      </trkpt>
      <trkpt lat="45.82799" lon="4.81712">
        <ele>431</ele>
        <time>2012-01-29T08:41:13Z</time>
      </trkpt>
      <trkpt lat="45.82797" lon="4.81705">
        <ele>431</ele>
        <time>2012-01-29T08:41:18Z</time>
      </trkpt>
      <trkpt lat="45.82797" lon="4.81694">
        <ele>431</ele>
        <time>2012-01-29T08:41:24Z</time>
      </trkpt>
      <trkpt lat="45.82795" lon="4.81689">
        <ele>431</ele>
        <time>2012-01-29T08:41:28Z</time>
      </trkpt>
      <trkpt lat="45.82794" lon="4.81686">
        <ele>431</ele>
        <time>2012-01-29T08:41:30Z</time>
      </trkpt>
      <trkpt lat="45.82788" lon="4.81675">
        <ele>431</ele>
        <time>2012-01-29T08:41:38Z</time>
      </trkpt>
      <trkpt lat="45.82785" lon="4.81664">
        <ele>427</ele>
        <time>2012-01-29T08:41:44Z</time>
      </trkpt>
      <trkpt lat="45.82783" lon="4.81656">
        <ele>427</ele>
        <time>2012-01-29T08:41:51Z</time>
      </trkpt>
      <trkpt lat="45.82781" lon="4.8165">
        <ele>427</ele>
        <time>2012-01-29T08:42:05Z</time>
      </trkpt>
      <trkpt lat="45.8278" lon="4.81648">
        <ele>427</ele>
        <time>2012-01-29T08:42:06Z</time>
      </trkpt>
      <trkpt lat="45.82779" lon="4.81641">
        <ele>427</ele>
        <time>2012-01-29T08:42:10Z</time>
      </trkpt>
      <trkpt lat="45.82777" lon="4.81633">
        <ele>427</ele>
        <time>2012-01-29T08:42:14Z</time>
      </trkpt>
      <trkpt lat="45.82775" lon="4.81619">
        <ele>427</ele>
        <time>2012-01-29T08:42:20Z</time>
      </trkpt>
      <trkpt lat="45.82774" lon="4.81615">
        <ele>427</ele>
        <time>2012-01-29T08:42:22Z</time>
      </trkpt>
      <trkpt lat="45.82772" lon="4.81611">
        <ele>427</ele>
        <time>2012-01-29T08:42:26Z</time>
      </trkpt>
      <trkpt lat="45.82773" lon="4.81608">
        <ele>427</ele>
        <time>2012-01-29T08:42:32Z</time>
      </trkpt>
      <trkpt lat="45.82772" lon="4.816">
        <ele>428</ele>
        <time>2012-01-29T08:42:36Z</time>
      </trkpt>
      <trkpt lat="45.82768" lon="4.8159">
        <ele>429</ele>
        <time>2012-01-29T08:42:40Z</time>
      </trkpt>
      <trkpt lat="45.82767" lon="4.81586">
        <ele>430</ele>
        <time>2012-01-29T08:42:41Z</time>
      </trkpt>
      <trkpt lat="45.82764" lon="4.8157">
        <ele>426</ele>
        <time>2012-01-29T08:42:46Z</time>
      </trkpt>
      <trkpt lat="45.82763" lon="4.81563">
        <ele>425</ele>
        <time>2012-01-29T08:42:48Z</time>
      </trkpt>
      <trkpt lat="45.82763" lon="4.81558">
        <ele>424</ele>
        <time>2012-01-29T08:42:50Z</time>
      </trkpt>
      <trkpt lat="45.82763" lon="4.81555">
        <ele>424</ele>
        <time>2012-01-29T08:42:51Z</time>
      </trkpt>
      <trkpt lat="45.82768" lon="4.81546">
        <ele>422</ele>
        <time>2012-01-29T08:42:55Z</time>
      </trkpt>
      <trkpt lat="45.82766" lon="4.81539">
        <ele>422</ele>
        <time>2012-01-29T08:42:57Z</time>
      </trkpt>
      <trkpt lat="45.82763" lon="4.8153">
        <ele>423</ele>
        <time>2012-01-29T08:43:00Z</time>
      </trkpt>
      <trkpt lat="45.82759" lon="4.81513">
        <ele>425</ele>
        <time>2012-01-29T08:43:05Z</time>
      </trkpt>
      <trkpt lat="45.82758" lon="4.81495">
        <ele>425</ele>
        <time>2012-01-29T08:43:10Z</time>
      </trkpt>
      <trkpt lat="45.82758" lon="4.81492">
        <ele>424</ele>
        <time>2012-01-29T08:43:11Z</time>
      </trkpt>
      <trkpt lat="45.82759" lon="4.81486">
        <ele>423</ele>
        <time>2012-01-29T08:43:13Z</time>
      </trkpt>
      <trkpt lat="45.82761" lon="4.81473">
        <ele>420</ele>
        <time>2012-01-29T08:43:17Z</time>
      </trkpt>
      <trkpt lat="45.82764" lon="4.81459">
        <ele>418</ele>
        <time>2012-01-29T08:43:22Z</time>
      </trkpt>
      <trkpt lat="45.82767" lon="4.81454">
        <ele>418</ele>
        <time>2012-01-29T08:43:24Z</time>
      </trkpt>
      <trkpt lat="45.82769" lon="4.8145">
        <ele>417</ele>
        <time>2012-01-29T08:43:26Z</time>
      </trkpt>
      <trkpt lat="45.82771" lon="4.81439">
        <ele>417</ele>
        <time>2012-01-29T08:43:30Z</time>
      </trkpt>
      <trkpt lat="45.82771" lon="4.81436">
        <ele>418</ele>
        <time>2012-01-29T08:43:31Z</time>
      </trkpt>
      <trkpt lat="45.82772" lon="4.81433">
        <ele>418</ele>
        <time>2012-01-29T08:43:32Z</time>
      </trkpt>
      <trkpt lat="45.82774" lon="4.81423">
        <ele>418</ele>
        <time>2012-01-29T08:43:35Z</time>
      </trkpt>
      <trkpt lat="45.82776" lon="4.81414">
        <ele>417</ele>
        <time>2012-01-29T08:43:38Z</time>
      </trkpt>
      <trkpt lat="45.82777" lon="4.81408">
        <ele>416</ele>
        <time>2012-01-29T08:43:40Z</time>
      </trkpt>
      <trkpt lat="45.82778" lon="4.81401">
        <ele>416</ele>
        <time>2012-01-29T08:43:43Z</time>
      </trkpt>
      <trkpt lat="45.82778" lon="4.81395">
        <ele>416</ele>
        <time>2012-01-29T08:43:45Z</time>
      </trkpt>
      <trkpt lat="45.82781" lon="4.81383">
        <ele>415</ele>
        <time>2012-01-29T08:43:49Z</time>
      </trkpt>
      <trkpt lat="45.82784" lon="4.81378">
        <ele>415</ele>
        <time>2012-01-29T08:43:51Z</time>
      </trkpt>
      <trkpt lat="45.82784" lon="4.81361">
        <ele>415</ele>
        <time>2012-01-29T08:43:56Z</time>
      </trkpt>
      <trkpt lat="45.82784" lon="4.81358">
        <ele>414</ele>
        <time>2012-01-29T08:43:57Z</time>
      </trkpt>
      <trkpt lat="45.82788" lon="4.81338">
        <ele>414</ele>
        <time>2012-01-29T08:44:03Z</time>
      </trkpt>
      <trkpt lat="45.82789" lon="4.81332">
        <ele>414</ele>
        <time>2012-01-29T08:44:05Z</time>
      </trkpt>
      <trkpt lat="45.82791" lon="4.81323">
        <ele>413</ele>
        <time>2012-01-29T08:44:08Z</time>
      </trkpt>
      <trkpt lat="45.82795" lon="4.81306">
        <ele>413</ele>
        <time>2012-01-29T08:44:13Z</time>
      </trkpt>
      <trkpt lat="45.82796" lon="4.81303">
        <ele>413</ele>
        <time>2012-01-29T08:44:14Z</time>
      </trkpt>
      <trkpt lat="45.82795" lon="4.81288">
        <ele>413</ele>
        <time>2012-01-29T08:44:19Z</time>
      </trkpt>
      <trkpt lat="45.82791" lon="4.81285">
        <ele>413</ele>
        <time>2012-01-29T08:44:21Z</time>
      </trkpt>
      <trkpt lat="45.82784" lon="4.81279">
        <ele>413</ele>
        <time>2012-01-29T08:44:24Z</time>
      </trkpt>
      <trkpt lat="45.82774" lon="4.81278">
        <ele>413</ele>
        <time>2012-01-29T08:44:28Z</time>
      </trkpt>
      <trkpt lat="45.82771" lon="4.81278">
        <ele>413</ele>
        <time>2012-01-29T08:44:29Z</time>
      </trkpt>
      <trkpt lat="45.82756" lon="4.81276">
        <ele>413</ele>
        <time>2012-01-29T08:44:35Z</time>
      </trkpt>
      <trkpt lat="45.82754" lon="4.81276">
        <ele>413</ele>
        <time>2012-01-29T08:44:36Z</time>
      </trkpt>
      <trkpt lat="45.82747" lon="4.81275">
        <ele>413</ele>
        <time>2012-01-29T08:44:39Z</time>
      </trkpt>
      <trkpt lat="45.82737" lon="4.81276">
        <ele>413</ele>
        <time>2012-01-29T08:44:45Z</time>
      </trkpt>
      <trkpt lat="45.82735" lon="4.81276">
        <ele>413</ele>
        <time>2012-01-29T08:44:46Z</time>
      </trkpt>
      <trkpt lat="45.82727" lon="4.81272">
        <ele>413</ele>
        <time>2012-01-29T08:44:51Z</time>
      </trkpt>
      <trkpt lat="45.82718" lon="4.81265">
        <ele>413</ele>
        <time>2012-01-29T08:44:57Z</time>
      </trkpt>
      <trkpt lat="45.82706" lon="4.81256">
        <ele>413</ele>
        <time>2012-01-29T08:45:04Z</time>
      </trkpt>
      <trkpt lat="45.82704" lon="4.8125">
        <ele>412</ele>
        <time>2012-01-29T08:45:07Z</time>
      </trkpt>
      <trkpt lat="45.82705" lon="4.8125">
        <ele>409</ele>
        <time>2012-01-29T08:45:08Z</time>
      </trkpt>
      <trkpt lat="45.82706" lon="4.8125">
        <ele>409</ele>
        <time>2012-01-29T08:45:09Z</time>
      </trkpt>
      <trkpt lat="45.82706" lon="4.81249">
        <ele>409</ele>
        <time>2012-01-29T08:45:10Z</time>
      </trkpt>
      <trkpt lat="45.82708" lon="4.81245">
        <ele>409</ele>
        <time>2012-01-29T08:45:14Z</time>
      </trkpt>
      <trkpt lat="45.82708" lon="4.81242">
        <ele>408</ele>
        <time>2012-01-29T08:45:16Z</time>
      </trkpt>
      <trkpt lat="45.82707" lon="4.81233">
        <ele>408</ele>
        <time>2012-01-29T08:45:21Z</time>
      </trkpt>
      <trkpt lat="45.82707" lon="4.81226">
        <ele>408</ele>
        <time>2012-01-29T08:45:25Z</time>
      </trkpt>
      <trkpt lat="45.82708" lon="4.8122">
        <ele>408</ele>
        <time>2012-01-29T08:45:28Z</time>
      </trkpt>
      <trkpt lat="45.82708" lon="4.81219">
        <ele>408</ele>
        <time>2012-01-29T08:45:29Z</time>
      </trkpt>
      <trkpt lat="45.82708" lon="4.81206">
        <ele>407</ele>
        <time>2012-01-29T08:45:33Z</time>
      </trkpt>
      <trkpt lat="45.82709" lon="4.81199">
        <ele>407</ele>
        <time>2012-01-29T08:45:35Z</time>
      </trkpt>
      <trkpt lat="45.82715" lon="4.81185">
        <ele>407</ele>
        <time>2012-01-29T08:45:39Z</time>
      </trkpt>
      <trkpt lat="45.82722" lon="4.8118">
        <ele>407</ele>
        <time>2012-01-29T08:45:42Z</time>
      </trkpt>
      <trkpt lat="45.82724" lon="4.81177">
        <ele>407</ele>
        <time>2012-01-29T08:45:44Z</time>
      </trkpt>
      <trkpt lat="45.82725" lon="4.81176">
        <ele>407</ele>
        <time>2012-01-29T08:45:45Z</time>
      </trkpt>
      <trkpt lat="45.82725" lon="4.81176">
        <ele>407</ele>
        <time>2012-01-29T08:45:49Z</time>
      </trkpt>
      <trkpt lat="45.82723" lon="4.81177">
        <ele>407</ele>
        <time>2012-01-29T08:45:58Z</time>
      </trkpt>
      <trkpt lat="45.82723" lon="4.81172">
        <ele>407</ele>
        <time>2012-01-29T08:46:16Z</time>
      </trkpt>
      <trkpt lat="45.82724" lon="4.81172">
        <ele>407</ele>
        <time>2012-01-29T08:46:17Z</time>
      </trkpt>
      <trkpt lat="45.82722" lon="4.81176">
        <ele>407</ele>
        <time>2012-01-29T08:46:24Z</time>
      </trkpt>
      <trkpt lat="45.8272" lon="4.81178">
        <ele>407</ele>
        <time>2012-01-29T08:46:28Z</time>
      </trkpt>
      <trkpt lat="45.8272" lon="4.81178">
        <ele>407</ele>
        <time>2012-01-29T08:46:31Z</time>
      </trkpt>
      <trkpt lat="45.82724" lon="4.81185">
        <ele>407</ele>
        <time>2012-01-29T08:47:07Z</time>
      </trkpt>
      <trkpt lat="45.8272" lon="4.81185">
        <ele>407</ele>
        <time>2012-01-29T08:47:10Z</time>
      </trkpt>
      <trkpt lat="45.82718" lon="4.81185">
        <ele>407</ele>
        <time>2012-01-29T08:47:14Z</time>
      </trkpt>
      <trkpt lat="45.82718" lon="4.81185">
        <ele>407</ele>
        <time>2012-01-29T08:47:15Z</time>
      </trkpt>
      <trkpt lat="45.8272" lon="4.8118">
        <ele>407</ele>
        <time>2012-01-29T08:47:35Z</time>
      </trkpt>
      <trkpt lat="45.82722" lon="4.81178">
        <ele>407</ele>
        <time>2012-01-29T08:47:36Z</time>
      </trkpt>
      <trkpt lat="45.82728" lon="4.81173">
        <ele>407</ele>
        <time>2012-01-29T08:47:41Z</time>
      </trkpt>
      <trkpt lat="45.82736" lon="4.81171">
        <ele>408</ele>
        <time>2012-01-29T08:47:46Z</time>
      </trkpt>
      <trkpt lat="45.8274" lon="4.81171">
        <ele>408</ele>
        <time>2012-01-29T08:47:48Z</time>
      </trkpt>
      <trkpt lat="45.82749" lon="4.81171">
        <ele>408</ele>
        <time>2012-01-29T08:47:52Z</time>
      </trkpt>
      <trkpt lat="45.82759" lon="4.81172">
        <ele>409</ele>
        <time>2012-01-29T08:47:56Z</time>
      </trkpt>
      <trkpt lat="45.82765" lon="4.81171">
        <ele>409</ele>
        <time>2012-01-29T08:47:59Z</time>
      </trkpt>
      <trkpt lat="45.82765" lon="4.8117">
        <ele>409</ele>
        <time>2012-01-29T08:48:02Z</time>
      </trkpt>
      <trkpt lat="45.82763" lon="4.8117">
        <ele>409</ele>
        <time>2012-01-29T08:48:08Z</time>
      </trkpt>
      <trkpt lat="45.82761" lon="4.81166">
        <ele>407</ele>
        <time>2012-01-29T08:48:10Z</time>
      </trkpt>
      <trkpt lat="45.82759" lon="4.8116">
        <ele>407</ele>
        <time>2012-01-29T08:48:12Z</time>
      </trkpt>
      <trkpt lat="45.82762" lon="4.81147">
        <ele>406</ele>
        <time>2012-01-29T08:48:16Z</time>
      </trkpt>
      <trkpt lat="45.8277" lon="4.81141">
        <ele>406</ele>
        <time>2012-01-29T08:48:20Z</time>
      </trkpt>
      <trkpt lat="45.82773" lon="4.81139">
        <ele>406</ele>
        <time>2012-01-29T08:48:22Z</time>
      </trkpt>
      <trkpt lat="45.82782" lon="4.81133">
        <ele>406</ele>
        <time>2012-01-29T08:48:27Z</time>
      </trkpt>
      <trkpt lat="45.82784" lon="4.81131">
        <ele>406</ele>
        <time>2012-01-29T08:48:28Z</time>
      </trkpt>
      <trkpt lat="45.82787" lon="4.81129">
        <ele>406</ele>
        <time>2012-01-29T08:48:30Z</time>
      </trkpt>
      <trkpt lat="45.82788" lon="4.81129">
        <ele>406</ele>
        <time>2012-01-29T08:48:31Z</time>
      </trkpt>
      <trkpt lat="45.82791" lon="4.81134">
        <ele>406</ele>
        <time>2012-01-29T08:48:37Z</time>
      </trkpt>
      <trkpt lat="45.82791" lon="4.81133">
        <ele>406</ele>
        <time>2012-01-29T08:48:38Z</time>
      </trkpt>
      <trkpt lat="45.82793" lon="4.81132">
        <ele>406</ele>
        <time>2012-01-29T08:48:42Z</time>
      </trkpt>
      <trkpt lat="45.82788" lon="4.81129">
        <ele>406</ele>
        <time>2012-01-29T08:48:49Z</time>
      </trkpt>
      <trkpt lat="45.82787" lon="4.81128">
        <ele>405</ele>
        <time>2012-01-29T08:48:50Z</time>
      </trkpt>
      <trkpt lat="45.82786" lon="4.81121">
        <ele>405</ele>
        <time>2012-01-29T08:48:53Z</time>
      </trkpt>
      <trkpt lat="45.82788" lon="4.81118">
        <ele>405</ele>
        <time>2012-01-29T08:48:55Z</time>
      </trkpt>
      <trkpt lat="45.8279" lon="4.81117">
        <ele>405</ele>
        <time>2012-01-29T08:48:59Z</time>
      </trkpt>
      <trkpt lat="45.82787" lon="4.81118">
        <ele>405</ele>
        <time>2012-01-29T08:49:04Z</time>
      </trkpt>
      <trkpt lat="45.82784" lon="4.81126">
        <ele>405</ele>
        <time>2012-01-29T08:49:09Z</time>
      </trkpt>
      <trkpt lat="45.82783" lon="4.81129">
        <ele>405</ele>
        <time>2012-01-29T08:49:11Z</time>
      </trkpt>
      <trkpt lat="45.82781" lon="4.81131">
        <ele>405</ele>
        <time>2012-01-29T08:49:13Z</time>
      </trkpt>
      <trkpt lat="45.82776" lon="4.81134">
        <ele>406</ele>
        <time>2012-01-29T08:49:16Z</time>
      </trkpt>
      <trkpt lat="45.82768" lon="4.81139">
        <ele>406</ele>
        <time>2012-01-29T08:49:20Z</time>
      </trkpt>
      <trkpt lat="45.82764" lon="4.81143">
        <ele>406</ele>
        <time>2012-01-29T08:49:24Z</time>
      </trkpt>
      <trkpt lat="45.82762" lon="4.81146">
        <ele>406</ele>
        <time>2012-01-29T08:49:26Z</time>
      </trkpt>
      <trkpt lat="45.82762" lon="4.81158">
        <ele>407</ele>
        <time>2012-01-29T08:49:32Z</time>
      </trkpt>
      <trkpt lat="45.82763" lon="4.81167">
        <ele>409</ele>
        <time>2012-01-29T08:49:37Z</time>
      </trkpt>
      <trkpt lat="45.82764" lon="4.81167">
        <ele>409</ele>
        <time>2012-01-29T08:49:38Z</time>
      </trkpt>
      <trkpt lat="45.82768" lon="4.8117">
        <ele>409</ele>
        <time>2012-01-29T08:49:43Z</time>
      </trkpt>
      <trkpt lat="45.82767" lon="4.81173">
        <ele>409</ele>
        <time>2012-01-29T08:49:48Z</time>
      </trkpt>
      <trkpt lat="45.82766" lon="4.81173">
        <ele>409</ele>
        <time>2012-01-29T08:49:49Z</time>
      </trkpt>
      <trkpt lat="45.82763" lon="4.81172">
        <ele>409</ele>
        <time>2012-01-29T08:49:52Z</time>
      </trkpt>
      <trkpt lat="45.8276" lon="4.81173">
        <ele>409</ele>
        <time>2012-01-29T08:49:55Z</time>
      </trkpt>
      <trkpt lat="45.82756" lon="4.81176">
        <ele>409</ele>
        <time>2012-01-29T08:49:58Z</time>
      </trkpt>
      <trkpt lat="45.82754" lon="4.81177">
        <ele>409</ele>
        <time>2012-01-29T08:49:59Z</time>
      </trkpt>
      <trkpt lat="45.82753" lon="4.81179">
        <ele>409</ele>
        <time>2012-01-29T08:50:00Z</time>
      </trkpt>
      <trkpt lat="45.82751" lon="4.81179">
        <ele>409</ele>
        <time>2012-01-29T08:50:01Z</time>
      </trkpt>
      <trkpt lat="45.82745" lon="4.81179">
        <ele>408</ele>
        <time>2012-01-29T08:50:05Z</time>
      </trkpt>
      <trkpt lat="45.82742" lon="4.81182">
        <ele>408</ele>
        <time>2012-01-29T08:50:10Z</time>
      </trkpt>
      <trkpt lat="45.82743" lon="4.81187">
        <ele>408</ele>
        <time>2012-01-29T08:50:13Z</time>
      </trkpt>
      <trkpt lat="45.82743" lon="4.8119">
        <ele>408</ele>
        <time>2012-01-29T08:50:15Z</time>
      </trkpt>
      <trkpt lat="45.82742" lon="4.8119">
        <ele>408</ele>
        <time>2012-01-29T08:50:16Z</time>
      </trkpt>
      <trkpt lat="45.82742" lon="4.81183">
        <ele>408</ele>
        <time>2012-01-29T08:50:19Z</time>
      </trkpt>
      <trkpt lat="45.82734" lon="4.81179">
        <ele>408</ele>
        <time>2012-01-29T08:50:23Z</time>
      </trkpt>
      <trkpt lat="45.82731" lon="4.81178">
        <ele>408</ele>
        <time>2012-01-29T08:50:24Z</time>
      </trkpt>
      <trkpt lat="45.82725" lon="4.81174">
        <ele>407</ele>
        <time>2012-01-29T08:50:27Z</time>
      </trkpt>
      <trkpt lat="45.82723" lon="4.81175">
        <ele>407</ele>
        <time>2012-01-29T08:50:28Z</time>
      </trkpt>
      <trkpt lat="45.82716" lon="4.81186">
        <ele>407</ele>
        <time>2012-01-29T08:50:32Z</time>
      </trkpt>
      <trkpt lat="45.82714" lon="4.81189">
        <ele>407</ele>
        <time>2012-01-29T08:50:33Z</time>
      </trkpt>
      <trkpt lat="45.82713" lon="4.81209">
        <ele>408</ele>
        <time>2012-01-29T08:50:39Z</time>
      </trkpt>
      <trkpt lat="45.82714" lon="4.81212">
        <ele>408</ele>
        <time>2012-01-29T08:50:40Z</time>
      </trkpt>
      <trkpt lat="45.82713" lon="4.81221">
        <ele>408</ele>
        <time>2012-01-29T08:50:43Z</time>
      </trkpt>
      <trkpt lat="45.82713" lon="4.81224">
        <ele>408</ele>
        <time>2012-01-29T08:50:44Z</time>
      </trkpt>
      <trkpt lat="45.82713" lon="4.81236">
        <ele>409</ele>
        <time>2012-01-29T08:50:48Z</time>
      </trkpt>
      <trkpt lat="45.82714" lon="4.81238">
        <ele>409</ele>
        <time>2012-01-29T08:50:49Z</time>
      </trkpt>
      <trkpt lat="45.82714" lon="4.81241">
        <ele>409</ele>
        <time>2012-01-29T08:50:51Z</time>
      </trkpt>
      <trkpt lat="45.82713" lon="4.81241">
        <ele>409</ele>
        <time>2012-01-29T08:50:52Z</time>
      </trkpt>
      <trkpt lat="45.8271" lon="4.81246">
        <ele>409</ele>
        <time>2012-01-29T08:50:56Z</time>
      </trkpt>
      <trkpt lat="45.8271" lon="4.81247">
        <ele>409</ele>
        <time>2012-01-29T08:50:57Z</time>
      </trkpt>
      <trkpt lat="45.82708" lon="4.81247">
        <ele>409</ele>
        <time>2012-01-29T08:51:01Z</time>
      </trkpt>
      <trkpt lat="45.82708" lon="4.81248">
        <ele>409</ele>
        <time>2012-01-29T08:51:04Z</time>
      </trkpt>
      <trkpt lat="45.82709" lon="4.81252">
        <ele>413</ele>
        <time>2012-01-29T08:51:06Z</time>
      </trkpt>
      <trkpt lat="45.82711" lon="4.81256">
        <ele>413</ele>
        <time>2012-01-29T08:51:08Z</time>
      </trkpt>
      <trkpt lat="45.82715" lon="4.8126">
        <ele>413</ele>
        <time>2012-01-29T08:51:10Z</time>
      </trkpt>
      <trkpt lat="45.82716" lon="4.81262">
        <ele>413</ele>
        <time>2012-01-29T08:51:11Z</time>
      </trkpt>
      <trkpt lat="45.82717" lon="4.81263">
        <ele>413</ele>
        <time>2012-01-29T08:51:12Z</time>
      </trkpt>
      <trkpt lat="45.82718" lon="4.81265">
        <ele>413</ele>
        <time>2012-01-29T08:51:14Z</time>
      </trkpt>
      <trkpt lat="45.8272" lon="4.81268">
        <ele>413</ele>
        <time>2012-01-29T08:51:16Z</time>
      </trkpt>
      <trkpt lat="45.82725" lon="4.81273">
        <ele>413</ele>
        <time>2012-01-29T08:51:20Z</time>
      </trkpt>
      <trkpt lat="45.82727" lon="4.81274">
        <ele>413</ele>
        <time>2012-01-29T08:51:21Z</time>
      </trkpt>
      <trkpt lat="45.82734" lon="4.81278">
        <ele>413</ele>
        <time>2012-01-29T08:51:27Z</time>
      </trkpt>
      <trkpt lat="45.82743" lon="4.81277">
        <ele>413</ele>
        <time>2012-01-29T08:51:34Z</time>
      </trkpt>
      <trkpt lat="45.82746" lon="4.81277">
        <ele>413</ele>
        <time>2012-01-29T08:51:36Z</time>
      </trkpt>
      <trkpt lat="45.82754" lon="4.81278">
        <ele>413</ele>
        <time>2012-01-29T08:51:43Z</time>
      </trkpt>
      <trkpt lat="45.82755" lon="4.81278">
        <ele>413</ele>
        <time>2012-01-29T08:51:44Z</time>
      </trkpt>
      <trkpt lat="45.82761" lon="4.81279">
        <ele>413</ele>
        <time>2012-01-29T08:51:48Z</time>
      </trkpt>
      <trkpt lat="45.82763" lon="4.81279">
        <ele>413</ele>
        <time>2012-01-29T08:51:49Z</time>
      </trkpt>
      <trkpt lat="45.82773" lon="4.81282">
        <ele>413</ele>
        <time>2012-01-29T08:51:55Z</time>
      </trkpt>
      <trkpt lat="45.82781" lon="4.81284">
        <ele>413</ele>
        <time>2012-01-29T08:52:00Z</time>
      </trkpt>
      <trkpt lat="45.82786" lon="4.81284">
        <ele>413</ele>
        <time>2012-01-29T08:52:04Z</time>
      </trkpt>
      <trkpt lat="45.82789" lon="4.81282">
        <ele>413</ele>
        <time>2012-01-29T08:52:06Z</time>
      </trkpt>
      <trkpt lat="45.8279" lon="4.81277">
        <ele>413</ele>
        <time>2012-01-29T08:52:09Z</time>
      </trkpt>
      <trkpt lat="45.82792" lon="4.81275">
        <ele>413</ele>
        <time>2012-01-29T08:52:12Z</time>
      </trkpt>
      <trkpt lat="45.82792" lon="4.81277">
        <ele>413</ele>
        <time>2012-01-29T08:52:13Z</time>
      </trkpt>
      <trkpt lat="45.82791" lon="4.81279">
        <ele>413</ele>
        <time>2012-01-29T08:52:18Z</time>
      </trkpt>
      <trkpt lat="45.82792" lon="4.81278">
        <ele>413</ele>
        <time>2012-01-29T08:52:28Z</time>
      </trkpt>
      <trkpt lat="45.82795" lon="4.8127">
        <ele>413</ele>
        <time>2012-01-29T08:52:31Z</time>
      </trkpt>
      <trkpt lat="45.82801" lon="4.81253">
        <ele>413</ele>
        <time>2012-01-29T08:52:36Z</time>
      </trkpt>
      <trkpt lat="45.82802" lon="4.81249">
        <ele>411</ele>
        <time>2012-01-29T08:52:37Z</time>
      </trkpt>
      <trkpt lat="45.82807" lon="4.81227">
        <ele>411</ele>
        <time>2012-01-29T08:52:43Z</time>
      </trkpt>
      <trkpt lat="45.82808" lon="4.81223">
        <ele>411</ele>
        <time>2012-01-29T08:52:44Z</time>
      </trkpt>
      <trkpt lat="45.82813" lon="4.81205">
        <ele>411</ele>
        <time>2012-01-29T08:52:49Z</time>
      </trkpt>
      <trkpt lat="45.82814" lon="4.81201">
        <ele>411</ele>
        <time>2012-01-29T08:52:50Z</time>
      </trkpt>
      <trkpt lat="45.82819" lon="4.81187">
        <ele>410</ele>
        <time>2012-01-29T08:52:54Z</time>
      </trkpt>
      <trkpt lat="45.82823" lon="4.81176">
        <ele>410</ele>
        <time>2012-01-29T08:52:57Z</time>
      </trkpt>
      <trkpt lat="45.82826" lon="4.81169">
        <ele>410</ele>
        <time>2012-01-29T08:52:59Z</time>
      </trkpt>
      <trkpt lat="45.82832" lon="4.81152">
        <ele>408</ele>
        <time>2012-01-29T08:53:04Z</time>
      </trkpt>
      <trkpt lat="45.82834" lon="4.81149">
        <ele>409</ele>
        <time>2012-01-29T08:53:05Z</time>
      </trkpt>
      <trkpt lat="45.82846" lon="4.81134">
        <ele>408</ele>
        <time>2012-01-29T08:53:11Z</time>
      </trkpt>
      <trkpt lat="45.8286" lon="4.8112">
        <ele>408</ele>
        <time>2012-01-29T08:53:18Z</time>
      </trkpt>
      <trkpt lat="45.82862" lon="4.81118">
        <ele>407</ele>
        <time>2012-01-29T08:53:19Z</time>
      </trkpt>
      <trkpt lat="45.82872" lon="4.81107">
        <ele>407</ele>
        <time>2012-01-29T08:53:25Z</time>
      </trkpt>
      <trkpt lat="45.82873" lon="4.81105">
        <ele>407</ele>
        <time>2012-01-29T08:53:30Z</time>
      </trkpt>
      <trkpt lat="45.82877" lon="4.81101">
        <ele>408</ele>
        <time>2012-01-29T08:53:34Z</time>
      </trkpt>
      <trkpt lat="45.82879" lon="4.81098">
        <ele>408</ele>
        <time>2012-01-29T08:53:36Z</time>
      </trkpt>
      <trkpt lat="45.82889" lon="4.81088">
        <ele>408</ele>
        <time>2012-01-29T08:53:41Z</time>
      </trkpt>
      <trkpt lat="45.82893" lon="4.81084">
        <ele>408</ele>
        <time>2012-01-29T08:53:43Z</time>
      </trkpt>
      <trkpt lat="45.82904" lon="4.81074">
        <ele>408</ele>
        <time>2012-01-29T08:53:48Z</time>
      </trkpt>
      <trkpt lat="45.82909" lon="4.81068">
        <ele>408</ele>
        <time>2012-01-29T08:53:51Z</time>
      </trkpt>
      <trkpt lat="45.82915" lon="4.81062">
        <ele>407</ele>
        <time>2012-01-29T08:53:54Z</time>
      </trkpt>
      <trkpt lat="45.82925" lon="4.81051">
        <ele>409</ele>
        <time>2012-01-29T08:53:59Z</time>
      </trkpt>
      <trkpt lat="45.82929" lon="4.81047">
        <ele>409</ele>
        <time>2012-01-29T08:54:01Z</time>
      </trkpt>
      <trkpt lat="45.8294" lon="4.81033">
        <ele>410</ele>
        <time>2012-01-29T08:54:07Z</time>
      </trkpt>
      <trkpt lat="45.82953" lon="4.8102">
        <ele>410</ele>
        <time>2012-01-29T08:54:13Z</time>
      </trkpt>
      <trkpt lat="45.82955" lon="4.81018">
        <ele>410</ele>
        <time>2012-01-29T08:54:14Z</time>
      </trkpt>
      <trkpt lat="45.82965" lon="4.81006">
        <ele>411</ele>
        <time>2012-01-29T08:54:19Z</time>
      </trkpt>
      <trkpt lat="45.82971" lon="4.81001">
        <ele>411</ele>
        <time>2012-01-29T08:54:22Z</time>
      </trkpt>
      <trkpt lat="45.82981" lon="4.80989">
        <ele>413</ele>
        <time>2012-01-29T08:54:27Z</time>
      </trkpt>
      <trkpt lat="45.82987" lon="4.80983">
        <ele>413</ele>
        <time>2012-01-29T08:54:30Z</time>
      </trkpt>
      <trkpt lat="45.82991" lon="4.8098">
        <ele>413</ele>
        <time>2012-01-29T08:54:32Z</time>
      </trkpt>
      <trkpt lat="45.82999" lon="4.80971">
        <ele>413</ele>
        <time>2012-01-29T08:54:37Z</time>
      </trkpt>
      <trkpt lat="45.83003" lon="4.80968">
        <ele>414</ele>
        <time>2012-01-29T08:54:40Z</time>
      </trkpt>
      <trkpt lat="45.83008" lon="4.80965">
        <ele>414</ele>
        <time>2012-01-29T08:54:44Z</time>
      </trkpt>
      <trkpt lat="45.8301" lon="4.80963">
        <ele>414</ele>
        <time>2012-01-29T08:54:46Z</time>
      </trkpt>
      <trkpt lat="45.83012" lon="4.80965">
        <ele>414</ele>
        <time>2012-01-29T08:54:50Z</time>
      </trkpt>
      <trkpt lat="45.83013" lon="4.80966">
        <ele>414</ele>
        <time>2012-01-29T08:54:52Z</time>
      </trkpt>
      <trkpt lat="45.83015" lon="4.80967">
        <ele>414</ele>
        <time>2012-01-29T08:54:56Z</time>
      </trkpt>
      <trkpt lat="45.83015" lon="4.80968">
        <ele>414</ele>
        <time>2012-01-29T08:55:01Z</time>
      </trkpt>
      <trkpt lat="45.83016" lon="4.80967">
        <ele>414</ele>
        <time>2012-01-29T08:55:02Z</time>
      </trkpt>
      <trkpt lat="45.83015" lon="4.80966">
        <ele>414</ele>
        <time>2012-01-29T08:55:05Z</time>
      </trkpt>
      <trkpt lat="45.83014" lon="4.80965">
        <ele>414</ele>
        <time>2012-01-29T08:55:06Z</time>
      </trkpt>
      <trkpt lat="45.83014" lon="4.80958">
        <ele>414</ele>
        <time>2012-01-29T08:55:11Z</time>
      </trkpt>
      <trkpt lat="45.8302" lon="4.8095">
        <ele>414</ele>
        <time>2012-01-29T08:55:17Z</time>
      </trkpt>
      <trkpt lat="45.83023" lon="4.80946">
        <ele>414</ele>
        <time>2012-01-29T08:55:20Z</time>
      </trkpt>
      <trkpt lat="45.8303" lon="4.80939">
        <ele>414</ele>
        <time>2012-01-29T08:55:27Z</time>
      </trkpt>
      <trkpt lat="45.8303" lon="4.80938">
        <ele>414</ele>
        <time>2012-01-29T08:55:28Z</time>
      </trkpt>
      <trkpt lat="45.83032" lon="4.80932">
        <ele>414</ele>
        <time>2012-01-29T08:55:32Z</time>
      </trkpt>
      <trkpt lat="45.8303" lon="4.80939">
        <ele>414</ele>
        <time>2012-01-29T08:55:35Z</time>
      </trkpt>
      <trkpt lat="45.83029" lon="4.80948">
        <ele>414</ele>
        <time>2012-01-29T08:55:39Z</time>
      </trkpt>
      <trkpt lat="45.83028" lon="4.80952">
        <ele>414</ele>
        <time>2012-01-29T08:55:44Z</time>
      </trkpt>
      <trkpt lat="45.83028" lon="4.80949">
        <ele>414</ele>
        <time>2012-01-29T08:55:48Z</time>
      </trkpt>
      <trkpt lat="45.83027" lon="4.80945">
        <ele>414</ele>
        <time>2012-01-29T08:55:53Z</time>
      </trkpt>
      <trkpt lat="45.83028" lon="4.8094">
        <ele>414</ele>
        <time>2012-01-29T08:55:55Z</time>
      </trkpt>
      <trkpt lat="45.8303" lon="4.80938">
        <ele>414</ele>
        <time>2012-01-29T08:55:57Z</time>
      </trkpt>
      <trkpt lat="45.83034" lon="4.80934">
        <ele>414</ele>
        <time>2012-01-29T08:56:01Z</time>
      </trkpt>
      <trkpt lat="45.83043" lon="4.80924">
        <ele>415</ele>
        <time>2012-01-29T08:56:06Z</time>
      </trkpt>
      <trkpt lat="45.83046" lon="4.80922">
        <ele>415</ele>
        <time>2012-01-29T08:56:07Z</time>
      </trkpt>
      <trkpt lat="45.83058" lon="4.80909">
        <ele>418</ele>
        <time>2012-01-29T08:56:12Z</time>
      </trkpt>
      <trkpt lat="45.8306" lon="4.80907">
        <ele>418</ele>
        <time>2012-01-29T08:56:13Z</time>
      </trkpt>
      <trkpt lat="45.83072" lon="4.80901">
        <ele>419</ele>
        <time>2012-01-29T08:56:18Z</time>
      </trkpt>
      <trkpt lat="45.83075" lon="4.80903">
        <ele>419</ele>
        <time>2012-01-29T08:56:20Z</time>
      </trkpt>
      <trkpt lat="45.83077" lon="4.80904">
        <ele>419</ele>
        <time>2012-01-29T08:56:22Z</time>
      </trkpt>
      <trkpt lat="45.83082" lon="4.80905">
        <ele>419</ele>
        <time>2012-01-29T08:56:25Z</time>
      </trkpt>
      <trkpt lat="45.83082" lon="4.80906">
        <ele>419</ele>
        <time>2012-01-29T08:56:26Z</time>
      </trkpt>
      <trkpt lat="45.83083" lon="4.80907">
        <ele>419</ele>
        <time>2012-01-29T08:56:27Z</time>
      </trkpt>
      <trkpt lat="45.83084" lon="4.80912">
        <ele>419</ele>
        <time>2012-01-29T08:56:31Z</time>
      </trkpt>
      <trkpt lat="45.83084" lon="4.80914">
        <ele>420</ele>
        <time>2012-01-29T08:56:33Z</time>
      </trkpt>
      <trkpt lat="45.83083" lon="4.80916">
        <ele>420</ele>
        <time>2012-01-29T08:56:35Z</time>
      </trkpt>
      <trkpt lat="45.83082" lon="4.80918">
        <ele>419</ele>
        <time>2012-01-29T08:56:37Z</time>
      </trkpt>
      <trkpt lat="45.8308" lon="4.8092">
        <ele>419</ele>
        <time>2012-01-29T08:56:39Z</time>
      </trkpt>
      <trkpt lat="45.83081" lon="4.80922">
        <ele>418</ele>
        <time>2012-01-29T08:56:41Z</time>
      </trkpt>
      <trkpt lat="45.83084" lon="4.80928">
        <ele>415</ele>
        <time>2012-01-29T08:56:45Z</time>
      </trkpt>
      <trkpt lat="45.83082" lon="4.80932">
        <ele>417</ele>
        <time>2012-01-29T08:56:51Z</time>
      </trkpt>
      <trkpt lat="45.83079" lon="4.80937">
        <ele>416</ele>
        <time>2012-01-29T08:56:58Z</time>
      </trkpt>
      <trkpt lat="45.83075" lon="4.80937">
        <ele>416</ele>
        <time>2012-01-29T08:57:11Z</time>
      </trkpt>
      <trkpt lat="45.83073" lon="4.80938">
        <ele>415</ele>
        <time>2012-01-29T08:57:53Z</time>
      </trkpt>
      <trkpt lat="45.83071" lon="4.8093">
        <ele>416</ele>
        <time>2012-01-29T08:58:21Z</time>
      </trkpt>
      <trkpt lat="45.83074" lon="4.80929">
        <ele>417</ele>
        <time>2012-01-29T08:58:26Z</time>
      </trkpt>
      <trkpt lat="45.83075" lon="4.80926">
        <ele>417</ele>
        <time>2012-01-29T08:58:29Z</time>
      </trkpt>
      <trkpt lat="45.83076" lon="4.80921">
        <ele>418</ele>
        <time>2012-01-29T08:58:32Z</time>
      </trkpt>
      <trkpt lat="45.83076" lon="4.80918">
        <ele>418</ele>
        <time>2012-01-29T08:58:34Z</time>
      </trkpt>
      <trkpt lat="45.83075" lon="4.80915">
        <ele>419</ele>
        <time>2012-01-29T08:58:37Z</time>
      </trkpt>
      <trkpt lat="45.83077" lon="4.80911">
        <ele>419</ele>
        <time>2012-01-29T08:58:40Z</time>
      </trkpt>
      <trkpt lat="45.83078" lon="4.80909">
        <ele>419</ele>
        <time>2012-01-29T08:58:42Z</time>
      </trkpt>
      <trkpt lat="45.83077" lon="4.80908">
        <ele>419</ele>
        <time>2012-01-29T08:58:47Z</time>
      </trkpt>
      <trkpt lat="45.83077" lon="4.80907">
        <ele>419</ele>
        <time>2012-01-29T08:58:53Z</time>
      </trkpt>
      <trkpt lat="45.83076" lon="4.80905">
        <ele>419</ele>
        <time>2012-01-29T08:58:58Z</time>
      </trkpt>
      <trkpt lat="45.83075" lon="4.80904">
        <ele>419</ele>
        <time>2012-01-29T08:58:59Z</time>
      </trkpt>
      <trkpt lat="45.83072" lon="4.809">
        <ele>419</ele>
        <time>2012-01-29T08:59:01Z</time>
      </trkpt>
      <trkpt lat="45.83072" lon="4.80899">
        <ele>419</ele>
        <time>2012-01-29T08:59:02Z</time>
      </trkpt>
      <trkpt lat="45.83075" lon="4.80895">
        <ele>419</ele>
        <time>2012-01-29T08:59:04Z</time>
      </trkpt>
      <trkpt lat="45.83078" lon="4.8089">
        <ele>419</ele>
        <time>2012-01-29T08:59:08Z</time>
      </trkpt>
      <trkpt lat="45.83081" lon="4.80886">
        <ele>419</ele>
        <time>2012-01-29T08:59:14Z</time>
      </trkpt>
      <trkpt lat="45.83082" lon="4.80885">
        <ele>419</ele>
        <time>2012-01-29T08:59:15Z</time>
      </trkpt>
      <trkpt lat="45.8309" lon="4.80878">
        <ele>418</ele>
        <time>2012-01-29T08:59:23Z</time>
      </trkpt>
      <trkpt lat="45.83096" lon="4.80868">
        <ele>418</ele>
        <time>2012-01-29T08:59:31Z</time>
      </trkpt>
      <trkpt lat="45.83097" lon="4.80867">
        <ele>418</ele>
        <time>2012-01-29T08:59:32Z</time>
      </trkpt>
      <trkpt lat="45.83108" lon="4.80857">
        <ele>418</ele>
        <time>2012-01-29T08:59:38Z</time>
      </trkpt>
      <trkpt lat="45.83111" lon="4.80853">
        <ele>418</ele>
        <time>2012-01-29T08:59:40Z</time>
      </trkpt>
      <trkpt lat="45.8312" lon="4.80844">
        <ele>418</ele>
        <time>2012-01-29T08:59:45Z</time>
      </trkpt>
      <trkpt lat="45.83126" lon="4.80835">
        <ele>418</ele>
        <time>2012-01-29T08:59:49Z</time>
      </trkpt>
      <trkpt lat="45.83133" lon="4.80824">
        <ele>421</ele>
        <time>2012-01-29T08:59:54Z</time>
      </trkpt>
      <trkpt lat="45.83139" lon="4.80813">
        <ele>421</ele>
        <time>2012-01-29T08:59:58Z</time>
      </trkpt>
      <trkpt lat="45.8314" lon="4.8081">
        <ele>421</ele>
        <time>2012-01-29T08:59:59Z</time>
      </trkpt>
      <trkpt lat="45.83146" lon="4.80791">
        <ele>421</ele>
        <time>2012-01-29T09:00:05Z</time>
      </trkpt>
      <trkpt lat="45.83147" lon="4.80788">
        <ele>421</ele>
        <time>2012-01-29T09:00:06Z</time>
      </trkpt>
      <trkpt lat="45.8315" lon="4.80772">
        <ele>422</ele>
        <time>2012-01-29T09:00:11Z</time>
      </trkpt>
      <trkpt lat="45.83152" lon="4.80762">
        <ele>422</ele>
        <time>2012-01-29T09:00:14Z</time>
      </trkpt>
      <trkpt lat="45.83153" lon="4.80753">
        <ele>422</ele>
        <time>2012-01-29T09:00:17Z</time>
      </trkpt>
      <trkpt lat="45.83155" lon="4.80736">
        <ele>423</ele>
        <time>2012-01-29T09:00:22Z</time>
      </trkpt>
      <trkpt lat="45.83156" lon="4.80729">
        <ele>424</ele>
        <time>2012-01-29T09:00:24Z</time>
      </trkpt>
      <trkpt lat="45.83154" lon="4.8071">
        <ele>424</ele>
        <time>2012-01-29T09:00:30Z</time>
      </trkpt>
      <trkpt lat="45.83153" lon="4.80701">
        <ele>425</ele>
        <time>2012-01-29T09:00:33Z</time>
      </trkpt>
      <trkpt lat="45.8315" lon="4.80684">
        <ele>425</ele>
        <time>2012-01-29T09:00:38Z</time>
      </trkpt>
      <trkpt lat="45.8315" lon="4.80665">
        <ele>427</ele>
        <time>2012-01-29T09:00:44Z</time>
      </trkpt>
      <trkpt lat="45.83153" lon="4.8066">
        <ele>427</ele>
        <time>2012-01-29T09:00:46Z</time>
      </trkpt>
      <trkpt lat="45.83157" lon="4.80652">
        <ele>427</ele>
        <time>2012-01-29T09:00:49Z</time>
      </trkpt>
      <trkpt lat="45.83165" lon="4.80637">
        <ele>428</ele>
        <time>2012-01-29T09:00:55Z</time>
      </trkpt>
      <trkpt lat="45.83166" lon="4.80634">
        <ele>428</ele>
        <time>2012-01-29T09:00:56Z</time>
      </trkpt>
      <trkpt lat="45.83176" lon="4.80615">
        <ele>426</ele>
        <time>2012-01-29T09:01:03Z</time>
      </trkpt>
      <trkpt lat="45.83187" lon="4.80598">
        <ele>427</ele>
        <time>2012-01-29T09:01:10Z</time>
      </trkpt>
      <trkpt lat="45.8319" lon="4.80595">
        <ele>427</ele>
        <time>2012-01-29T09:01:12Z</time>
      </trkpt>
      <trkpt lat="45.83198" lon="4.8059">
        <ele>426</ele>
        <time>2012-01-29T09:01:16Z</time>
      </trkpt>
      <trkpt lat="45.83199" lon="4.80589">
        <ele>426</ele>
        <time>2012-01-29T09:01:20Z</time>
      </trkpt>
      <trkpt lat="45.832" lon="4.80588">
        <ele>426</ele>
        <time>2012-01-29T09:01:24Z</time>
      </trkpt>
      <trkpt lat="45.83205" lon="4.80584">
        <ele>426</ele>
        <time>2012-01-29T09:01:27Z</time>
      </trkpt>
      <trkpt lat="45.83207" lon="4.80583">
        <ele>431</ele>
        <time>2012-01-29T09:01:28Z</time>
      </trkpt>
      <trkpt lat="45.83216" lon="4.80578">
        <ele>430</ele>
        <time>2012-01-29T09:01:32Z</time>
      </trkpt>
      <trkpt lat="45.83219" lon="4.80578">
        <ele>430</ele>
        <time>2012-01-29T09:01:33Z</time>
      </trkpt>
      <trkpt lat="45.83226" lon="4.80575">
        <ele>430</ele>
        <time>2012-01-29T09:01:36Z</time>
      </trkpt>
      <trkpt lat="45.83232" lon="4.80571">
        <ele>429</ele>
        <time>2012-01-29T09:01:39Z</time>
      </trkpt>
      <trkpt lat="45.83244" lon="4.80567">
        <ele>429</ele>
        <time>2012-01-29T09:01:44Z</time>
      </trkpt>
      <trkpt lat="45.83248" lon="4.80565">
        <ele>429</ele>
        <time>2012-01-29T09:01:46Z</time>
      </trkpt>
      <trkpt lat="45.83252" lon="4.80563">
        <ele>429</ele>
        <time>2012-01-29T09:01:48Z</time>
      </trkpt>
      <trkpt lat="45.83262" lon="4.80556">
        <ele>430</ele>
        <time>2012-01-29T09:01:53Z</time>
      </trkpt>
      <trkpt lat="45.83264" lon="4.80555">
        <ele>431</ele>
        <time>2012-01-29T09:01:54Z</time>
      </trkpt>
      <trkpt lat="45.83272" lon="4.80555">
        <ele>431</ele>
        <time>2012-01-29T09:01:57Z</time>
      </trkpt>
      <trkpt lat="45.83282" lon="4.80556">
        <ele>431</ele>
        <time>2012-01-29T09:02:01Z</time>
      </trkpt>
      <trkpt lat="45.83284" lon="4.80556">
        <ele>431</ele>
        <time>2012-01-29T09:02:02Z</time>
      </trkpt>
      <trkpt lat="45.83297" lon="4.80557">
        <ele>432</ele>
        <time>2012-01-29T09:02:08Z</time>
      </trkpt>
      <trkpt lat="45.83301" lon="4.80558">
        <ele>432</ele>
        <time>2012-01-29T09:02:10Z</time>
      </trkpt>
      <trkpt lat="45.83308" lon="4.80561">
        <ele>432</ele>
        <time>2012-01-29T09:02:14Z</time>
      </trkpt>
      <trkpt lat="45.8332" lon="4.80567">
        <ele>431</ele>
        <time>2012-01-29T09:02:20Z</time>
      </trkpt>
      <trkpt lat="45.83334" lon="4.80572">
        <ele>434</ele>
        <time>2012-01-29T09:02:27Z</time>
      </trkpt>
      <trkpt lat="45.83339" lon="4.80572">
        <ele>434</ele>
        <time>2012-01-29T09:02:29Z</time>
      </trkpt>
      <trkpt lat="45.83351" lon="4.8057">
        <ele>436</ele>
        <time>2012-01-29T09:02:34Z</time>
      </trkpt>
      <trkpt lat="45.83359" lon="4.80568">
        <ele>437</ele>
        <time>2012-01-29T09:02:37Z</time>
      </trkpt>
      <trkpt lat="45.83367" lon="4.80569">
        <ele>438</ele>
        <time>2012-01-29T09:02:41Z</time>
      </trkpt>
      <trkpt lat="45.83373" lon="4.80579">
        <ele>439</ele>
        <time>2012-01-29T09:02:46Z</time>
      </trkpt>
      <trkpt lat="45.83377" lon="4.80599">
        <ele>435</ele>
        <time>2012-01-29T09:02:52Z</time>
      </trkpt>
      <trkpt lat="45.83378" lon="4.80606">
        <ele>435</ele>
        <time>2012-01-29T09:02:54Z</time>
      </trkpt>
      <trkpt lat="45.83381" lon="4.80624">
        <ele>435</ele>
        <time>2012-01-29T09:03:00Z</time>
      </trkpt>
      <trkpt lat="45.83382" lon="4.80634">
        <ele>435</ele>
        <time>2012-01-29T09:03:03Z</time>
      </trkpt>
      <trkpt lat="45.83384" lon="4.80646">
        <ele>435</ele>
        <time>2012-01-29T09:03:07Z</time>
      </trkpt>
      <trkpt lat="45.83389" lon="4.80661">
        <ele>435</ele>
        <time>2012-01-29T09:03:13Z</time>
      </trkpt>
      <trkpt lat="45.83396" lon="4.8068">
        <ele>433</ele>
        <time>2012-01-29T09:03:19Z</time>
      </trkpt>
      <trkpt lat="45.83398" lon="4.80684">
        <ele>433</ele>
        <time>2012-01-29T09:03:20Z</time>
      </trkpt>
      <trkpt lat="45.83407" lon="4.80703">
        <ele>431</ele>
        <time>2012-01-29T09:03:26Z</time>
      </trkpt>
      <trkpt lat="45.83408" lon="4.80706">
        <ele>431</ele>
        <time>2012-01-29T09:03:27Z</time>
      </trkpt>
      <trkpt lat="45.83415" lon="4.80719">
        <ele>430</ele>
        <time>2012-01-29T09:03:32Z</time>
      </trkpt>
      <trkpt lat="45.83417" lon="4.80725">
        <ele>431</ele>
        <time>2012-01-29T09:03:36Z</time>
      </trkpt>
      <trkpt lat="45.83417" lon="4.80725">
        <ele>431</ele>
        <time>2012-01-29T09:03:37Z</time>
      </trkpt>
      <trkpt lat="45.83417" lon="4.80726">
        <ele>431</ele>
        <time>2012-01-29T09:03:43Z</time>
      </trkpt>
      <trkpt lat="45.83416" lon="4.80724">
        <ele>430</ele>
        <time>2012-01-29T09:03:49Z</time>
      </trkpt>
      <trkpt lat="45.83416" lon="4.80725">
        <ele>430</ele>
        <time>2012-01-29T09:03:59Z</time>
      </trkpt>
      <trkpt lat="45.83415" lon="4.80727">
        <ele>430</ele>
        <time>2012-01-29T09:04:03Z</time>
      </trkpt>
      <trkpt lat="45.83412" lon="4.8073">
        <ele>429</ele>
        <time>2012-01-29T09:04:09Z</time>
      </trkpt>
      <trkpt lat="45.83406" lon="4.80736">
        <ele>429</ele>
        <time>2012-01-29T09:04:15Z</time>
      </trkpt>
      <trkpt lat="45.83401" lon="4.8074">
        <ele>429</ele>
        <time>2012-01-29T09:04:19Z</time>
      </trkpt>
      <trkpt lat="45.83398" lon="4.80744">
        <ele>429</ele>
        <time>2012-01-29T09:04:22Z</time>
      </trkpt>
      <trkpt lat="45.83396" lon="4.80747">
        <ele>429</ele>
        <time>2012-01-29T09:04:24Z</time>
      </trkpt>
      <trkpt lat="45.83394" lon="4.80753">
        <ele>425</ele>
        <time>2012-01-29T09:04:27Z</time>
      </trkpt>
      <trkpt lat="45.83395" lon="4.80757">
        <ele>425</ele>
        <time>2012-01-29T09:04:29Z</time>
      </trkpt>
      <trkpt lat="45.83396" lon="4.8076">
        <ele>425</ele>
        <time>2012-01-29T09:04:31Z</time>
      </trkpt>
      <trkpt lat="45.83397" lon="4.80761">
        <ele>425</ele>
        <time>2012-01-29T09:04:32Z</time>
      </trkpt>
      <trkpt lat="45.83401" lon="4.80764">
        <ele>425</ele>
        <time>2012-01-29T09:04:37Z</time>
      </trkpt>
      <trkpt lat="45.83402" lon="4.80767">
        <ele>425</ele>
        <time>2012-01-29T09:04:42Z</time>
      </trkpt>
      <trkpt lat="45.834" lon="4.80764">
        <ele>425</ele>
        <time>2012-01-29T09:05:01Z</time>
      </trkpt>
      <trkpt lat="45.83398" lon="4.80762">
        <ele>425</ele>
        <time>2012-01-29T09:05:02Z</time>
      </trkpt>
      <trkpt lat="45.83394" lon="4.80757">
        <ele>425</ele>
        <time>2012-01-29T09:05:04Z</time>
      </trkpt>
      <trkpt lat="45.83393" lon="4.80756">
        <ele>425</ele>
        <time>2012-01-29T09:05:05Z</time>
      </trkpt>
      <trkpt lat="45.83392" lon="4.80755">
        <ele>425</ele>
        <time>2012-01-29T09:05:06Z</time>
      </trkpt>
      <trkpt lat="45.83385" lon="4.80755">
        <ele>424</ele>
        <time>2012-01-29T09:05:10Z</time>
      </trkpt>
      <trkpt lat="45.83384" lon="4.80755">
        <ele>424</ele>
        <time>2012-01-29T09:05:12Z</time>
      </trkpt>
      <trkpt lat="45.8338" lon="4.80761">
        <ele>424</ele>
        <time>2012-01-29T09:05:17Z</time>
      </trkpt>
      <trkpt lat="45.83378" lon="4.80762">
        <ele>424</ele>
        <time>2012-01-29T09:05:18Z</time>
      </trkpt>
      <trkpt lat="45.83373" lon="4.80768">
        <ele>424</ele>
        <time>2012-01-29T09:05:22Z</time>
      </trkpt>
      <trkpt lat="45.83372" lon="4.80769">
        <ele>424</ele>
        <time>2012-01-29T09:05:23Z</time>
      </trkpt>
      <trkpt lat="45.83367" lon="4.80774">
        <ele>423</ele>
        <time>2012-01-29T09:05:27Z</time>
      </trkpt>
      <trkpt lat="45.83366" lon="4.80775">
        <ele>423</ele>
        <time>2012-01-29T09:05:28Z</time>
      </trkpt>
      <trkpt lat="45.83364" lon="4.80777">
        <ele>423</ele>
        <time>2012-01-29T09:05:35Z</time>
      </trkpt>
      <trkpt lat="45.83363" lon="4.80778">
        <ele>423</ele>
        <time>2012-01-29T09:05:38Z</time>
      </trkpt>
      <trkpt lat="45.8336" lon="4.80781">
        <ele>423</ele>
        <time>2012-01-29T09:05:42Z</time>
      </trkpt>
      <trkpt lat="45.83358" lon="4.80784">
        <ele>423</ele>
        <time>2012-01-29T09:05:47Z</time>
      </trkpt>
      <trkpt lat="45.83355" lon="4.80786">
        <ele>423</ele>
        <time>2012-01-29T09:05:51Z</time>
      </trkpt>
      <trkpt lat="45.83357" lon="4.80784">
        <ele>423</ele>
        <time>2012-01-29T09:05:55Z</time>
      </trkpt>
      <trkpt lat="45.8336" lon="4.80782">
        <ele>423</ele>
        <time>2012-01-29T09:05:59Z</time>
      </trkpt>
      <trkpt lat="45.83363" lon="4.8078">
        <ele>423</ele>
        <time>2012-01-29T09:06:01Z</time>
      </trkpt>
      <trkpt lat="45.83367" lon="4.80777">
        <ele>423</ele>
        <time>2012-01-29T09:06:03Z</time>
      </trkpt>
      <trkpt lat="45.83368" lon="4.80775">
        <ele>423</ele>
        <time>2012-01-29T09:06:04Z</time>
      </trkpt>
      <trkpt lat="45.83373" lon="4.80772">
        <ele>424</ele>
        <time>2012-01-29T09:06:07Z</time>
      </trkpt>
      <trkpt lat="45.83375" lon="4.8077">
        <ele>424</ele>
        <time>2012-01-29T09:06:09Z</time>
      </trkpt>
      <trkpt lat="45.83379" lon="4.80766">
        <ele>424</ele>
        <time>2012-01-29T09:06:13Z</time>
      </trkpt>
      <trkpt lat="45.8338" lon="4.80766">
        <ele>424</ele>
        <time>2012-01-29T09:06:14Z</time>
      </trkpt>
      <trkpt lat="45.83381" lon="4.80765">
        <ele>424</ele>
        <time>2012-01-29T09:06:16Z</time>
      </trkpt>
      <trkpt lat="45.83385" lon="4.80761">
        <ele>424</ele>
        <time>2012-01-29T09:06:22Z</time>
      </trkpt>
      <trkpt lat="45.83386" lon="4.8076">
        <ele>424</ele>
        <time>2012-01-29T09:06:23Z</time>
      </trkpt>
      <trkpt lat="45.83388" lon="4.80759">
        <ele>424</ele>
        <time>2012-01-29T09:06:28Z</time>
      </trkpt>
      <trkpt lat="45.83392" lon="4.80759">
        <ele>425</ele>
        <time>2012-01-29T09:06:31Z</time>
      </trkpt>
      <trkpt lat="45.83392" lon="4.80762">
        <ele>425</ele>
        <time>2012-01-29T09:06:33Z</time>
      </trkpt>
      <trkpt lat="45.83394" lon="4.80764">
        <ele>424</ele>
        <time>2012-01-29T09:06:35Z</time>
      </trkpt>
      <trkpt lat="45.83394" lon="4.80765">
        <ele>424</ele>
        <time>2012-01-29T09:06:36Z</time>
      </trkpt>
      <trkpt lat="45.83399" lon="4.80767">
        <ele>425</ele>
        <time>2012-01-29T09:06:40Z</time>
      </trkpt>
      <trkpt lat="45.83399" lon="4.80768">
        <ele>424</ele>
        <time>2012-01-29T09:06:41Z</time>
      </trkpt>
      <trkpt lat="45.834" lon="4.80771">
        <ele>424</ele>
        <time>2012-01-29T09:06:45Z</time>
      </trkpt>
      <trkpt lat="45.834" lon="4.80774">
        <ele>424</ele>
        <time>2012-01-29T09:06:47Z</time>
      </trkpt>
      <trkpt lat="45.83398" lon="4.80778">
        <ele>424</ele>
        <time>2012-01-29T09:06:51Z</time>
      </trkpt>
      <trkpt lat="45.83398" lon="4.80784">
        <ele>423</ele>
        <time>2012-01-29T09:06:55Z</time>
      </trkpt>
      <trkpt lat="45.83397" lon="4.80788">
        <ele>423</ele>
        <time>2012-01-29T09:06:58Z</time>
      </trkpt>
      <trkpt lat="45.83397" lon="4.80789">
        <ele>423</ele>
        <time>2012-01-29T09:06:59Z</time>
      </trkpt>
      <trkpt lat="45.83396" lon="4.80798">
        <ele>422</ele>
        <time>2012-01-29T09:07:06Z</time>
      </trkpt>
      <trkpt lat="45.83396" lon="4.80799">
        <ele>422</ele>
        <time>2012-01-29T09:07:07Z</time>
      </trkpt>
      <trkpt lat="45.83394" lon="4.80804">
        <ele>422</ele>
        <time>2012-01-29T09:07:12Z</time>
      </trkpt>
      <trkpt lat="45.83393" lon="4.80805">
        <ele>422</ele>
        <time>2012-01-29T09:07:14Z</time>
      </trkpt>
      <trkpt lat="45.83392" lon="4.80806">
        <ele>422</ele>
        <time>2012-01-29T09:07:17Z</time>
      </trkpt>
      <trkpt lat="45.83391" lon="4.80809">
        <ele>422</ele>
        <time>2012-01-29T09:07:21Z</time>
      </trkpt>
      <trkpt lat="45.83391" lon="4.8081">
        <ele>422</ele>
        <time>2012-01-29T09:07:22Z</time>
      </trkpt>
      <trkpt lat="45.83389" lon="4.80814">
        <ele>421</ele>
        <time>2012-01-29T09:07:27Z</time>
      </trkpt>
      <trkpt lat="45.83389" lon="4.80819">
        <ele>421</ele>
        <time>2012-01-29T09:07:32Z</time>
      </trkpt>
      <trkpt lat="45.83387" lon="4.80819">
        <ele>421</ele>
        <time>2012-01-29T09:07:40Z</time>
      </trkpt>
      <trkpt lat="45.83385" lon="4.80819">
        <ele>421</ele>
        <time>2012-01-29T09:07:42Z</time>
      </trkpt>
      <trkpt lat="45.83384" lon="4.80819">
        <ele>421</ele>
        <time>2012-01-29T09:07:45Z</time>
      </trkpt>
      <trkpt lat="45.83384" lon="4.80822">
        <ele>421</ele>
        <time>2012-01-29T09:07:59Z</time>
      </trkpt>
      <trkpt lat="45.83386" lon="4.80824">
        <ele>421</ele>
        <time>2012-01-29T09:08:04Z</time>
      </trkpt>
      <trkpt lat="45.83386" lon="4.80825">
        <ele>421</ele>
        <time>2012-01-29T09:08:05Z</time>
      </trkpt>
      <trkpt lat="45.83385" lon="4.80827">
        <ele>421</ele>
        <time>2012-01-29T09:08:13Z</time>
      </trkpt>
      <trkpt lat="45.83386" lon="4.8083">
        <ele>421</ele>
        <time>2012-01-29T09:08:19Z</time>
      </trkpt>
      <trkpt lat="45.83386" lon="4.80831">
        <ele>421</ele>
        <time>2012-01-29T09:08:20Z</time>
      </trkpt>
      <trkpt lat="45.83385" lon="4.80833">
        <ele>421</ele>
        <time>2012-01-29T09:08:24Z</time>
      </trkpt>
      <trkpt lat="45.83386" lon="4.80835">
        <ele>415</ele>
        <time>2012-01-29T09:08:26Z</time>
      </trkpt>
      <trkpt lat="45.83388" lon="4.80838">
        <ele>415</ele>
        <time>2012-01-29T09:08:30Z</time>
      </trkpt>
      <trkpt lat="45.83388" lon="4.80842">
        <ele>415</ele>
        <time>2012-01-29T09:08:36Z</time>
      </trkpt>
      <trkpt lat="45.83388" lon="4.80846">
        <ele>415</ele>
        <time>2012-01-29T09:08:41Z</time>
      </trkpt>
      <trkpt lat="45.83389" lon="4.80849">
        <ele>415</ele>
        <time>2012-01-29T09:08:49Z</time>
      </trkpt>
      <trkpt lat="45.83389" lon="4.8085">
        <ele>415</ele>
        <time>2012-01-29T09:08:52Z</time>
      </trkpt>
      <trkpt lat="45.8339" lon="4.80852">
        <ele>414</ele>
        <time>2012-01-29T09:08:57Z</time>
      </trkpt>
      <trkpt lat="45.83392" lon="4.80863">
        <ele>414</ele>
        <time>2012-01-29T09:09:10Z</time>
      </trkpt>
      <trkpt lat="45.83389" lon="4.80868">
        <ele>413</ele>
        <time>2012-01-29T09:09:19Z</time>
      </trkpt>
      <trkpt lat="45.8339" lon="4.8087">
        <ele>413</ele>
        <time>2012-01-29T09:09:23Z</time>
      </trkpt>
      <trkpt lat="45.83392" lon="4.80873">
        <ele>413</ele>
        <time>2012-01-29T09:09:28Z</time>
      </trkpt>
      <trkpt lat="45.83392" lon="4.80873">
        <ele>413</ele>
        <time>2012-01-29T09:09:29Z</time>
      </trkpt>
      <trkpt lat="45.83394" lon="4.80874">
        <ele>413</ele>
        <time>2012-01-29T09:09:40Z</time>
      </trkpt>
      <trkpt lat="45.83395" lon="4.80872">
        <ele>413</ele>
        <time>2012-01-29T09:09:45Z</time>
      </trkpt>
      <trkpt lat="45.83397" lon="4.80872">
        <ele>413</ele>
        <time>2012-01-29T09:09:47Z</time>
      </trkpt>
      <trkpt lat="45.83397" lon="4.80872">
        <ele>413</ele>
        <time>2012-01-29T09:09:49Z</time>
      </trkpt>
      <trkpt lat="45.83398" lon="4.80874">
        <ele>413</ele>
        <time>2012-01-29T09:09:53Z</time>
      </trkpt>
      <trkpt lat="45.83401" lon="4.80875">
        <ele>413</ele>
        <time>2012-01-29T09:10:00Z</time>
      </trkpt>
      <trkpt lat="45.83404" lon="4.80877">
        <ele>412</ele>
        <time>2012-01-29T09:10:05Z</time>
      </trkpt>
      <trkpt lat="45.83406" lon="4.80879">
        <ele>412</ele>
        <time>2012-01-29T09:10:10Z</time>
      </trkpt>
      <trkpt lat="45.83407" lon="4.80882">
        <ele>412</ele>
        <time>2012-01-29T09:10:13Z</time>
      </trkpt>
      <trkpt lat="45.83407" lon="4.80884">
        <ele>412</ele>
        <time>2012-01-29T09:10:15Z</time>
      </trkpt>
      <trkpt lat="45.83406" lon="4.8089">
        <ele>411</ele>
        <time>2012-01-29T09:10:20Z</time>
      </trkpt>
      <trkpt lat="45.83405" lon="4.80891">
        <ele>411</ele>
        <time>2012-01-29T09:10:27Z</time>
      </trkpt>
      <trkpt lat="45.83406" lon="4.80896">
        <ele>410</ele>
        <time>2012-01-29T09:10:38Z</time>
      </trkpt>
      <trkpt lat="45.83406" lon="4.80901">
        <ele>409</ele>
        <time>2012-01-29T09:10:44Z</time>
      </trkpt>
      <trkpt lat="45.83405" lon="4.80904">
        <ele>409</ele>
        <time>2012-01-29T09:10:46Z</time>
      </trkpt>
      <trkpt lat="45.83405" lon="4.80906">
        <ele>409</ele>
        <time>2012-01-29T09:10:49Z</time>
      </trkpt>
      <trkpt lat="45.83404" lon="4.80906">
        <ele>409</ele>
        <time>2012-01-29T09:10:50Z</time>
      </trkpt>
      <trkpt lat="45.83402" lon="4.80907">
        <ele>409</ele>
        <time>2012-01-29T09:11:00Z</time>
      </trkpt>
      <trkpt lat="45.83406" lon="4.80906">
        <ele>409</ele>
        <time>2012-01-29T09:11:10Z</time>
      </trkpt>
      <trkpt lat="45.83407" lon="4.80904">
        <ele>409</ele>
        <time>2012-01-29T09:11:16Z</time>
      </trkpt>
      <trkpt lat="45.8341" lon="4.80909">
        <ele>408</ele>
        <time>2012-01-29T09:11:43Z</time>
      </trkpt>
      <trkpt lat="45.83411" lon="4.80915">
        <ele>407</ele>
        <time>2012-01-29T09:11:49Z</time>
      </trkpt>
      <trkpt lat="45.83411" lon="4.80918">
        <ele>404</ele>
        <time>2012-01-29T09:11:52Z</time>
      </trkpt>
      <trkpt lat="45.83411" lon="4.80919">
        <ele>404</ele>
        <time>2012-01-29T09:11:53Z</time>
      </trkpt>
      <trkpt lat="45.83414" lon="4.80923">
        <ele>403</ele>
        <time>2012-01-29T09:11:57Z</time>
      </trkpt>
      <trkpt lat="45.83414" lon="4.80924">
        <ele>403</ele>
        <time>2012-01-29T09:11:58Z</time>
      </trkpt>
      <trkpt lat="45.83414" lon="4.80926">
        <ele>403</ele>
        <time>2012-01-29T09:12:00Z</time>
      </trkpt>
      <trkpt lat="45.83415" lon="4.80927">
        <ele>402</ele>
        <time>2012-01-29T09:12:02Z</time>
      </trkpt>
      <trkpt lat="45.83415" lon="4.80928">
        <ele>402</ele>
        <time>2012-01-29T09:12:04Z</time>
      </trkpt>
      <trkpt lat="45.83418" lon="4.80941">
        <ele>401</ele>
        <time>2012-01-29T09:12:46Z</time>
      </trkpt>
      <trkpt lat="45.83419" lon="4.80942">
        <ele>400</ele>
        <time>2012-01-29T09:12:48Z</time>
      </trkpt>
      <trkpt lat="45.83421" lon="4.80943">
        <ele>400</ele>
        <time>2012-01-29T09:12:57Z</time>
      </trkpt>
      <trkpt lat="45.83423" lon="4.80944">
        <ele>400</ele>
        <time>2012-01-29T09:13:07Z</time>
      </trkpt>
      <trkpt lat="45.83425" lon="4.8095">
        <ele>399</ele>
        <time>2012-01-29T09:13:14Z</time>
      </trkpt>
      <trkpt lat="45.83428" lon="4.80952">
        <ele>399</ele>
        <time>2012-01-29T09:13:19Z</time>
      </trkpt>
      <trkpt lat="45.83429" lon="4.80954">
        <ele>399</ele>
        <time>2012-01-29T09:13:20Z</time>
      </trkpt>
      <trkpt lat="45.8343" lon="4.80956">
        <ele>399</ele>
        <time>2012-01-29T09:13:23Z</time>
      </trkpt>
      <trkpt lat="45.83431" lon="4.80954">
        <ele>399</ele>
        <time>2012-01-29T09:13:24Z</time>
      </trkpt>
      <trkpt lat="45.83433" lon="4.80953">
        <ele>399</ele>
        <time>2012-01-29T09:13:27Z</time>
      </trkpt>
      <trkpt lat="45.83435" lon="4.80953">
        <ele>399</ele>
        <time>2012-01-29T09:13:29Z</time>
      </trkpt>
      <trkpt lat="45.83443" lon="4.80954">
        <ele>399</ele>
        <time>2012-01-29T09:13:35Z</time>
      </trkpt>
      <trkpt lat="45.83444" lon="4.80954">
        <ele>399</ele>
        <time>2012-01-29T09:13:36Z</time>
      </trkpt>
      <trkpt lat="45.83448" lon="4.80953">
        <ele>399</ele>
        <time>2012-01-29T09:13:39Z</time>
      </trkpt>
      <trkpt lat="45.83459" lon="4.80954">
        <ele>399</ele>
        <time>2012-01-29T09:13:46Z</time>
      </trkpt>
      <trkpt lat="45.83468" lon="4.80954">
        <ele>400</ele>
        <time>2012-01-29T09:13:51Z</time>
      </trkpt>
      <trkpt lat="45.83471" lon="4.80953">
        <ele>400</ele>
        <time>2012-01-29T09:13:53Z</time>
      </trkpt>
      <trkpt lat="45.83473" lon="4.80953">
        <ele>400</ele>
        <time>2012-01-29T09:13:54Z</time>
      </trkpt>
      <trkpt lat="45.83478" lon="4.80951">
        <ele>400</ele>
        <time>2012-01-29T09:13:58Z</time>
      </trkpt>
      <trkpt lat="45.83479" lon="4.8095">
        <ele>400</ele>
        <time>2012-01-29T09:13:59Z</time>
      </trkpt>
      <trkpt lat="45.83486" lon="4.8095">
        <ele>401</ele>
        <time>2012-01-29T09:14:03Z</time>
      </trkpt>
      <trkpt lat="45.83489" lon="4.8095">
        <ele>401</ele>
        <time>2012-01-29T09:14:05Z</time>
      </trkpt>
      <trkpt lat="45.83494" lon="4.80948">
        <ele>401</ele>
        <time>2012-01-29T09:14:09Z</time>
      </trkpt>
      <trkpt lat="45.83498" lon="4.80945">
        <ele>402</ele>
        <time>2012-01-29T09:14:12Z</time>
      </trkpt>
      <trkpt lat="45.83504" lon="4.80943">
        <ele>405</ele>
        <time>2012-01-29T09:14:16Z</time>
      </trkpt>
      <trkpt lat="45.83508" lon="4.80939">
        <ele>405</ele>
        <time>2012-01-29T09:14:19Z</time>
      </trkpt>
      <trkpt lat="45.83517" lon="4.8093">
        <ele>406</ele>
        <time>2012-01-29T09:14:26Z</time>
      </trkpt>
      <trkpt lat="45.83519" lon="4.80928">
        <ele>406</ele>
        <time>2012-01-29T09:14:27Z</time>
      </trkpt>
      <trkpt lat="45.83527" lon="4.80929">
        <ele>406</ele>
        <time>2012-01-29T09:14:30Z</time>
      </trkpt>
      <trkpt lat="45.83537" lon="4.80935">
        <ele>405</ele>
        <time>2012-01-29T09:14:34Z</time>
      </trkpt>
      <trkpt lat="45.83539" lon="4.80937">
        <ele>405</ele>
        <time>2012-01-29T09:14:35Z</time>
      </trkpt>
      <trkpt lat="45.83553" lon="4.80948">
        <ele>405</ele>
        <time>2012-01-29T09:14:41Z</time>
      </trkpt>
      <trkpt lat="45.8356" lon="4.80956">
        <ele>404</ele>
        <time>2012-01-29T09:14:45Z</time>
      </trkpt>
      <trkpt lat="45.83567" lon="4.80965">
        <ele>404</ele>
        <time>2012-01-29T09:14:50Z</time>
      </trkpt>
      <trkpt lat="45.83573" lon="4.80964">
        <ele>404</ele>
        <time>2012-01-29T09:14:55Z</time>
      </trkpt>
      <trkpt lat="45.83577" lon="4.80962">
        <ele>404</ele>
        <time>2012-01-29T09:14:59Z</time>
      </trkpt>
      <trkpt lat="45.83576" lon="4.80963">
        <ele>404</ele>
        <time>2012-01-29T09:15:01Z</time>
      </trkpt>
      <trkpt lat="45.8357" lon="4.80968">
        <ele>403</ele>
        <time>2012-01-29T09:15:06Z</time>
      </trkpt>
      <trkpt lat="45.83568" lon="4.80969">
        <ele>403</ele>
        <time>2012-01-29T09:15:07Z</time>
      </trkpt>
      <trkpt lat="45.83557" lon="4.80981">
        <ele>402</ele>
        <time>2012-01-29T09:15:12Z</time>
      </trkpt>
      <trkpt lat="45.83556" lon="4.80984">
        <ele>402</ele>
        <time>2012-01-29T09:15:13Z</time>
      </trkpt>
      <trkpt lat="45.83555" lon="4.80987">
        <ele>402</ele>
        <time>2012-01-29T09:15:14Z</time>
      </trkpt>
      <trkpt lat="45.83556" lon="4.8099">
        <ele>402</ele>
        <time>2012-01-29T09:15:16Z</time>
      </trkpt>
      <trkpt lat="45.83561" lon="4.80991">
        <ele>402</ele>
        <time>2012-01-29T09:15:19Z</time>
      </trkpt>
      <trkpt lat="45.83563" lon="4.80991">
        <ele>402</ele>
        <time>2012-01-29T09:15:21Z</time>
      </trkpt>
      <trkpt lat="45.8357" lon="4.80986">
        <ele>402</ele>
        <time>2012-01-29T09:15:25Z</time>
      </trkpt>
      <trkpt lat="45.83574" lon="4.80985">
        <ele>401</ele>
        <time>2012-01-29T09:15:27Z</time>
      </trkpt>
      <trkpt lat="45.83587" lon="4.80983">
        <ele>403</ele>
        <time>2012-01-29T09:15:34Z</time>
      </trkpt>
      <trkpt lat="45.83589" lon="4.80982">
        <ele>403</ele>
        <time>2012-01-29T09:15:36Z</time>
      </trkpt>
      <trkpt lat="45.83593" lon="4.80982">
        <ele>403</ele>
        <time>2012-01-29T09:15:39Z</time>
      </trkpt>
      <trkpt lat="45.83594" lon="4.80985">
        <ele>402</ele>
        <time>2012-01-29T09:15:45Z</time>
      </trkpt>
      <trkpt lat="45.83596" lon="4.80983">
        <ele>403</ele>
        <time>2012-01-29T09:15:50Z</time>
      </trkpt>
      <trkpt lat="45.83598" lon="4.80982">
        <ele>403</ele>
        <time>2012-01-29T09:15:52Z</time>
      </trkpt>
      <trkpt lat="45.83601" lon="4.80982">
        <ele>403</ele>
        <time>2012-01-29T09:15:54Z</time>
      </trkpt>
      <trkpt lat="45.83604" lon="4.80982">
        <ele>403</ele>
        <time>2012-01-29T09:15:56Z</time>
      </trkpt>
      <trkpt lat="45.83612" lon="4.80981">
        <ele>404</ele>
        <time>2012-01-29T09:16:00Z</time>
      </trkpt>
      <trkpt lat="45.83624" lon="4.80979">
        <ele>404</ele>
        <time>2012-01-29T09:16:05Z</time>
      </trkpt>
      <trkpt lat="45.8364" lon="4.80975">
        <ele>404</ele>
        <time>2012-01-29T09:16:12Z</time>
      </trkpt>
      <trkpt lat="45.83643" lon="4.80973">
        <ele>404</ele>
        <time>2012-01-29T09:16:14Z</time>
      </trkpt>
      <trkpt lat="45.83647" lon="4.8097">
        <ele>405</ele>
        <time>2012-01-29T09:16:18Z</time>
      </trkpt>
      <trkpt lat="45.8365" lon="4.80969">
        <ele>405</ele>
        <time>2012-01-29T09:16:24Z</time>
      </trkpt>
      <trkpt lat="45.8365" lon="4.80973">
        <ele>404</ele>
        <time>2012-01-29T09:16:29Z</time>
      </trkpt>
      <trkpt lat="45.83652" lon="4.80974">
        <ele>404</ele>
        <time>2012-01-29T09:16:32Z</time>
      </trkpt>
      <trkpt lat="45.83654" lon="4.80975">
        <ele>404</ele>
        <time>2012-01-29T09:16:34Z</time>
      </trkpt>
      <trkpt lat="45.83657" lon="4.80975">
        <ele>404</ele>
        <time>2012-01-29T09:16:37Z</time>
      </trkpt>
      <trkpt lat="45.83662" lon="4.80976">
        <ele>404</ele>
        <time>2012-01-29T09:16:40Z</time>
      </trkpt>
      <trkpt lat="45.83668" lon="4.80976">
        <ele>401</ele>
        <time>2012-01-29T09:16:46Z</time>
      </trkpt>
      <trkpt lat="45.8367" lon="4.80975">
        <ele>401</ele>
        <time>2012-01-29T09:16:48Z</time>
      </trkpt>
      <trkpt lat="45.83672" lon="4.80974">
        <ele>401</ele>
        <time>2012-01-29T09:16:52Z</time>
      </trkpt>
      <trkpt lat="45.83676" lon="4.80973">
        <ele>401</ele>
        <time>2012-01-29T09:16:57Z</time>
      </trkpt>
      <trkpt lat="45.83676" lon="4.80973">
        <ele>401</ele>
        <time>2012-01-29T09:16:58Z</time>
      </trkpt>
      <trkpt lat="45.83677" lon="4.80974">
        <ele>400</ele>
        <time>2012-01-29T09:16:59Z</time>
      </trkpt>
      <trkpt lat="45.8368" lon="4.80974">
        <ele>400</ele>
        <time>2012-01-29T09:17:04Z</time>
      </trkpt>
      <trkpt lat="45.83683" lon="4.80977">
        <ele>400</ele>
        <time>2012-01-29T09:17:23Z</time>
      </trkpt>
      <trkpt lat="45.83688" lon="4.80973">
        <ele>400</ele>
        <time>2012-01-29T09:17:31Z</time>
      </trkpt>
      <trkpt lat="45.83692" lon="4.80972">
        <ele>400</ele>
        <time>2012-01-29T09:17:45Z</time>
      </trkpt>
      <trkpt lat="45.83688" lon="4.80968">
        <ele>400</ele>
        <time>2012-01-29T09:17:59Z</time>
      </trkpt>
      <trkpt lat="45.83692" lon="4.80965">
        <ele>400</ele>
        <time>2012-01-29T09:18:10Z</time>
      </trkpt>
      <trkpt lat="45.83692" lon="4.80964">
        <ele>400</ele>
        <time>2012-01-29T09:18:17Z</time>
      </trkpt>
      <trkpt lat="45.83692" lon="4.80964">
        <ele>400</ele>
        <time>2012-01-29T09:18:18Z</time>
      </trkpt>
      <trkpt lat="45.83691" lon="4.8096">
        <ele>401</ele>
        <time>2012-01-29T09:18:22Z</time>
      </trkpt>
      <trkpt lat="45.83692" lon="4.80955">
        <ele>401</ele>
        <time>2012-01-29T09:18:26Z</time>
      </trkpt>
      <trkpt lat="45.8369" lon="4.80954">
        <ele>401</ele>
        <time>2012-01-29T09:18:29Z</time>
      </trkpt>
      <trkpt lat="45.83684" lon="4.80955">
        <ele>401</ele>
        <time>2012-01-29T09:18:35Z</time>
      </trkpt>
      <trkpt lat="45.83677" lon="4.80952">
        <ele>402</ele>
        <time>2012-01-29T09:18:40Z</time>
      </trkpt>
      <trkpt lat="45.83676" lon="4.80952">
        <ele>402</ele>
        <time>2012-01-29T09:18:41Z</time>
      </trkpt>
      <trkpt lat="45.83672" lon="4.80954">
        <ele>402</ele>
        <time>2012-01-29T09:18:45Z</time>
      </trkpt>
      <trkpt lat="45.83669" lon="4.80954">
        <ele>402</ele>
        <time>2012-01-29T09:18:48Z</time>
      </trkpt>
      <trkpt lat="45.83663" lon="4.80957">
        <ele>405</ele>
        <time>2012-01-29T09:19:06Z</time>
      </trkpt>
      <trkpt lat="45.83662" lon="4.80958">
        <ele>405</ele>
        <time>2012-01-29T09:19:09Z</time>
      </trkpt>
      <trkpt lat="45.83661" lon="4.80956">
        <ele>405</ele>
        <time>2012-01-29T09:19:12Z</time>
      </trkpt>
      <trkpt lat="45.83657" lon="4.80955">
        <ele>406</ele>
        <time>2012-01-29T09:19:17Z</time>
      </trkpt>
      <trkpt lat="45.83655" lon="4.80953">
        <ele>406</ele>
        <time>2012-01-29T09:19:21Z</time>
      </trkpt>
      <trkpt lat="45.83656" lon="4.80951">
        <ele>406</ele>
        <time>2012-01-29T09:19:23Z</time>
      </trkpt>
      <trkpt lat="45.83657" lon="4.80944">
        <ele>406</ele>
        <time>2012-01-29T09:19:29Z</time>
      </trkpt>
      <trkpt lat="45.83657" lon="4.80941">
        <ele>407</ele>
        <time>2012-01-29T09:19:31Z</time>
      </trkpt>
      <trkpt lat="45.83656" lon="4.80939">
        <ele>407</ele>
        <time>2012-01-29T09:19:33Z</time>
      </trkpt>
      <trkpt lat="45.83657" lon="4.80933">
        <ele>407</ele>
        <time>2012-01-29T09:19:39Z</time>
      </trkpt>
      <trkpt lat="45.83658" lon="4.80928">
        <ele>408</ele>
        <time>2012-01-29T09:19:43Z</time>
      </trkpt>
      <trkpt lat="45.83658" lon="4.80924">
        <ele>408</ele>
        <time>2012-01-29T09:19:45Z</time>
      </trkpt>
      <trkpt lat="45.83658" lon="4.80919">
        <ele>408</ele>
        <time>2012-01-29T09:19:50Z</time>
      </trkpt>
      <trkpt lat="45.83658" lon="4.80916">
        <ele>410</ele>
        <time>2012-01-29T09:19:53Z</time>
      </trkpt>
      <trkpt lat="45.83659" lon="4.8091">
        <ele>410</ele>
        <time>2012-01-29T09:20:00Z</time>
      </trkpt>
      <trkpt lat="45.8366" lon="4.80902">
        <ele>411</ele>
        <time>2012-01-29T09:20:04Z</time>
      </trkpt>
      <trkpt lat="45.83661" lon="4.80896">
        <ele>411</ele>
        <time>2012-01-29T09:20:07Z</time>
      </trkpt>
      <trkpt lat="45.83662" lon="4.80875">
        <ele>412</ele>
        <time>2012-01-29T09:20:17Z</time>
      </trkpt>
      <trkpt lat="45.83663" lon="4.80862">
        <ele>412</ele>
        <time>2012-01-29T09:20:26Z</time>
      </trkpt>
      <trkpt lat="45.83663" lon="4.80856">
        <ele>412</ele>
        <time>2012-01-29T09:20:30Z</time>
      </trkpt>
      <trkpt lat="45.83664" lon="4.80848">
        <ele>412</ele>
        <time>2012-01-29T09:20:34Z</time>
      </trkpt>
      <trkpt lat="45.83665" lon="4.80835">
        <ele>412</ele>
        <time>2012-01-29T09:20:41Z</time>
      </trkpt>
      <trkpt lat="45.83666" lon="4.80822">
        <ele>414</ele>
        <time>2012-01-29T09:20:48Z</time>
      </trkpt>
      <trkpt lat="45.83667" lon="4.8082">
        <ele>414</ele>
        <time>2012-01-29T09:20:49Z</time>
      </trkpt>
      <trkpt lat="45.83671" lon="4.80805">
        <ele>414</ele>
        <time>2012-01-29T09:20:58Z</time>
      </trkpt>
      <trkpt lat="45.83674" lon="4.80797">
        <ele>414</ele>
        <time>2012-01-29T09:21:03Z</time>
      </trkpt>
      <trkpt lat="45.83678" lon="4.8079">
        <ele>415</ele>
        <time>2012-01-29T09:21:08Z</time>
      </trkpt>
      <trkpt lat="45.83686" lon="4.80777">
        <ele>415</ele>
        <time>2012-01-29T09:21:17Z</time>
      </trkpt>
      <trkpt lat="45.83696" lon="4.8076">
        <ele>416</ele>
        <time>2012-01-29T09:21:28Z</time>
      </trkpt>
      <trkpt lat="45.83698" lon="4.80757">
        <ele>416</ele>
        <time>2012-01-29T09:21:30Z</time>
      </trkpt>
      <trkpt lat="45.83702" lon="4.80751">
        <ele>416</ele>
        <time>2012-01-29T09:21:35Z</time>
      </trkpt>
      <trkpt lat="45.83711" lon="4.80738">
        <ele>420</ele>
        <time>2012-01-29T09:21:44Z</time>
      </trkpt>
      <trkpt lat="45.83713" lon="4.80735">
        <ele>420</ele>
        <time>2012-01-29T09:21:46Z</time>
      </trkpt>
      <trkpt lat="45.83716" lon="4.80729">
        <ele>421</ele>
        <time>2012-01-29T09:21:50Z</time>
      </trkpt>
      <trkpt lat="45.83718" lon="4.80726">
        <ele>421</ele>
        <time>2012-01-29T09:21:52Z</time>
      </trkpt>
      <trkpt lat="45.83723" lon="4.80721">
        <ele>421</ele>
        <time>2012-01-29T09:21:56Z</time>
      </trkpt>
      <trkpt lat="45.83724" lon="4.8072">
        <ele>421</ele>
        <time>2012-01-29T09:21:57Z</time>
      </trkpt>
      <trkpt lat="45.83725" lon="4.80719">
        <ele>421</ele>
        <time>2012-01-29T09:21:58Z</time>
      </trkpt>
      <trkpt lat="45.83727" lon="4.80712">
        <ele>421</ele>
        <time>2012-01-29T09:22:05Z</time>
      </trkpt>
      <trkpt lat="45.83726" lon="4.80708">
        <ele>422</ele>
        <time>2012-01-29T09:22:07Z</time>
      </trkpt>
      <trkpt lat="45.83726" lon="4.80705">
        <ele>422</ele>
        <time>2012-01-29T09:22:09Z</time>
      </trkpt>
      <trkpt lat="45.83726" lon="4.80703">
        <ele>422</ele>
        <time>2012-01-29T09:22:17Z</time>
      </trkpt>
      <trkpt lat="45.83724" lon="4.80695">
        <ele>422</ele>
        <time>2012-01-29T09:22:35Z</time>
      </trkpt>
      <trkpt lat="45.83724" lon="4.80694">
        <ele>422</ele>
        <time>2012-01-29T09:22:36Z</time>
      </trkpt>
      <trkpt lat="45.83723" lon="4.80685">
        <ele>423</ele>
        <time>2012-01-29T09:22:47Z</time>
      </trkpt>
      <trkpt lat="45.83721" lon="4.80675">
        <ele>423</ele>
        <time>2012-01-29T09:22:53Z</time>
      </trkpt>
      <trkpt lat="45.83721" lon="4.80668">
        <ele>423</ele>
        <time>2012-01-29T09:22:56Z</time>
      </trkpt>
      <trkpt lat="45.8372" lon="4.80661">
        <ele>430</ele>
        <time>2012-01-29T09:23:01Z</time>
      </trkpt>
      <trkpt lat="45.83719" lon="4.80647">
        <ele>431</ele>
        <time>2012-01-29T09:23:09Z</time>
      </trkpt>
      <trkpt lat="45.83718" lon="4.80641">
        <ele>432</ele>
        <time>2012-01-29T09:23:12Z</time>
      </trkpt>
      <trkpt lat="45.83717" lon="4.80632">
        <ele>433</ele>
        <time>2012-01-29T09:23:18Z</time>
      </trkpt>
      <trkpt lat="45.83716" lon="4.8062">
        <ele>434</ele>
        <time>2012-01-29T09:23:26Z</time>
      </trkpt>
      <trkpt lat="45.83715" lon="4.80615">
        <ele>434</ele>
        <time>2012-01-29T09:23:29Z</time>
      </trkpt>
      <trkpt lat="45.83715" lon="4.80609">
        <ele>435</ele>
        <time>2012-01-29T09:23:34Z</time>
      </trkpt>
      <trkpt lat="45.83714" lon="4.80599">
        <ele>436</ele>
        <time>2012-01-29T09:23:41Z</time>
      </trkpt>
      <trkpt lat="45.83712" lon="4.80587">
        <ele>436</ele>
        <time>2012-01-29T09:23:47Z</time>
      </trkpt>
      <trkpt lat="45.83712" lon="4.80584">
        <ele>436</ele>
        <time>2012-01-29T09:23:49Z</time>
      </trkpt>
      <trkpt lat="45.83712" lon="4.80579">
        <ele>445</ele>
        <time>2012-01-29T09:23:52Z</time>
      </trkpt>
      <trkpt lat="45.8371" lon="4.80573">
        <ele>445</ele>
        <time>2012-01-29T09:23:55Z</time>
      </trkpt>
      <trkpt lat="45.83708" lon="4.80566">
        <ele>446</ele>
        <time>2012-01-29T09:23:59Z</time>
      </trkpt>
      <trkpt lat="45.83709" lon="4.80563">
        <ele>446</ele>
        <time>2012-01-29T09:24:01Z</time>
      </trkpt>
      <trkpt lat="45.8371" lon="4.80562">
        <ele>446</ele>
        <time>2012-01-29T09:24:02Z</time>
      </trkpt>
      <trkpt lat="45.83714" lon="4.80561">
        <ele>446</ele>
        <time>2012-01-29T09:24:06Z</time>
      </trkpt>
      <trkpt lat="45.83715" lon="4.80561">
        <ele>446</ele>
        <time>2012-01-29T09:24:07Z</time>
      </trkpt>
      <trkpt lat="45.83716" lon="4.8056">
        <ele>446</ele>
        <time>2012-01-29T09:24:08Z</time>
      </trkpt>
      <trkpt lat="45.83721" lon="4.80558">
        <ele>446</ele>
        <time>2012-01-29T09:24:12Z</time>
      </trkpt>
      <trkpt lat="45.83722" lon="4.80557">
        <ele>446</ele>
        <time>2012-01-29T09:24:13Z</time>
      </trkpt>
      <trkpt lat="45.83727" lon="4.80556">
        <ele>446</ele>
        <time>2012-01-29T09:24:17Z</time>
      </trkpt>
      <trkpt lat="45.83728" lon="4.80553">
        <ele>446</ele>
        <time>2012-01-29T09:24:19Z</time>
      </trkpt>
      <trkpt lat="45.83738" lon="4.80552">
        <ele>446</ele>
        <time>2012-01-29T09:24:26Z</time>
      </trkpt>
      <trkpt lat="45.83739" lon="4.80551">
        <ele>446</ele>
        <time>2012-01-29T09:24:27Z</time>
      </trkpt>
      <trkpt lat="45.83744" lon="4.80549">
        <ele>446</ele>
        <time>2012-01-29T09:24:31Z</time>
      </trkpt>
      <trkpt lat="45.83756" lon="4.80546">
        <ele>450</ele>
        <time>2012-01-29T09:24:39Z</time>
      </trkpt>
      <trkpt lat="45.83763" lon="4.80542">
        <ele>451</ele>
        <time>2012-01-29T09:24:44Z</time>
      </trkpt>
      <trkpt lat="45.83765" lon="4.8054">
        <ele>451</ele>
        <time>2012-01-29T09:24:46Z</time>
      </trkpt>
      <trkpt lat="45.83777" lon="4.80535">
        <ele>453</ele>
        <time>2012-01-29T09:24:54Z</time>
      </trkpt>
      <trkpt lat="45.83781" lon="4.80534">
        <ele>453</ele>
        <time>2012-01-29T09:24:58Z</time>
      </trkpt>
      <trkpt lat="45.83781" lon="4.80534">
        <ele>453</ele>
        <time>2012-01-29T09:24:59Z</time>
      </trkpt>
      <trkpt lat="45.8379" lon="4.80536">
        <ele>454</ele>
        <time>2012-01-29T09:25:06Z</time>
      </trkpt>
      <trkpt lat="45.83791" lon="4.80537">
        <ele>454</ele>
        <time>2012-01-29T09:25:07Z</time>
      </trkpt>
      <trkpt lat="45.83794" lon="4.80538">
        <ele>454</ele>
        <time>2012-01-29T09:25:10Z</time>
      </trkpt>
      <trkpt lat="45.83799" lon="4.80541">
        <ele>455</ele>
        <time>2012-01-29T09:25:14Z</time>
      </trkpt>
      <trkpt lat="45.83802" lon="4.80545">
        <ele>455</ele>
        <time>2012-01-29T09:25:16Z</time>
      </trkpt>
      <trkpt lat="45.83808" lon="4.80551">
        <ele>455</ele>
        <time>2012-01-29T09:25:21Z</time>
      </trkpt>
      <trkpt lat="45.83809" lon="4.80552">
        <ele>455</ele>
        <time>2012-01-29T09:25:22Z</time>
      </trkpt>
      <trkpt lat="45.83814" lon="4.80558">
        <ele>456</ele>
        <time>2012-01-29T09:25:27Z</time>
      </trkpt>
      <trkpt lat="45.83818" lon="4.80565">
        <ele>456</ele>
        <time>2012-01-29T09:25:31Z</time>
      </trkpt>
      <trkpt lat="45.83825" lon="4.80575">
        <ele>457</ele>
        <time>2012-01-29T09:25:38Z</time>
      </trkpt>
      <trkpt lat="45.83828" lon="4.80578">
        <ele>458</ele>
        <time>2012-01-29T09:25:41Z</time>
      </trkpt>
      <trkpt lat="45.83831" lon="4.80583">
        <ele>458</ele>
        <time>2012-01-29T09:25:45Z</time>
      </trkpt>
      <trkpt lat="45.83838" lon="4.80594">
        <ele>460</ele>
        <time>2012-01-29T09:25:53Z</time>
      </trkpt>
      <trkpt lat="45.83841" lon="4.80598">
        <ele>460</ele>
        <time>2012-01-29T09:25:56Z</time>
      </trkpt>
      <trkpt lat="45.83846" lon="4.80605">
        <ele>461</ele>
        <time>2012-01-29T09:26:01Z</time>
      </trkpt>
      <trkpt lat="45.83855" lon="4.80614">
        <ele>461</ele>
        <time>2012-01-29T09:26:09Z</time>
      </trkpt>
      <trkpt lat="45.83856" lon="4.80615">
        <ele>461</ele>
        <time>2012-01-29T09:26:10Z</time>
      </trkpt>
      <trkpt lat="45.83864" lon="4.80621">
        <ele>461</ele>
        <time>2012-01-29T09:26:17Z</time>
      </trkpt>
      <trkpt lat="45.8387" lon="4.80627">
        <ele>462</ele>
        <time>2012-01-29T09:26:23Z</time>
      </trkpt>
      <trkpt lat="45.83871" lon="4.80627">
        <ele>462</ele>
        <time>2012-01-29T09:26:24Z</time>
      </trkpt>
      <trkpt lat="45.83872" lon="4.80628">
        <ele>462</ele>
        <time>2012-01-29T09:26:25Z</time>
      </trkpt>
      <trkpt lat="45.83877" lon="4.8063">
        <ele>462</ele>
        <time>2012-01-29T09:26:28Z</time>
      </trkpt>
      <trkpt lat="45.8388" lon="4.80632">
        <ele>462</ele>
        <time>2012-01-29T09:26:30Z</time>
      </trkpt>
      <trkpt lat="45.83888" lon="4.80638">
        <ele>463</ele>
        <time>2012-01-29T09:26:37Z</time>
      </trkpt>
      <trkpt lat="45.8389" lon="4.80638">
        <ele>463</ele>
        <time>2012-01-29T09:26:38Z</time>
      </trkpt>
      <trkpt lat="45.83899" lon="4.80644">
        <ele>464</ele>
        <time>2012-01-29T09:26:45Z</time>
      </trkpt>
      <trkpt lat="45.83907" lon="4.80648">
        <ele>464</ele>
        <time>2012-01-29T09:26:50Z</time>
      </trkpt>
      <trkpt lat="45.83912" lon="4.80649">
        <ele>464</ele>
        <time>2012-01-29T09:26:53Z</time>
      </trkpt>
      <trkpt lat="45.83924" lon="4.80651">
        <ele>469</ele>
        <time>2012-01-29T09:27:00Z</time>
      </trkpt>
      <trkpt lat="45.83926" lon="4.80651">
        <ele>469</ele>
        <time>2012-01-29T09:27:01Z</time>
      </trkpt>
      <trkpt lat="45.83935" lon="4.80652">
        <ele>470</ele>
        <time>2012-01-29T09:27:07Z</time>
      </trkpt>
      <trkpt lat="45.83944" lon="4.80655">
        <ele>470</ele>
        <time>2012-01-29T09:27:13Z</time>
      </trkpt>
      <trkpt lat="45.8395" lon="4.80656">
        <ele>470</ele>
        <time>2012-01-29T09:27:17Z</time>
      </trkpt>
      <trkpt lat="45.83955" lon="4.80656">
        <ele>471</ele>
        <time>2012-01-29T09:27:21Z</time>
      </trkpt>
      <trkpt lat="45.83956" lon="4.80657">
        <ele>471</ele>
        <time>2012-01-29T09:27:23Z</time>
      </trkpt>
      <trkpt lat="45.83962" lon="4.80655">
        <ele>471</ele>
        <time>2012-01-29T09:27:33Z</time>
      </trkpt>
      <trkpt lat="45.83973" lon="4.80656">
        <ele>471</ele>
        <time>2012-01-29T09:27:41Z</time>
      </trkpt>
      <trkpt lat="45.83979" lon="4.80656">
        <ele>471</ele>
        <time>2012-01-29T09:27:44Z</time>
      </trkpt>
      <trkpt lat="45.83984" lon="4.80655">
        <ele>470</ele>
        <time>2012-01-29T09:27:46Z</time>
      </trkpt>
      <trkpt lat="45.83998" lon="4.80655">
        <ele>470</ele>
        <time>2012-01-29T09:27:52Z</time>
      </trkpt>
      <trkpt lat="45.84" lon="4.80655">
        <ele>471</ele>
        <time>2012-01-29T09:27:53Z</time>
      </trkpt>
      <trkpt lat="45.84016" lon="4.80653">
        <ele>472</ele>
        <time>2012-01-29T09:28:00Z</time>
      </trkpt>
      <trkpt lat="45.84018" lon="4.80652">
        <ele>472</ele>
        <time>2012-01-29T09:28:01Z</time>
      </trkpt>
      <trkpt lat="45.84029" lon="4.80651">
        <ele>473</ele>
        <time>2012-01-29T09:28:06Z</time>
      </trkpt>
      <trkpt lat="45.84037" lon="4.80648">
        <ele>473</ele>
        <time>2012-01-29T09:28:10Z</time>
      </trkpt>
      <trkpt lat="45.84041" lon="4.80647">
        <ele>474</ele>
        <time>2012-01-29T09:28:12Z</time>
      </trkpt>
      <trkpt lat="45.84052" lon="4.80644">
        <ele>474</ele>
        <time>2012-01-29T09:28:17Z</time>
      </trkpt>
      <trkpt lat="45.84055" lon="4.80643">
        <ele>474</ele>
        <time>2012-01-29T09:28:19Z</time>
      </trkpt>
      <trkpt lat="45.8406" lon="4.80641">
        <ele>474</ele>
        <time>2012-01-29T09:28:21Z</time>
      </trkpt>
      <trkpt lat="45.84073" lon="4.80634">
        <ele>474</ele>
        <time>2012-01-29T09:28:26Z</time>
      </trkpt>
      <trkpt lat="45.84076" lon="4.80632">
        <ele>475</ele>
        <time>2012-01-29T09:28:27Z</time>
      </trkpt>
      <trkpt lat="45.84088" lon="4.80625">
        <ele>477</ele>
        <time>2012-01-29T09:28:33Z</time>
      </trkpt>
      <trkpt lat="45.84091" lon="4.80624">
        <ele>478</ele>
        <time>2012-01-29T09:28:34Z</time>
      </trkpt>
      <trkpt lat="45.84104" lon="4.80618">
        <ele>478</ele>
        <time>2012-01-29T09:28:39Z</time>
      </trkpt>
      <trkpt lat="45.8411" lon="4.80616">
        <ele>478</ele>
        <time>2012-01-29T09:28:41Z</time>
      </trkpt>
      <trkpt lat="45.84119" lon="4.80614">
        <ele>479</ele>
        <time>2012-01-29T09:28:45Z</time>
      </trkpt>
      <trkpt lat="45.8413" lon="4.80613">
        <ele>479</ele>
        <time>2012-01-29T09:28:50Z</time>
      </trkpt>
      <trkpt lat="45.84134" lon="4.80615">
        <ele>479</ele>
        <time>2012-01-29T09:28:52Z</time>
      </trkpt>
      <trkpt lat="45.84144" lon="4.8062">
        <ele>479</ele>
        <time>2012-01-29T09:28:57Z</time>
      </trkpt>
      <trkpt lat="45.84148" lon="4.80621">
        <ele>479</ele>
        <time>2012-01-29T09:28:59Z</time>
      </trkpt>
      <trkpt lat="45.84153" lon="4.80625">
        <ele>479</ele>
        <time>2012-01-29T09:29:03Z</time>
      </trkpt>
      <trkpt lat="45.84161" lon="4.80631">
        <ele>479</ele>
        <time>2012-01-29T09:29:10Z</time>
      </trkpt>
      <trkpt lat="45.84165" lon="4.80634">
        <ele>479</ele>
        <time>2012-01-29T09:29:13Z</time>
      </trkpt>
      <trkpt lat="45.84169" lon="4.80637">
        <ele>482</ele>
        <time>2012-01-29T09:29:17Z</time>
      </trkpt>
      <trkpt lat="45.84178" lon="4.80638">
        <ele>482</ele>
        <time>2012-01-29T09:29:24Z</time>
      </trkpt>
      <trkpt lat="45.84183" lon="4.80637">
        <ele>483</ele>
        <time>2012-01-29T09:29:27Z</time>
      </trkpt>
      <trkpt lat="45.84191" lon="4.80634">
        <ele>483</ele>
        <time>2012-01-29T09:29:32Z</time>
      </trkpt>
      <trkpt lat="45.84201" lon="4.8063">
        <ele>484</ele>
        <time>2012-01-29T09:29:40Z</time>
      </trkpt>
      <trkpt lat="45.84214" lon="4.80625">
        <ele>485</ele>
        <time>2012-01-29T09:29:49Z</time>
      </trkpt>
      <trkpt lat="45.84219" lon="4.80622">
        <ele>485</ele>
        <time>2012-01-29T09:29:53Z</time>
      </trkpt>
      <trkpt lat="45.84225" lon="4.8062">
        <ele>485</ele>
        <time>2012-01-29T09:29:58Z</time>
      </trkpt>
      <trkpt lat="45.84237" lon="4.80616">
        <ele>486</ele>
        <time>2012-01-29T09:30:08Z</time>
      </trkpt>
      <trkpt lat="45.84249" lon="4.8061">
        <ele>487</ele>
        <time>2012-01-29T09:30:18Z</time>
      </trkpt>
      <trkpt lat="45.84255" lon="4.80609">
        <ele>490</ele>
        <time>2012-01-29T09:30:22Z</time>
      </trkpt>
      <trkpt lat="45.84262" lon="4.80607">
        <ele>490</ele>
        <time>2012-01-29T09:30:27Z</time>
      </trkpt>
      <trkpt lat="45.84269" lon="4.80602">
        <ele>490</ele>
        <time>2012-01-29T09:30:34Z</time>
      </trkpt>
      <trkpt lat="45.8427" lon="4.80602">
        <ele>490</ele>
        <time>2012-01-29T09:30:36Z</time>
      </trkpt>
      <trkpt lat="45.84272" lon="4.80602">
        <ele>490</ele>
        <time>2012-01-29T09:30:38Z</time>
      </trkpt>
      <trkpt lat="45.84274" lon="4.80603">
        <ele>490</ele>
        <time>2012-01-29T09:30:40Z</time>
      </trkpt>
      <trkpt lat="45.8428" lon="4.80607">
        <ele>490</ele>
        <time>2012-01-29T09:30:46Z</time>
      </trkpt>
      <trkpt lat="45.84289" lon="4.80613">
        <ele>490</ele>
        <time>2012-01-29T09:30:55Z</time>
      </trkpt>
      <trkpt lat="45.84289" lon="4.80613">
        <ele>490</ele>
        <time>2012-01-29T09:30:56Z</time>
      </trkpt>
      <trkpt lat="45.8429" lon="4.80611">
        <ele>490</ele>
        <time>2012-01-29T09:31:20Z</time>
      </trkpt>
      <trkpt lat="45.84291" lon="4.80611">
        <ele>490</ele>
        <time>2012-01-29T09:31:28Z</time>
      </trkpt>
      <trkpt lat="45.84296" lon="4.80614">
        <ele>490</ele>
        <time>2012-01-29T09:31:30Z</time>
      </trkpt>
      <trkpt lat="45.84303" lon="4.80617">
        <ele>490</ele>
        <time>2012-01-29T09:31:33Z</time>
      </trkpt>
      <trkpt lat="45.84306" lon="4.80618">
        <ele>490</ele>
        <time>2012-01-29T09:31:34Z</time>
      </trkpt>
      <trkpt lat="45.84318" lon="4.80624">
        <ele>489</ele>
        <time>2012-01-29T09:31:39Z</time>
      </trkpt>
      <trkpt lat="45.84323" lon="4.80625">
        <ele>489</ele>
        <time>2012-01-29T09:31:41Z</time>
      </trkpt>
      <trkpt lat="45.84333" lon="4.8063">
        <ele>489</ele>
        <time>2012-01-29T09:31:45Z</time>
      </trkpt>
      <trkpt lat="45.84342" lon="4.80635">
        <ele>490</ele>
        <time>2012-01-29T09:31:48Z</time>
      </trkpt>
      <trkpt lat="45.84346" lon="4.80638">
        <ele>489</ele>
        <time>2012-01-29T09:31:50Z</time>
      </trkpt>
      <trkpt lat="45.84359" lon="4.80647">
        <ele>489</ele>
        <time>2012-01-29T09:31:55Z</time>
      </trkpt>
      <trkpt lat="45.84361" lon="4.80649">
        <ele>489</ele>
        <time>2012-01-29T09:31:56Z</time>
      </trkpt>
      <trkpt lat="45.84375" lon="4.80661">
        <ele>489</ele>
        <time>2012-01-29T09:32:02Z</time>
      </trkpt>
      <trkpt lat="45.84392" lon="4.80671">
        <ele>483</ele>
        <time>2012-01-29T09:32:09Z</time>
      </trkpt>
      <trkpt lat="45.84406" lon="4.80675">
        <ele>484</ele>
        <time>2012-01-29T09:32:14Z</time>
      </trkpt>
      <trkpt lat="45.84412" lon="4.80675">
        <ele>484</ele>
        <time>2012-01-29T09:32:16Z</time>
      </trkpt>
      <trkpt lat="45.84424" lon="4.80675">
        <ele>483</ele>
        <time>2012-01-29T09:32:21Z</time>
      </trkpt>
      <trkpt lat="45.84431" lon="4.80674">
        <ele>482</ele>
        <time>2012-01-29T09:32:24Z</time>
      </trkpt>
      <trkpt lat="45.8444" lon="4.80672">
        <ele>481</ele>
        <time>2012-01-29T09:32:28Z</time>
      </trkpt>
      <trkpt lat="45.84449" lon="4.80671">
        <ele>480</ele>
        <time>2012-01-29T09:32:32Z</time>
      </trkpt>
      <trkpt lat="45.8446" lon="4.8067">
        <ele>479</ele>
        <time>2012-01-29T09:32:36Z</time>
      </trkpt>
      <trkpt lat="45.84467" lon="4.80666">
        <ele>486</ele>
        <time>2012-01-29T09:32:39Z</time>
      </trkpt>
      <trkpt lat="45.84477" lon="4.80661">
        <ele>485</ele>
        <time>2012-01-29T09:32:43Z</time>
      </trkpt>
      <trkpt lat="45.84484" lon="4.80655">
        <ele>484</ele>
        <time>2012-01-29T09:32:46Z</time>
      </trkpt>
      <trkpt lat="45.84486" lon="4.80654">
        <ele>484</ele>
        <time>2012-01-29T09:32:47Z</time>
      </trkpt>
      <trkpt lat="45.84499" lon="4.80644">
        <ele>485</ele>
        <time>2012-01-29T09:32:52Z</time>
      </trkpt>
      <trkpt lat="45.84501" lon="4.80642">
        <ele>485</ele>
        <time>2012-01-29T09:32:53Z</time>
      </trkpt>
      <trkpt lat="45.84509" lon="4.80633">
        <ele>486</ele>
        <time>2012-01-29T09:32:57Z</time>
      </trkpt>
      <trkpt lat="45.84516" lon="4.80626">
        <ele>487</ele>
        <time>2012-01-29T09:33:00Z</time>
      </trkpt>
      <trkpt lat="45.84523" lon="4.80619">
        <ele>488</ele>
        <time>2012-01-29T09:33:03Z</time>
      </trkpt>
      <trkpt lat="45.84532" lon="4.80608">
        <ele>489</ele>
        <time>2012-01-29T09:33:08Z</time>
      </trkpt>
      <trkpt lat="45.84545" lon="4.80607">
        <ele>489</ele>
        <time>2012-01-29T09:33:14Z</time>
      </trkpt>
      <trkpt lat="45.84549" lon="4.8061">
        <ele>489</ele>
        <time>2012-01-29T09:33:16Z</time>
      </trkpt>
      <trkpt lat="45.84553" lon="4.80618">
        <ele>488</ele>
        <time>2012-01-29T09:33:19Z</time>
      </trkpt>
      <trkpt lat="45.84557" lon="4.80634">
        <ele>487</ele>
        <time>2012-01-29T09:33:24Z</time>
      </trkpt>
      <trkpt lat="45.84557" lon="4.80638">
        <ele>487</ele>
        <time>2012-01-29T09:33:25Z</time>
      </trkpt>
      <trkpt lat="45.8456" lon="4.80656">
        <ele>486</ele>
        <time>2012-01-29T09:33:30Z</time>
      </trkpt>
      <trkpt lat="45.8456" lon="4.8066">
        <ele>486</ele>
        <time>2012-01-29T09:33:31Z</time>
      </trkpt>
      <trkpt lat="45.84561" lon="4.80674">
        <ele>480</ele>
        <time>2012-01-29T09:33:35Z</time>
      </trkpt>
      <trkpt lat="45.84562" lon="4.8068">
        <ele>480</ele>
        <time>2012-01-29T09:33:37Z</time>
      </trkpt>
      <trkpt lat="45.84563" lon="4.80687">
        <ele>480</ele>
        <time>2012-01-29T09:33:39Z</time>
      </trkpt>
      <trkpt lat="45.84563" lon="4.80691">
        <ele>479</ele>
        <time>2012-01-29T09:33:40Z</time>
      </trkpt>
      <trkpt lat="45.84565" lon="4.80713">
        <ele>478</ele>
        <time>2012-01-29T09:33:46Z</time>
      </trkpt>
      <trkpt lat="45.84568" lon="4.80736">
        <ele>476</ele>
        <time>2012-01-29T09:33:52Z</time>
      </trkpt>
      <trkpt lat="45.84569" lon="4.80739">
        <ele>476</ele>
        <time>2012-01-29T09:33:53Z</time>
      </trkpt>
      <trkpt lat="45.84577" lon="4.8076">
        <ele>472</ele>
        <time>2012-01-29T09:33:59Z</time>
      </trkpt>
      <trkpt lat="45.84579" lon="4.80762">
        <ele>472</ele>
        <time>2012-01-29T09:34:00Z</time>
      </trkpt>
      <trkpt lat="45.8458" lon="4.80765">
        <ele>472</ele>
        <time>2012-01-29T09:34:01Z</time>
      </trkpt>
      <trkpt lat="45.84583" lon="4.80772">
        <ele>471</ele>
        <time>2012-01-29T09:34:03Z</time>
      </trkpt>
      <trkpt lat="45.8459" lon="4.80782">
        <ele>473</ele>
        <time>2012-01-29T09:34:08Z</time>
      </trkpt>
      <trkpt lat="45.84598" lon="4.80796">
        <ele>472</ele>
        <time>2012-01-29T09:34:13Z</time>
      </trkpt>
      <trkpt lat="45.84603" lon="4.80804">
        <ele>472</ele>
        <time>2012-01-29T09:34:16Z</time>
      </trkpt>
      <trkpt lat="45.84611" lon="4.80815">
        <ele>471</ele>
        <time>2012-01-29T09:34:20Z</time>
      </trkpt>
      <trkpt lat="45.84618" lon="4.80824">
        <ele>471</ele>
        <time>2012-01-29T09:34:24Z</time>
      </trkpt>
      <trkpt lat="45.84621" lon="4.80829">
        <ele>471</ele>
        <time>2012-01-29T09:34:26Z</time>
      </trkpt>
      <trkpt lat="45.84633" lon="4.80842">
        <ele>467</ele>
        <time>2012-01-29T09:34:32Z</time>
      </trkpt>
      <trkpt lat="45.84635" lon="4.80844">
        <ele>467</ele>
        <time>2012-01-29T09:34:33Z</time>
      </trkpt>
      <trkpt lat="45.84647" lon="4.80853">
        <ele>467</ele>
        <time>2012-01-29T09:34:39Z</time>
      </trkpt>
      <trkpt lat="45.8465" lon="4.80854">
        <ele>468</ele>
        <time>2012-01-29T09:34:40Z</time>
      </trkpt>
      <trkpt lat="45.84655" lon="4.80856">
        <ele>468</ele>
        <time>2012-01-29T09:34:42Z</time>
      </trkpt>
      <trkpt lat="45.8466" lon="4.80857">
        <ele>468</ele>
        <time>2012-01-29T09:34:44Z</time>
      </trkpt>
      <trkpt lat="45.8467" lon="4.80858">
        <ele>468</ele>
        <time>2012-01-29T09:34:47Z</time>
      </trkpt>
      <trkpt lat="45.84677" lon="4.80858">
        <ele>468</ele>
        <time>2012-01-29T09:34:50Z</time>
      </trkpt>
      <trkpt lat="45.84686" lon="4.80855">
        <ele>468</ele>
        <time>2012-01-29T09:34:54Z</time>
      </trkpt>
      <trkpt lat="45.84688" lon="4.80854">
        <ele>468</ele>
        <time>2012-01-29T09:34:55Z</time>
      </trkpt>
      <trkpt lat="45.84698" lon="4.80848">
        <ele>467</ele>
        <time>2012-01-29T09:34:59Z</time>
      </trkpt>
      <trkpt lat="45.84705" lon="4.80843">
        <ele>467</ele>
        <time>2012-01-29T09:35:02Z</time>
      </trkpt>
      <trkpt lat="45.84712" lon="4.80838">
        <ele>467</ele>
        <time>2012-01-29T09:35:05Z</time>
      </trkpt>
      <trkpt lat="45.84721" lon="4.80831">
        <ele>471</ele>
        <time>2012-01-29T09:35:09Z</time>
      </trkpt>
      <trkpt lat="45.84723" lon="4.80829">
        <ele>471</ele>
        <time>2012-01-29T09:35:10Z</time>
      </trkpt>
      <trkpt lat="45.84738" lon="4.80824">
        <ele>470</ele>
        <time>2012-01-29T09:35:16Z</time>
      </trkpt>
      <trkpt lat="45.84748" lon="4.80824">
        <ele>470</ele>
        <time>2012-01-29T09:35:21Z</time>
      </trkpt>
      <trkpt lat="45.84755" lon="4.80824">
        <ele>471</ele>
        <time>2012-01-29T09:35:24Z</time>
      </trkpt>
      <trkpt lat="45.84758" lon="4.80825">
        <ele>471</ele>
        <time>2012-01-29T09:35:26Z</time>
      </trkpt>
      <trkpt lat="45.84766" lon="4.80828">
        <ele>472</ele>
        <time>2012-01-29T09:35:33Z</time>
      </trkpt>
      <trkpt lat="45.84766" lon="4.8083">
        <ele>472</ele>
        <time>2012-01-29T09:35:35Z</time>
      </trkpt>
      <trkpt lat="45.84765" lon="4.80831">
        <ele>472</ele>
        <time>2012-01-29T09:35:38Z</time>
      </trkpt>
      <trkpt lat="45.84765" lon="4.80833">
        <ele>471</ele>
        <time>2012-01-29T09:35:42Z</time>
      </trkpt>
      <trkpt lat="45.84764" lon="4.80837">
        <ele>469</ele>
        <time>2012-01-29T09:35:47Z</time>
      </trkpt>
      <trkpt lat="45.84763" lon="4.80844">
        <ele>469</ele>
        <time>2012-01-29T09:35:53Z</time>
      </trkpt>
      <trkpt lat="45.84763" lon="4.80844">
        <ele>469</ele>
        <time>2012-01-29T09:35:54Z</time>
      </trkpt>
      <trkpt lat="45.84762" lon="4.80853">
        <ele>469</ele>
        <time>2012-01-29T09:36:01Z</time>
      </trkpt>
      <trkpt lat="45.8476" lon="4.80855">
        <ele>469</ele>
        <time>2012-01-29T09:36:02Z</time>
      </trkpt>
      <trkpt lat="45.84757" lon="4.80861">
        <ele>468</ele>
        <time>2012-01-29T09:36:07Z</time>
      </trkpt>
      <trkpt lat="45.84757" lon="4.80867">
        <ele>468</ele>
        <time>2012-01-29T09:36:18Z</time>
      </trkpt>
      <trkpt lat="45.84757" lon="4.80868">
        <ele>468</ele>
        <time>2012-01-29T09:36:26Z</time>
      </trkpt>
      <trkpt lat="45.84753" lon="4.80863">
        <ele>468</ele>
        <time>2012-01-29T09:36:49Z</time>
      </trkpt>
      <trkpt lat="45.84753" lon="4.80858">
        <ele>468</ele>
        <time>2012-01-29T09:36:55Z</time>
      </trkpt>
      <trkpt lat="45.84752" lon="4.80854">
        <ele>468</ele>
        <time>2012-01-29T09:36:59Z</time>
      </trkpt>
      <trkpt lat="45.84752" lon="4.80852">
        <ele>468</ele>
        <time>2012-01-29T09:37:01Z</time>
      </trkpt>
      <trkpt lat="45.84753" lon="4.80847">
        <ele>468</ele>
        <time>2012-01-29T09:37:06Z</time>
      </trkpt>
      <trkpt lat="45.84754" lon="4.80846">
        <ele>468</ele>
        <time>2012-01-29T09:37:07Z</time>
      </trkpt>
      <trkpt lat="45.84754" lon="4.80845">
        <ele>468</ele>
        <time>2012-01-29T09:37:08Z</time>
      </trkpt>
      <trkpt lat="45.84757" lon="4.80841">
        <ele>468</ele>
        <time>2012-01-29T09:37:12Z</time>
      </trkpt>
      <trkpt lat="45.84758" lon="4.8084">
        <ele>468</ele>
        <time>2012-01-29T09:37:14Z</time>
      </trkpt>
      <trkpt lat="45.84758" lon="4.80839">
        <ele>468</ele>
        <time>2012-01-29T09:37:15Z</time>
      </trkpt>
      <trkpt lat="45.84757" lon="4.80834">
        <ele>468</ele>
        <time>2012-01-29T09:37:18Z</time>
      </trkpt>
      <trkpt lat="45.84758" lon="4.80832">
        <ele>470</ele>
        <time>2012-01-29T09:37:20Z</time>
      </trkpt>
      <trkpt lat="45.8476" lon="4.8083">
        <ele>471</ele>
        <time>2012-01-29T09:37:22Z</time>
      </trkpt>
      <trkpt lat="45.8476" lon="4.80829">
        <ele>471</ele>
        <time>2012-01-29T09:37:23Z</time>
      </trkpt>
      <trkpt lat="45.84758" lon="4.80826">
        <ele>471</ele>
        <time>2012-01-29T09:37:42Z</time>
      </trkpt>
      <trkpt lat="45.84758" lon="4.80826">
        <ele>471</ele>
        <time>2012-01-29T09:37:48Z</time>
      </trkpt>
      <trkpt lat="45.84762" lon="4.80824">
        <ele>472</ele>
        <time>2012-01-29T09:37:55Z</time>
      </trkpt>
      <trkpt lat="45.84772" lon="4.8083">
        <ele>473</ele>
        <time>2012-01-29T09:38:00Z</time>
      </trkpt>
      <trkpt lat="45.84776" lon="4.80833">
        <ele>470</ele>
        <time>2012-01-29T09:38:02Z</time>
      </trkpt>
      <trkpt lat="45.84781" lon="4.80839">
        <ele>470</ele>
        <time>2012-01-29T09:38:05Z</time>
      </trkpt>
      <trkpt lat="45.84788" lon="4.80853">
        <ele>470</ele>
        <time>2012-01-29T09:38:11Z</time>
      </trkpt>
      <trkpt lat="45.84789" lon="4.80855">
        <ele>470</ele>
        <time>2012-01-29T09:38:12Z</time>
      </trkpt>
      <trkpt lat="45.84792" lon="4.80864">
        <ele>470</ele>
        <time>2012-01-29T09:38:16Z</time>
      </trkpt>
      <trkpt lat="45.84796" lon="4.80879">
        <ele>470</ele>
        <time>2012-01-29T09:38:22Z</time>
      </trkpt>
      <trkpt lat="45.84797" lon="4.80882">
        <ele>470</ele>
        <time>2012-01-29T09:38:23Z</time>
      </trkpt>
      <trkpt lat="45.84798" lon="4.80898">
        <ele>469</ele>
        <time>2012-01-29T09:38:28Z</time>
      </trkpt>
      <trkpt lat="45.84799" lon="4.80909">
        <ele>469</ele>
        <time>2012-01-29T09:38:31Z</time>
      </trkpt>
      <trkpt lat="45.84799" lon="4.80912">
        <ele>469</ele>
        <time>2012-01-29T09:38:32Z</time>
      </trkpt>
      <trkpt lat="45.84801" lon="4.8093">
        <ele>465</ele>
        <time>2012-01-29T09:38:37Z</time>
      </trkpt>
      <trkpt lat="45.84802" lon="4.80937">
        <ele>464</ele>
        <time>2012-01-29T09:38:39Z</time>
      </trkpt>
      <trkpt lat="45.84802" lon="4.80953">
        <ele>464</ele>
        <time>2012-01-29T09:38:43Z</time>
      </trkpt>
      <trkpt lat="45.84802" lon="4.80965">
        <ele>463</ele>
        <time>2012-01-29T09:38:46Z</time>
      </trkpt>
      <trkpt lat="45.84803" lon="4.80972">
        <ele>463</ele>
        <time>2012-01-29T09:38:48Z</time>
      </trkpt>
      <trkpt lat="45.84806" lon="4.8099">
        <ele>463</ele>
        <time>2012-01-29T09:38:54Z</time>
      </trkpt>
      <trkpt lat="45.84807" lon="4.80992">
        <ele>463</ele>
        <time>2012-01-29T09:38:55Z</time>
      </trkpt>
      <trkpt lat="45.84808" lon="4.80998">
        <ele>463</ele>
        <time>2012-01-29T09:38:58Z</time>
      </trkpt>
      <trkpt lat="45.84809" lon="4.81001">
        <ele>459</ele>
        <time>2012-01-29T09:39:00Z</time>
      </trkpt>
      <trkpt lat="45.84813" lon="4.81017">
        <ele>458</ele>
        <time>2012-01-29T09:39:07Z</time>
      </trkpt>
      <trkpt lat="45.84813" lon="4.81019">
        <ele>458</ele>
        <time>2012-01-29T09:39:08Z</time>
      </trkpt>
      <trkpt lat="45.84815" lon="4.81029">
        <ele>457</ele>
        <time>2012-01-29T09:39:14Z</time>
      </trkpt>
      <trkpt lat="45.84816" lon="4.81031">
        <ele>457</ele>
        <time>2012-01-29T09:39:19Z</time>
      </trkpt>
      <trkpt lat="45.84813" lon="4.81023">
        <ele>458</ele>
        <time>2012-01-29T09:39:31Z</time>
      </trkpt>
      <trkpt lat="45.84812" lon="4.81021">
        <ele>458</ele>
        <time>2012-01-29T09:39:32Z</time>
      </trkpt>
      <trkpt lat="45.84808" lon="4.81008">
        <ele>458</ele>
        <time>2012-01-29T09:39:37Z</time>
      </trkpt>
      <trkpt lat="45.84806" lon="4.81003">
        <ele>458</ele>
        <time>2012-01-29T09:39:41Z</time>
      </trkpt>
      <trkpt lat="45.84807" lon="4.81005">
        <ele>458</ele>
        <time>2012-01-29T09:39:45Z</time>
      </trkpt>
      <trkpt lat="45.84809" lon="4.81009">
        <ele>459</ele>
        <time>2012-01-29T09:39:47Z</time>
      </trkpt>
      <trkpt lat="45.84811" lon="4.81011">
        <ele>459</ele>
        <time>2012-01-29T09:39:48Z</time>
      </trkpt>
      <trkpt lat="45.84812" lon="4.81014">
        <ele>459</ele>
        <time>2012-01-29T09:39:49Z</time>
      </trkpt>
      <trkpt lat="45.84814" lon="4.81016">
        <ele>459</ele>
        <time>2012-01-29T09:39:52Z</time>
      </trkpt>
      <trkpt lat="45.84815" lon="4.81015">
        <ele>459</ele>
        <time>2012-01-29T09:39:59Z</time>
      </trkpt>
      <trkpt lat="45.84816" lon="4.81015">
        <ele>459</ele>
        <time>2012-01-29T09:40:01Z</time>
      </trkpt>
      <trkpt lat="45.84821" lon="4.81014">
        <ele>460</ele>
        <time>2012-01-29T09:40:07Z</time>
      </trkpt>
      <trkpt lat="45.84825" lon="4.81017">
        <ele>460</ele>
        <time>2012-01-29T09:40:12Z</time>
      </trkpt>
      <trkpt lat="45.84826" lon="4.81017">
        <ele>460</ele>
        <time>2012-01-29T09:40:13Z</time>
      </trkpt>
      <trkpt lat="45.84831" lon="4.81014">
        <ele>461</ele>
        <time>2012-01-29T09:40:17Z</time>
      </trkpt>
      <trkpt lat="45.84832" lon="4.81013">
        <ele>461</ele>
        <time>2012-01-29T09:40:18Z</time>
      </trkpt>
      <trkpt lat="45.84835" lon="4.8101">
        <ele>465</ele>
        <time>2012-01-29T09:40:21Z</time>
      </trkpt>
      <trkpt lat="45.84836" lon="4.81009">
        <ele>465</ele>
        <time>2012-01-29T09:40:23Z</time>
      </trkpt>
      <trkpt lat="45.84841" lon="4.81004">
        <ele>466</ele>
        <time>2012-01-29T09:40:30Z</time>
      </trkpt>
      <trkpt lat="45.84841" lon="4.81003">
        <ele>466</ele>
        <time>2012-01-29T09:40:31Z</time>
      </trkpt>
      <trkpt lat="45.84844" lon="4.80999">
        <ele>469</ele>
        <time>2012-01-29T09:40:35Z</time>
      </trkpt>
      <trkpt lat="45.84846" lon="4.80998">
        <ele>469</ele>
        <time>2012-01-29T09:40:37Z</time>
      </trkpt>
      <trkpt lat="45.84849" lon="4.80995">
        <ele>470</ele>
        <time>2012-01-29T09:40:42Z</time>
      </trkpt>
      <trkpt lat="45.84851" lon="4.80993">
        <ele>470</ele>
        <time>2012-01-29T09:40:44Z</time>
      </trkpt>
      <trkpt lat="45.84853" lon="4.80991">
        <ele>471</ele>
        <time>2012-01-29T09:40:48Z</time>
      </trkpt>
      <trkpt lat="45.84854" lon="4.8099">
        <ele>471</ele>
        <time>2012-01-29T09:40:49Z</time>
      </trkpt>
      <trkpt lat="45.84856" lon="4.80988">
        <ele>471</ele>
        <time>2012-01-29T09:40:55Z</time>
      </trkpt>
      <trkpt lat="45.84856" lon="4.80985">
        <ele>472</ele>
        <time>2012-01-29T09:41:00Z</time>
      </trkpt>
      <trkpt lat="45.84858" lon="4.80983">
        <ele>472</ele>
        <time>2012-01-29T09:41:04Z</time>
      </trkpt>
      <trkpt lat="45.8486" lon="4.8098">
        <ele>472</ele>
        <time>2012-01-29T09:41:11Z</time>
      </trkpt>
      <trkpt lat="45.8486" lon="4.8097">
        <ele>473</ele>
        <time>2012-01-29T09:41:17Z</time>
      </trkpt>
      <trkpt lat="45.84861" lon="4.80962">
        <ele>473</ele>
        <time>2012-01-29T09:41:20Z</time>
      </trkpt>
      <trkpt lat="45.84862" lon="4.8096">
        <ele>474</ele>
        <time>2012-01-29T09:41:21Z</time>
      </trkpt>
      <trkpt lat="45.84859" lon="4.80956">
        <ele>474</ele>
        <time>2012-01-29T09:41:30Z</time>
      </trkpt>
      <trkpt lat="45.84862" lon="4.80947">
        <ele>474</ele>
        <time>2012-01-29T09:42:00Z</time>
      </trkpt>
      <trkpt lat="45.84867" lon="4.80943">
        <ele>475</ele>
        <time>2012-01-29T09:42:07Z</time>
      </trkpt>
      <trkpt lat="45.84868" lon="4.80942">
        <ele>475</ele>
        <time>2012-01-29T09:42:08Z</time>
      </trkpt>
      <trkpt lat="45.84874" lon="4.80941">
        <ele>475</ele>
        <time>2012-01-29T09:42:14Z</time>
      </trkpt>
      <trkpt lat="45.84881" lon="4.80939">
        <ele>476</ele>
        <time>2012-01-29T09:42:20Z</time>
      </trkpt>
      <trkpt lat="45.84885" lon="4.80938">
        <ele>477</ele>
        <time>2012-01-29T09:42:23Z</time>
      </trkpt>
      <trkpt lat="45.84886" lon="4.80937">
        <ele>477</ele>
        <time>2012-01-29T09:42:26Z</time>
      </trkpt>
      <trkpt lat="45.84886" lon="4.80936">
        <ele>477</ele>
        <time>2012-01-29T09:42:27Z</time>
      </trkpt>
      <trkpt lat="45.84886" lon="4.80934">
        <ele>477</ele>
        <time>2012-01-29T09:42:29Z</time>
      </trkpt>
      <trkpt lat="45.84886" lon="4.80933">
        <ele>477</ele>
        <time>2012-01-29T09:42:31Z</time>
      </trkpt>
      <trkpt lat="45.84887" lon="4.80932">
        <ele>477</ele>
        <time>2012-01-29T09:42:35Z</time>
      </trkpt>
      <trkpt lat="45.84887" lon="4.80927">
        <ele>477</ele>
        <time>2012-01-29T09:42:38Z</time>
      </trkpt>
      <trkpt lat="45.84889" lon="4.80924">
        <ele>478</ele>
        <time>2012-01-29T09:42:41Z</time>
      </trkpt>
      <trkpt lat="45.84894" lon="4.80918">
        <ele>479</ele>
        <time>2012-01-29T09:42:44Z</time>
      </trkpt>
      <trkpt lat="45.84895" lon="4.80917">
        <ele>479</ele>
        <time>2012-01-29T09:42:47Z</time>
      </trkpt>
      <trkpt lat="45.84897" lon="4.80918">
        <ele>480</ele>
        <time>2012-01-29T09:42:49Z</time>
      </trkpt>
      <trkpt lat="45.84901" lon="4.80917">
        <ele>481</ele>
        <time>2012-01-29T09:42:51Z</time>
      </trkpt>
      <trkpt lat="45.84904" lon="4.80916">
        <ele>484</ele>
        <time>2012-01-29T09:42:53Z</time>
      </trkpt>
      <trkpt lat="45.84911" lon="4.80915">
        <ele>485</ele>
        <time>2012-01-29T09:43:00Z</time>
      </trkpt>
      <trkpt lat="45.84913" lon="4.80913">
        <ele>485</ele>
        <time>2012-01-29T09:43:02Z</time>
      </trkpt>
      <trkpt lat="45.84918" lon="4.80913">
        <ele>487</ele>
        <time>2012-01-29T09:43:06Z</time>
      </trkpt>
      <trkpt lat="45.84923" lon="4.80914">
        <ele>487</ele>
        <time>2012-01-29T09:43:11Z</time>
      </trkpt>
      <trkpt lat="45.84927" lon="4.80915">
        <ele>488</ele>
        <time>2012-01-29T09:43:15Z</time>
      </trkpt>
      <trkpt lat="45.84928" lon="4.80914">
        <ele>488</ele>
        <time>2012-01-29T09:43:16Z</time>
      </trkpt>
      <trkpt lat="45.84929" lon="4.80914">
        <ele>488</ele>
        <time>2012-01-29T09:43:17Z</time>
      </trkpt>
      <trkpt lat="45.84932" lon="4.80913">
        <ele>488</ele>
        <time>2012-01-29T09:43:24Z</time>
      </trkpt>
      <trkpt lat="45.84932" lon="4.80913">
        <ele>488</ele>
        <time>2012-01-29T09:43:25Z</time>
      </trkpt>
      <trkpt lat="45.84928" lon="4.80908">
        <ele>488</ele>
        <time>2012-01-29T09:44:20Z</time>
      </trkpt>
      <trkpt lat="45.84933" lon="4.80904">
        <ele>489</ele>
        <time>2012-01-29T09:44:30Z</time>
      </trkpt>
      <trkpt lat="45.84938" lon="4.80902">
        <ele>489</ele>
        <time>2012-01-29T09:44:36Z</time>
      </trkpt>
      <trkpt lat="45.8494" lon="4.80904">
        <ele>489</ele>
        <time>2012-01-29T09:44:38Z</time>
      </trkpt>
      <trkpt lat="45.84943" lon="4.80905">
        <ele>489</ele>
        <time>2012-01-29T09:44:41Z</time>
      </trkpt>
      <trkpt lat="45.8495" lon="4.80896">
        <ele>490</ele>
        <time>2012-01-29T09:44:45Z</time>
      </trkpt>
      <trkpt lat="45.84955" lon="4.80892">
        <ele>490</ele>
        <time>2012-01-29T09:44:48Z</time>
      </trkpt>
      <trkpt lat="45.84957" lon="4.80891">
        <ele>490</ele>
        <time>2012-01-29T09:44:50Z</time>
      </trkpt>
      <trkpt lat="45.84962" lon="4.80886">
        <ele>490</ele>
        <time>2012-01-29T09:44:55Z</time>
      </trkpt>
      <trkpt lat="45.84963" lon="4.80882">
        <ele>490</ele>
        <time>2012-01-29T09:44:58Z</time>
      </trkpt>
      <trkpt lat="45.84964" lon="4.80878">
        <ele>490</ele>
        <time>2012-01-29T09:45:01Z</time>
      </trkpt>
      <trkpt lat="45.84966" lon="4.80872">
        <ele>491</ele>
        <time>2012-01-29T09:45:05Z</time>
      </trkpt>
      <trkpt lat="45.84969" lon="4.8087">
        <ele>491</ele>
        <time>2012-01-29T09:45:07Z</time>
      </trkpt>
      <trkpt lat="45.8498" lon="4.80866">
        <ele>491</ele>
        <time>2012-01-29T09:45:15Z</time>
      </trkpt>
      <trkpt lat="45.84984" lon="4.80863">
        <ele>491</ele>
        <time>2012-01-29T09:45:18Z</time>
      </trkpt>
      <trkpt lat="45.84991" lon="4.8086">
        <ele>492</ele>
        <time>2012-01-29T09:45:23Z</time>
      </trkpt>
      <trkpt lat="45.85001" lon="4.80854">
        <ele>490</ele>
        <time>2012-01-29T09:45:33Z</time>
      </trkpt>
      <trkpt lat="45.85018" lon="4.80848">
        <ele>489</ele>
        <time>2012-01-29T09:45:44Z</time>
      </trkpt>
      <trkpt lat="45.85019" lon="4.80848">
        <ele>489</ele>
        <time>2012-01-29T09:45:45Z</time>
      </trkpt>
      <trkpt lat="45.85021" lon="4.80849">
        <ele>489</ele>
        <time>2012-01-29T09:45:49Z</time>
      </trkpt>
      <trkpt lat="45.85024" lon="4.80847">
        <ele>489</ele>
        <time>2012-01-29T09:46:01Z</time>
      </trkpt>
      <trkpt lat="45.85028" lon="4.80845">
        <ele>488</ele>
        <time>2012-01-29T09:46:06Z</time>
      </trkpt>
      <trkpt lat="45.85034" lon="4.80851">
        <ele>487</ele>
        <time>2012-01-29T09:46:11Z</time>
      </trkpt>
      <trkpt lat="45.85035" lon="4.80855">
        <ele>487</ele>
        <time>2012-01-29T09:46:13Z</time>
      </trkpt>
      <trkpt lat="45.85039" lon="4.8086">
        <ele>487</ele>
        <time>2012-01-29T09:46:16Z</time>
      </trkpt>
      <trkpt lat="45.85045" lon="4.80871">
        <ele>486</ele>
        <time>2012-01-29T09:46:21Z</time>
      </trkpt>
      <trkpt lat="45.85048" lon="4.80875">
        <ele>486</ele>
        <time>2012-01-29T09:46:23Z</time>
      </trkpt>
      <trkpt lat="45.85051" lon="4.8088">
        <ele>486</ele>
        <time>2012-01-29T09:46:25Z</time>
      </trkpt>
      <trkpt lat="45.85058" lon="4.80892">
        <ele>486</ele>
        <time>2012-01-29T09:46:30Z</time>
      </trkpt>
      <trkpt lat="45.85061" lon="4.80898">
        <ele>487</ele>
        <time>2012-01-29T09:46:32Z</time>
      </trkpt>
      <trkpt lat="45.85065" lon="4.80905">
        <ele>487</ele>
        <time>2012-01-29T09:46:35Z</time>
      </trkpt>
      <trkpt lat="45.8507" lon="4.80914">
        <ele>487</ele>
        <time>2012-01-29T09:46:39Z</time>
      </trkpt>
      <trkpt lat="45.85073" lon="4.80918">
        <ele>487</ele>
        <time>2012-01-29T09:46:41Z</time>
      </trkpt>
      <trkpt lat="45.8508" lon="4.8093">
        <ele>487</ele>
        <time>2012-01-29T09:46:47Z</time>
      </trkpt>
      <trkpt lat="45.85082" lon="4.80932">
        <ele>487</ele>
        <time>2012-01-29T09:46:48Z</time>
      </trkpt>
      <trkpt lat="45.85088" lon="4.80938">
        <ele>482</ele>
        <time>2012-01-29T09:46:51Z</time>
      </trkpt>
      <trkpt lat="45.85094" lon="4.80945">
        <ele>481</ele>
        <time>2012-01-29T09:46:55Z</time>
      </trkpt>
      <trkpt lat="45.85103" lon="4.80956">
        <ele>480</ele>
        <time>2012-01-29T09:47:00Z</time>
      </trkpt>
      <trkpt lat="45.85105" lon="4.80958">
        <ele>480</ele>
        <time>2012-01-29T09:47:01Z</time>
      </trkpt>
      <trkpt lat="45.8511" lon="4.80965">
        <ele>479</ele>
        <time>2012-01-29T09:47:05Z</time>
      </trkpt>
      <trkpt lat="45.85111" lon="4.80965">
        <ele>479</ele>
        <time>2012-01-29T09:47:06Z</time>
      </trkpt>
      <trkpt lat="45.85115" lon="4.80969">
        <ele>479</ele>
        <time>2012-01-29T09:47:11Z</time>
      </trkpt>
      <trkpt lat="45.85117" lon="4.80973">
        <ele>479</ele>
        <time>2012-01-29T09:47:14Z</time>
      </trkpt>
      <trkpt lat="45.85121" lon="4.8098">
        <ele>479</ele>
        <time>2012-01-29T09:47:19Z</time>
      </trkpt>
      <trkpt lat="45.85125" lon="4.80985">
        <ele>479</ele>
        <time>2012-01-29T09:47:23Z</time>
      </trkpt>
      <trkpt lat="45.85126" lon="4.80987">
        <ele>479</ele>
        <time>2012-01-29T09:47:25Z</time>
      </trkpt>
      <trkpt lat="45.85131" lon="4.8099">
        <ele>479</ele>
        <time>2012-01-29T09:47:30Z</time>
      </trkpt>
      <trkpt lat="45.85131" lon="4.8099">
        <ele>479</ele>
        <time>2012-01-29T09:47:31Z</time>
      </trkpt>
      <trkpt lat="45.85131" lon="4.80991">
        <ele>479</ele>
        <time>2012-01-29T09:47:32Z</time>
      </trkpt>
      <trkpt lat="45.85135" lon="4.80993">
        <ele>478</ele>
        <time>2012-01-29T09:48:05Z</time>
      </trkpt>
      <trkpt lat="45.85131" lon="4.80991">
        <ele>479</ele>
        <time>2012-01-29T09:48:13Z</time>
      </trkpt>
      <trkpt lat="45.85132" lon="4.80991">
        <ele>479</ele>
        <time>2012-01-29T09:48:21Z</time>
      </trkpt>
      <trkpt lat="45.85135" lon="4.80993">
        <ele>478</ele>
        <time>2012-01-29T09:48:28Z</time>
      </trkpt>
      <trkpt lat="45.85137" lon="4.80996">
        <ele>478</ele>
        <time>2012-01-29T09:48:49Z</time>
      </trkpt>
      <trkpt lat="45.85141" lon="4.80997">
        <ele>478</ele>
        <time>2012-01-29T09:48:51Z</time>
      </trkpt>
      <trkpt lat="45.8515" lon="4.81005">
        <ele>480</ele>
        <time>2012-01-29T09:48:56Z</time>
      </trkpt>
      <trkpt lat="45.85154" lon="4.81009">
        <ele>480</ele>
        <time>2012-01-29T09:48:58Z</time>
      </trkpt>
      <trkpt lat="45.85158" lon="4.81014">
        <ele>480</ele>
        <time>2012-01-29T09:49:00Z</time>
      </trkpt>
      <trkpt lat="45.85164" lon="4.81029">
        <ele>480</ele>
        <time>2012-01-29T09:49:05Z</time>
      </trkpt>
      <trkpt lat="45.85166" lon="4.81032">
        <ele>480</ele>
        <time>2012-01-29T09:49:06Z</time>
      </trkpt>
      <trkpt lat="45.85167" lon="4.81034">
        <ele>472</ele>
        <time>2012-01-29T09:49:07Z</time>
      </trkpt>
      <trkpt lat="45.85172" lon="4.81043">
        <ele>472</ele>
        <time>2012-01-29T09:49:10Z</time>
      </trkpt>
      <trkpt lat="45.85178" lon="4.81052">
        <ele>472</ele>
        <time>2012-01-29T09:49:14Z</time>
      </trkpt>
      <trkpt lat="45.85181" lon="4.81055">
        <ele>472</ele>
        <time>2012-01-29T09:49:16Z</time>
      </trkpt>
      <trkpt lat="45.85184" lon="4.8106">
        <ele>473</ele>
        <time>2012-01-29T09:49:21Z</time>
      </trkpt>
      <trkpt lat="45.85188" lon="4.81066">
        <ele>473</ele>
        <time>2012-01-29T09:49:31Z</time>
      </trkpt>
      <trkpt lat="45.85189" lon="4.81067">
        <ele>473</ele>
        <time>2012-01-29T09:49:32Z</time>
      </trkpt>
      <trkpt lat="45.85191" lon="4.81071">
        <ele>473</ele>
        <time>2012-01-29T09:49:35Z</time>
      </trkpt>
      <trkpt lat="45.85193" lon="4.81074">
        <ele>472</ele>
        <time>2012-01-29T09:49:38Z</time>
      </trkpt>
      <trkpt lat="45.85194" lon="4.81075">
        <ele>472</ele>
        <time>2012-01-29T09:49:39Z</time>
      </trkpt>
      <trkpt lat="45.85194" lon="4.81074">
        <ele>472</ele>
        <time>2012-01-29T09:49:45Z</time>
      </trkpt>
      <trkpt lat="45.85187" lon="4.81065">
        <ele>473</ele>
        <time>2012-01-29T09:49:52Z</time>
      </trkpt>
      <trkpt lat="45.85184" lon="4.81063">
        <ele>473</ele>
        <time>2012-01-29T09:49:57Z</time>
      </trkpt>
      <trkpt lat="45.85182" lon="4.81061">
        <ele>473</ele>
        <time>2012-01-29T09:49:59Z</time>
      </trkpt>
      <trkpt lat="45.85182" lon="4.8106">
        <ele>473</ele>
        <time>2012-01-29T09:50:01Z</time>
      </trkpt>
      <trkpt lat="45.85183" lon="4.81061">
        <ele>473</ele>
        <time>2012-01-29T09:50:02Z</time>
      </trkpt>
      <trkpt lat="45.85185" lon="4.81067">
        <ele>473</ele>
        <time>2012-01-29T09:50:05Z</time>
      </trkpt>
      <trkpt lat="45.85185" lon="4.81072">
        <ele>474</ele>
        <time>2012-01-29T09:50:09Z</time>
      </trkpt>
      <trkpt lat="45.85186" lon="4.81073">
        <ele>474</ele>
        <time>2012-01-29T09:50:10Z</time>
      </trkpt>
      <trkpt lat="45.85187" lon="4.81078">
        <ele>474</ele>
        <time>2012-01-29T09:50:12Z</time>
      </trkpt>
      <trkpt lat="45.85188" lon="4.81088">
        <ele>476</ele>
        <time>2012-01-29T09:50:16Z</time>
      </trkpt>
      <trkpt lat="45.85188" lon="4.8109">
        <ele>476</ele>
        <time>2012-01-29T09:50:17Z</time>
      </trkpt>
      <trkpt lat="45.85186" lon="4.81101">
        <ele>476</ele>
        <time>2012-01-29T09:50:22Z</time>
      </trkpt>
      <trkpt lat="45.85185" lon="4.81103">
        <ele>476</ele>
        <time>2012-01-29T09:50:23Z</time>
      </trkpt>
      <trkpt lat="45.85183" lon="4.81114">
        <ele>475</ele>
        <time>2012-01-29T09:50:28Z</time>
      </trkpt>
      <trkpt lat="45.8518" lon="4.81128">
        <ele>474</ele>
        <time>2012-01-29T09:50:33Z</time>
      </trkpt>
      <trkpt lat="45.8518" lon="4.81132">
        <ele>474</ele>
        <time>2012-01-29T09:50:34Z</time>
      </trkpt>
      <trkpt lat="45.85178" lon="4.81142">
        <ele>474</ele>
        <time>2012-01-29T09:50:39Z</time>
      </trkpt>
      <trkpt lat="45.85174" lon="4.81155">
        <ele>474</ele>
        <time>2012-01-29T09:50:44Z</time>
      </trkpt>
      <trkpt lat="45.85174" lon="4.81158">
        <ele>474</ele>
        <time>2012-01-29T09:50:45Z</time>
      </trkpt>
      <trkpt lat="45.85171" lon="4.81167">
        <ele>474</ele>
        <time>2012-01-29T09:50:49Z</time>
      </trkpt>
      <trkpt lat="45.8517" lon="4.81169">
        <ele>473</ele>
        <time>2012-01-29T09:50:51Z</time>
      </trkpt>
      <trkpt lat="45.8517" lon="4.81173">
        <ele>472</ele>
        <time>2012-01-29T09:50:55Z</time>
      </trkpt>
      <trkpt lat="45.8517" lon="4.81173">
        <ele>472</ele>
        <time>2012-01-29T09:50:56Z</time>
      </trkpt>
      <trkpt lat="45.85165" lon="4.81171">
        <ele>473</ele>
        <time>2012-01-29T09:51:14Z</time>
      </trkpt>
      <trkpt lat="45.85164" lon="4.81171">
        <ele>473</ele>
        <time>2012-01-29T09:51:15Z</time>
      </trkpt>
      <trkpt lat="45.85163" lon="4.81171">
        <ele>472</ele>
        <time>2012-01-29T09:51:20Z</time>
      </trkpt>
      <trkpt lat="45.85166" lon="4.81169">
        <ele>473</ele>
        <time>2012-01-29T09:51:33Z</time>
      </trkpt>
      <trkpt lat="45.85163" lon="4.8117">
        <ele>473</ele>
        <time>2012-01-29T09:51:57Z</time>
      </trkpt>
      <trkpt lat="45.8516" lon="4.81182">
        <ele>470</ele>
        <time>2012-01-29T09:52:01Z</time>
      </trkpt>
      <trkpt lat="45.85159" lon="4.81185">
        <ele>470</ele>
        <time>2012-01-29T09:52:02Z</time>
      </trkpt>
      <trkpt lat="45.85157" lon="4.81194">
        <ele>468</ele>
        <time>2012-01-29T09:52:07Z</time>
      </trkpt>
      <trkpt lat="45.85154" lon="4.81207">
        <ele>467</ele>
        <time>2012-01-29T09:52:11Z</time>
      </trkpt>
      <trkpt lat="45.85154" lon="4.8121">
        <ele>467</ele>
        <time>2012-01-29T09:52:12Z</time>
      </trkpt>
      <trkpt lat="45.85152" lon="4.81217">
        <ele>466</ele>
        <time>2012-01-29T09:52:17Z</time>
      </trkpt>
      <trkpt lat="45.85152" lon="4.8122">
        <ele>465</ele>
        <time>2012-01-29T09:52:20Z</time>
      </trkpt>
      <trkpt lat="45.85154" lon="4.81223">
        <ele>465</ele>
        <time>2012-01-29T09:52:22Z</time>
      </trkpt>
      <trkpt lat="45.85153" lon="4.81233">
        <ele>464</ele>
        <time>2012-01-29T09:52:27Z</time>
      </trkpt>
      <trkpt lat="45.85152" lon="4.81234">
        <ele>464</ele>
        <time>2012-01-29T09:52:31Z</time>
      </trkpt>
      <trkpt lat="45.85154" lon="4.81241">
        <ele>463</ele>
        <time>2012-01-29T09:52:44Z</time>
      </trkpt>
      <trkpt lat="45.85162" lon="4.81243">
        <ele>463</ele>
        <time>2012-01-29T09:52:48Z</time>
      </trkpt>
      <trkpt lat="45.85166" lon="4.81242">
        <ele>462</ele>
        <time>2012-01-29T09:52:52Z</time>
      </trkpt>
      <trkpt lat="45.85168" lon="4.81242">
        <ele>463</ele>
        <time>2012-01-29T09:52:53Z</time>
      </trkpt>
      <trkpt lat="45.85175" lon="4.81243">
        <ele>464</ele>
        <time>2012-01-29T09:52:58Z</time>
      </trkpt>
      <trkpt lat="45.85185" lon="4.81246">
        <ele>465</ele>
        <time>2012-01-29T09:53:03Z</time>
      </trkpt>
      <trkpt lat="45.85187" lon="4.81246">
        <ele>465</ele>
        <time>2012-01-29T09:53:04Z</time>
      </trkpt>
      <trkpt lat="45.85188" lon="4.81248">
        <ele>465</ele>
        <time>2012-01-29T09:53:05Z</time>
      </trkpt>
      <trkpt lat="45.85188" lon="4.81249">
        <ele>465</ele>
        <time>2012-01-29T09:53:07Z</time>
      </trkpt>
      <trkpt lat="45.8519" lon="4.81256">
        <ele>461</ele>
        <time>2012-01-29T09:53:16Z</time>
      </trkpt>
      <trkpt lat="45.85187" lon="4.81257">
        <ele>461</ele>
        <time>2012-01-29T09:53:20Z</time>
      </trkpt>
      <trkpt lat="45.85185" lon="4.81258">
        <ele>461</ele>
        <time>2012-01-29T09:53:23Z</time>
      </trkpt>
      <trkpt lat="45.85186" lon="4.81259">
        <ele>461</ele>
        <time>2012-01-29T09:53:26Z</time>
      </trkpt>
      <trkpt lat="45.85185" lon="4.81263">
        <ele>461</ele>
        <time>2012-01-29T09:53:33Z</time>
      </trkpt>
      <trkpt lat="45.85185" lon="4.81268">
        <ele>461</ele>
        <time>2012-01-29T09:53:39Z</time>
      </trkpt>
      <trkpt lat="45.85185" lon="4.81269">
        <ele>461</ele>
        <time>2012-01-29T09:53:40Z</time>
      </trkpt>
      <trkpt lat="45.85184" lon="4.81271">
        <ele>461</ele>
        <time>2012-01-29T09:53:46Z</time>
      </trkpt>
      <trkpt lat="45.85182" lon="4.81272">
        <ele>461</ele>
        <time>2012-01-29T09:53:51Z</time>
      </trkpt>
      <trkpt lat="45.85177" lon="4.81272">
        <ele>461</ele>
        <time>2012-01-29T09:54:02Z</time>
      </trkpt>
      <trkpt lat="45.85173" lon="4.81271">
        <ele>461</ele>
        <time>2012-01-29T09:54:05Z</time>
      </trkpt>
      <trkpt lat="45.85171" lon="4.81269">
        <ele>461</ele>
        <time>2012-01-29T09:54:07Z</time>
      </trkpt>
      <trkpt lat="45.8517" lon="4.81269">
        <ele>461</ele>
        <time>2012-01-29T09:54:08Z</time>
      </trkpt>
      <trkpt lat="45.85169" lon="4.81269">
        <ele>461</ele>
        <time>2012-01-29T09:54:10Z</time>
      </trkpt>
      <trkpt lat="45.85166" lon="4.81268">
        <ele>457</ele>
        <time>2012-01-29T09:54:13Z</time>
      </trkpt>
      <trkpt lat="45.85162" lon="4.8127">
        <ele>457</ele>
        <time>2012-01-29T09:54:20Z</time>
      </trkpt>
      <trkpt lat="45.85159" lon="4.81271">
        <ele>456</ele>
        <time>2012-01-29T09:54:23Z</time>
      </trkpt>
      <trkpt lat="45.85159" lon="4.81272">
        <ele>456</ele>
        <time>2012-01-29T09:54:26Z</time>
      </trkpt>
      <trkpt lat="45.85159" lon="4.81276">
        <ele>456</ele>
        <time>2012-01-29T09:54:29Z</time>
      </trkpt>
      <trkpt lat="45.85158" lon="4.81279">
        <ele>455</ele>
        <time>2012-01-29T09:54:31Z</time>
      </trkpt>
      <trkpt lat="45.85157" lon="4.8128">
        <ele>455</ele>
        <time>2012-01-29T09:54:33Z</time>
      </trkpt>
      <trkpt lat="45.85157" lon="4.81281">
        <ele>455</ele>
        <time>2012-01-29T09:54:34Z</time>
      </trkpt>
      <trkpt lat="45.85155" lon="4.81283">
        <ele>455</ele>
        <time>2012-01-29T09:54:36Z</time>
      </trkpt>
      <trkpt lat="45.85149" lon="4.81289">
        <ele>454</ele>
        <time>2012-01-29T09:54:43Z</time>
      </trkpt>
      <trkpt lat="45.85148" lon="4.81289">
        <ele>454</ele>
        <time>2012-01-29T09:54:44Z</time>
      </trkpt>
      <trkpt lat="45.85144" lon="4.8129">
        <ele>454</ele>
        <time>2012-01-29T09:54:48Z</time>
      </trkpt>
      <trkpt lat="45.85144" lon="4.8129">
        <ele>454</ele>
        <time>2012-01-29T09:54:49Z</time>
      </trkpt>
      <trkpt lat="45.85141" lon="4.81293">
        <ele>453</ele>
        <time>2012-01-29T09:54:55Z</time>
      </trkpt>
      <trkpt lat="45.85141" lon="4.81293">
        <ele>453</ele>
        <time>2012-01-29T09:54:56Z</time>
      </trkpt>
      <trkpt lat="45.85138" lon="4.813">
        <ele>453</ele>
        <time>2012-01-29T09:55:01Z</time>
      </trkpt>
      <trkpt lat="45.85134" lon="4.81307">
        <ele>452</ele>
        <time>2012-01-29T09:55:05Z</time>
      </trkpt>
      <trkpt lat="45.85134" lon="4.81308">
        <ele>452</ele>
        <time>2012-01-29T09:55:06Z</time>
      </trkpt>
      <trkpt lat="45.8513" lon="4.81316">
        <ele>451</ele>
        <time>2012-01-29T09:55:10Z</time>
      </trkpt>
      <trkpt lat="45.8513" lon="4.81319">
        <ele>451</ele>
        <time>2012-01-29T09:55:11Z</time>
      </trkpt>
      <trkpt lat="45.85129" lon="4.81326">
        <ele>451</ele>
        <time>2012-01-29T09:55:15Z</time>
      </trkpt>
      <trkpt lat="45.85129" lon="4.81328">
        <ele>451</ele>
        <time>2012-01-29T09:55:17Z</time>
      </trkpt>
      <trkpt lat="45.85129" lon="4.8134">
        <ele>446</ele>
        <time>2012-01-29T09:55:23Z</time>
      </trkpt>
      <trkpt lat="45.85128" lon="4.81342">
        <ele>445</ele>
        <time>2012-01-29T09:55:24Z</time>
      </trkpt>
      <trkpt lat="45.85125" lon="4.81357">
        <ele>445</ele>
        <time>2012-01-29T09:55:32Z</time>
      </trkpt>
      <trkpt lat="45.85122" lon="4.81366">
        <ele>444</ele>
        <time>2012-01-29T09:55:37Z</time>
      </trkpt>
      <trkpt lat="45.85121" lon="4.81368">
        <ele>444</ele>
        <time>2012-01-29T09:55:38Z</time>
      </trkpt>
      <trkpt lat="45.85114" lon="4.81385">
        <ele>443</ele>
        <time>2012-01-29T09:55:46Z</time>
      </trkpt>
      <trkpt lat="45.85112" lon="4.81388">
        <ele>443</ele>
        <time>2012-01-29T09:55:47Z</time>
      </trkpt>
      <trkpt lat="45.85105" lon="4.81404">
        <ele>440</ele>
        <time>2012-01-29T09:55:52Z</time>
      </trkpt>
      <trkpt lat="45.85102" lon="4.81411">
        <ele>439</ele>
        <time>2012-01-29T09:55:54Z</time>
      </trkpt>
      <trkpt lat="45.85097" lon="4.81426">
        <ele>438</ele>
        <time>2012-01-29T09:55:58Z</time>
      </trkpt>
      <trkpt lat="45.85095" lon="4.81432">
        <ele>438</ele>
        <time>2012-01-29T09:56:00Z</time>
      </trkpt>
      <trkpt lat="45.85093" lon="4.81437">
        <ele>438</ele>
        <time>2012-01-29T09:56:02Z</time>
      </trkpt>
      <trkpt lat="45.85089" lon="4.81456">
        <ele>439</ele>
        <time>2012-01-29T09:56:07Z</time>
      </trkpt>
      <trkpt lat="45.85088" lon="4.81465">
        <ele>439</ele>
        <time>2012-01-29T09:56:09Z</time>
      </trkpt>
      <trkpt lat="45.85086" lon="4.81477">
        <ele>438</ele>
        <time>2012-01-29T09:56:12Z</time>
      </trkpt>
      <trkpt lat="45.85083" lon="4.81492">
        <ele>430</ele>
        <time>2012-01-29T09:56:16Z</time>
      </trkpt>
      <trkpt lat="45.85082" lon="4.81496">
        <ele>431</ele>
        <time>2012-01-29T09:56:17Z</time>
      </trkpt>
      <trkpt lat="45.85079" lon="4.81518">
        <ele>427</ele>
        <time>2012-01-29T09:56:24Z</time>
      </trkpt>
      <trkpt lat="45.85079" lon="4.8152">
        <ele>427</ele>
        <time>2012-01-29T09:56:25Z</time>
      </trkpt>
      <trkpt lat="45.85076" lon="4.81538">
        <ele>426</ele>
        <time>2012-01-29T09:56:31Z</time>
      </trkpt>
      <trkpt lat="45.85075" lon="4.81543">
        <ele>426</ele>
        <time>2012-01-29T09:56:33Z</time>
      </trkpt>
      <trkpt lat="45.85074" lon="4.81543">
        <ele>426</ele>
        <time>2012-01-29T09:56:35Z</time>
      </trkpt>
      <trkpt lat="45.85073" lon="4.81542">
        <ele>426</ele>
        <time>2012-01-29T09:56:38Z</time>
      </trkpt>
      <trkpt lat="45.8507" lon="4.8154">
        <ele>425</ele>
        <time>2012-01-29T09:56:41Z</time>
      </trkpt>
      <trkpt lat="45.85069" lon="4.8154">
        <ele>425</ele>
        <time>2012-01-29T09:56:43Z</time>
      </trkpt>
      <trkpt lat="45.85066" lon="4.81538">
        <ele>425</ele>
        <time>2012-01-29T09:56:46Z</time>
      </trkpt>
      <trkpt lat="45.85062" lon="4.81538">
        <ele>424</ele>
        <time>2012-01-29T09:56:52Z</time>
      </trkpt>
      <trkpt lat="45.85059" lon="4.81537">
        <ele>424</ele>
        <time>2012-01-29T09:56:58Z</time>
      </trkpt>
      <trkpt lat="45.85056" lon="4.81535">
        <ele>424</ele>
        <time>2012-01-29T09:57:04Z</time>
      </trkpt>
      <trkpt lat="45.85055" lon="4.81535">
        <ele>424</ele>
        <time>2012-01-29T09:57:05Z</time>
      </trkpt>
      <trkpt lat="45.85053" lon="4.81538">
        <ele>423</ele>
        <time>2012-01-29T09:57:09Z</time>
      </trkpt>
      <trkpt lat="45.85051" lon="4.81541">
        <ele>423</ele>
        <time>2012-01-29T09:57:12Z</time>
      </trkpt>
      <trkpt lat="45.8505" lon="4.81545">
        <ele>423</ele>
        <time>2012-01-29T09:57:14Z</time>
      </trkpt>
      <trkpt lat="45.85049" lon="4.8155">
        <ele>423</ele>
        <time>2012-01-29T09:57:17Z</time>
      </trkpt>
      <trkpt lat="45.85048" lon="4.81556">
        <ele>423</ele>
        <time>2012-01-29T09:57:20Z</time>
      </trkpt>
      <trkpt lat="45.85047" lon="4.81558">
        <ele>423</ele>
        <time>2012-01-29T09:57:21Z</time>
      </trkpt>
      <trkpt lat="45.85045" lon="4.81558">
        <ele>422</ele>
        <time>2012-01-29T09:57:27Z</time>
      </trkpt>
      <trkpt lat="45.85044" lon="4.81557">
        <ele>422</ele>
        <time>2012-01-29T09:57:29Z</time>
      </trkpt>
      <trkpt lat="45.85041" lon="4.81554">
        <ele>422</ele>
        <time>2012-01-29T09:57:32Z</time>
      </trkpt>
      <trkpt lat="45.8504" lon="4.81553">
        <ele>421</ele>
        <time>2012-01-29T09:57:34Z</time>
      </trkpt>
      <trkpt lat="45.85037" lon="4.81555">
        <ele>421</ele>
        <time>2012-01-29T09:57:37Z</time>
      </trkpt>
      <trkpt lat="45.85034" lon="4.81561">
        <ele>420</ele>
        <time>2012-01-29T09:57:41Z</time>
      </trkpt>
      <trkpt lat="45.85031" lon="4.81563">
        <ele>419</ele>
        <time>2012-01-29T09:57:43Z</time>
      </trkpt>
      <trkpt lat="45.85027" lon="4.81568">
        <ele>418</ele>
        <time>2012-01-29T09:57:47Z</time>
      </trkpt>
      <trkpt lat="45.85027" lon="4.81569">
        <ele>418</ele>
        <time>2012-01-29T09:57:49Z</time>
      </trkpt>
      <trkpt lat="45.85024" lon="4.81572">
        <ele>417</ele>
        <time>2012-01-29T09:57:52Z</time>
      </trkpt>
      <trkpt lat="45.85024" lon="4.81573">
        <ele>417</ele>
        <time>2012-01-29T09:57:53Z</time>
      </trkpt>
      <trkpt lat="45.85023" lon="4.81575">
        <ele>416</ele>
        <time>2012-01-29T09:57:59Z</time>
      </trkpt>
      <trkpt lat="45.85022" lon="4.81573">
        <ele>416</ele>
        <time>2012-01-29T09:58:05Z</time>
      </trkpt>
      <trkpt lat="45.85024" lon="4.81571">
        <ele>417</ele>
        <time>2012-01-29T09:58:30Z</time>
      </trkpt>
      <trkpt lat="45.85024" lon="4.81571">
        <ele>417</ele>
        <time>2012-01-29T09:58:33Z</time>
      </trkpt>
      <trkpt lat="45.85022" lon="4.81577">
        <ele>416</ele>
        <time>2012-01-29T10:02:16Z</time>
      </trkpt>
      <trkpt lat="45.85019" lon="4.81583">
        <ele>415</ele>
        <time>2012-01-29T10:02:22Z</time>
      </trkpt>
      <trkpt lat="45.85019" lon="4.81584">
        <ele>413</ele>
        <time>2012-01-29T10:02:23Z</time>
      </trkpt>
      <trkpt lat="45.85019" lon="4.81584">
        <ele>413</ele>
        <time>2012-01-29T10:02:30Z</time>
      </trkpt>
      <trkpt lat="45.85018" lon="4.81587">
        <ele>413</ele>
        <time>2012-01-29T10:03:30Z</time>
      </trkpt>
      <trkpt lat="45.85017" lon="4.81587">
        <ele>413</ele>
        <time>2012-01-29T10:03:31Z</time>
      </trkpt>
      <trkpt lat="45.85016" lon="4.81587">
        <ele>413</ele>
        <time>2012-01-29T10:03:32Z</time>
      </trkpt>
      <trkpt lat="45.85014" lon="4.81585">
        <ele>412</ele>
        <time>2012-01-29T10:03:36Z</time>
      </trkpt>
      <trkpt lat="45.85007" lon="4.81583">
        <ele>410</ele>
        <time>2012-01-29T10:03:42Z</time>
      </trkpt>
      <trkpt lat="45.85006" lon="4.81582">
        <ele>409</ele>
        <time>2012-01-29T10:03:43Z</time>
      </trkpt>
      <trkpt lat="45.85005" lon="4.81582">
        <ele>409</ele>
        <time>2012-01-29T10:03:44Z</time>
      </trkpt>
      <trkpt lat="45.85002" lon="4.8158">
        <ele>408</ele>
        <time>2012-01-29T10:03:49Z</time>
      </trkpt>
      <trkpt lat="45.85" lon="4.81579">
        <ele>408</ele>
        <time>2012-01-29T10:03:50Z</time>
      </trkpt>
      <trkpt lat="45.84994" lon="4.81577">
        <ele>408</ele>
        <time>2012-01-29T10:03:56Z</time>
      </trkpt>
      <trkpt lat="45.84992" lon="4.81578">
        <ele>408</ele>
        <time>2012-01-29T10:03:58Z</time>
      </trkpt>
      <trkpt lat="45.84989" lon="4.81576">
        <ele>408</ele>
        <time>2012-01-29T10:04:02Z</time>
      </trkpt>
      <trkpt lat="45.84987" lon="4.81575">
        <ele>409</ele>
        <time>2012-01-29T10:04:03Z</time>
      </trkpt>
      <trkpt lat="45.84986" lon="4.81574">
        <ele>409</ele>
        <time>2012-01-29T10:04:04Z</time>
      </trkpt>
      <trkpt lat="45.84983" lon="4.81572">
        <ele>409</ele>
        <time>2012-01-29T10:04:08Z</time>
      </trkpt>
      <trkpt lat="45.84975" lon="4.81573">
        <ele>410</ele>
        <time>2012-01-29T10:04:13Z</time>
      </trkpt>
      <trkpt lat="45.84972" lon="4.81571">
        <ele>410</ele>
        <time>2012-01-29T10:04:16Z</time>
      </trkpt>
      <trkpt lat="45.84971" lon="4.81572">
        <ele>410</ele>
        <time>2012-01-29T10:04:18Z</time>
      </trkpt>
      <trkpt lat="45.84969" lon="4.81575">
        <ele>410</ele>
        <time>2012-01-29T10:04:23Z</time>
      </trkpt>
      <trkpt lat="45.84967" lon="4.8158">
        <ele>410</ele>
        <time>2012-01-29T10:04:36Z</time>
      </trkpt>
      <trkpt lat="45.84964" lon="4.81583">
        <ele>410</ele>
        <time>2012-01-29T10:04:42Z</time>
      </trkpt>
      <trkpt lat="45.8496" lon="4.81586">
        <ele>404</ele>
        <time>2012-01-29T10:04:46Z</time>
      </trkpt>
      <trkpt lat="45.84959" lon="4.81587">
        <ele>404</ele>
        <time>2012-01-29T10:04:48Z</time>
      </trkpt>
      <trkpt lat="45.84955" lon="4.81601">
        <ele>403</ele>
        <time>2012-01-29T10:05:22Z</time>
      </trkpt>
      <trkpt lat="45.84952" lon="4.81598">
        <ele>403</ele>
        <time>2012-01-29T10:05:25Z</time>
      </trkpt>
      <trkpt lat="45.84949" lon="4.816">
        <ele>403</ele>
        <time>2012-01-29T10:05:29Z</time>
      </trkpt>
      <trkpt lat="45.84948" lon="4.81601">
        <ele>403</ele>
        <time>2012-01-29T10:05:30Z</time>
      </trkpt>
      <trkpt lat="45.84946" lon="4.81601">
        <ele>403</ele>
        <time>2012-01-29T10:05:34Z</time>
      </trkpt>
      <trkpt lat="45.84944" lon="4.81601">
        <ele>403</ele>
        <time>2012-01-29T10:05:36Z</time>
      </trkpt>
      <trkpt lat="45.84941" lon="4.81601">
        <ele>403</ele>
        <time>2012-01-29T10:05:39Z</time>
      </trkpt>
      <trkpt lat="45.8494" lon="4.816">
        <ele>403</ele>
        <time>2012-01-29T10:05:40Z</time>
      </trkpt>
      <trkpt lat="45.84937" lon="4.81603">
        <ele>403</ele>
        <time>2012-01-29T10:05:45Z</time>
      </trkpt>
      <trkpt lat="45.84929" lon="4.81606">
        <ele>403</ele>
        <time>2012-01-29T10:05:52Z</time>
      </trkpt>
      <trkpt lat="45.84922" lon="4.81611">
        <ele>403</ele>
        <time>2012-01-29T10:05:58Z</time>
      </trkpt>
      <trkpt lat="45.84921" lon="4.81611">
        <ele>403</ele>
        <time>2012-01-29T10:05:59Z</time>
      </trkpt>
      <trkpt lat="45.8492" lon="4.81611">
        <ele>403</ele>
        <time>2012-01-29T10:06:00Z</time>
      </trkpt>
      <trkpt lat="45.84916" lon="4.81611">
        <ele>403</ele>
        <time>2012-01-29T10:06:03Z</time>
      </trkpt>
      <trkpt lat="45.84915" lon="4.81612">
        <ele>403</ele>
        <time>2012-01-29T10:06:04Z</time>
      </trkpt>
      <trkpt lat="45.84907" lon="4.81614">
        <ele>403</ele>
        <time>2012-01-29T10:06:10Z</time>
      </trkpt>
      <trkpt lat="45.84903" lon="4.81614">
        <ele>403</ele>
        <time>2012-01-29T10:06:14Z</time>
      </trkpt>
      <trkpt lat="45.84902" lon="4.81615">
        <ele>403</ele>
        <time>2012-01-29T10:06:16Z</time>
      </trkpt>
      <trkpt lat="45.84902" lon="4.81615">
        <ele>403</ele>
        <time>2012-01-29T10:06:17Z</time>
      </trkpt>
      <trkpt lat="45.84899" lon="4.8162">
        <ele>403</ele>
        <time>2012-01-29T10:06:21Z</time>
      </trkpt>
      <trkpt lat="45.84898" lon="4.8162">
        <ele>403</ele>
        <time>2012-01-29T10:06:22Z</time>
      </trkpt>
      <trkpt lat="45.84889" lon="4.81624">
        <ele>402</ele>
        <time>2012-01-29T10:06:30Z</time>
      </trkpt>
      <trkpt lat="45.84886" lon="4.81625">
        <ele>402</ele>
        <time>2012-01-29T10:06:33Z</time>
      </trkpt>
      <trkpt lat="45.84883" lon="4.81627">
        <ele>402</ele>
        <time>2012-01-29T10:06:36Z</time>
      </trkpt>
      <trkpt lat="45.84875" lon="4.81634">
        <ele>402</ele>
        <time>2012-01-29T10:06:42Z</time>
      </trkpt>
      <trkpt lat="45.8487" lon="4.81641">
        <ele>402</ele>
        <time>2012-01-29T10:06:45Z</time>
      </trkpt>
      <trkpt lat="45.84867" lon="4.81641">
        <ele>402</ele>
        <time>2012-01-29T10:06:47Z</time>
      </trkpt>
      <trkpt lat="45.84859" lon="4.81637">
        <ele>402</ele>
        <time>2012-01-29T10:06:54Z</time>
      </trkpt>
      <trkpt lat="45.84857" lon="4.81637">
        <ele>402</ele>
        <time>2012-01-29T10:06:56Z</time>
      </trkpt>
      <trkpt lat="45.84853" lon="4.81636">
        <ele>402</ele>
        <time>2012-01-29T10:06:59Z</time>
      </trkpt>
      <trkpt lat="45.84852" lon="4.81636">
        <ele>402</ele>
        <time>2012-01-29T10:07:00Z</time>
      </trkpt>
      <trkpt lat="45.84843" lon="4.81634">
        <ele>403</ele>
        <time>2012-01-29T10:07:06Z</time>
      </trkpt>
      <trkpt lat="45.84836" lon="4.81632">
        <ele>403</ele>
        <time>2012-01-29T10:07:12Z</time>
      </trkpt>
      <trkpt lat="45.84834" lon="4.8163">
        <ele>403</ele>
        <time>2012-01-29T10:07:14Z</time>
      </trkpt>
      <trkpt lat="45.84824" lon="4.81632">
        <ele>404</ele>
        <time>2012-01-29T10:07:22Z</time>
      </trkpt>
      <trkpt lat="45.84817" lon="4.81633">
        <ele>404</ele>
        <time>2012-01-29T10:07:29Z</time>
      </trkpt>
      <trkpt lat="45.84815" lon="4.81635">
        <ele>404</ele>
        <time>2012-01-29T10:07:50Z</time>
      </trkpt>
      <trkpt lat="45.84815" lon="4.81633">
        <ele>404</ele>
        <time>2012-01-29T10:07:55Z</time>
      </trkpt>
      <trkpt lat="45.84813" lon="4.81631">
        <ele>405</ele>
        <time>2012-01-29T10:08:27Z</time>
      </trkpt>
      <trkpt lat="45.84812" lon="4.81628">
        <ele>405</ele>
        <time>2012-01-29T10:08:29Z</time>
      </trkpt>
      <trkpt lat="45.8481" lon="4.8162">
        <ele>406</ele>
        <time>2012-01-29T10:08:36Z</time>
      </trkpt>
      <trkpt lat="45.84808" lon="4.81616">
        <ele>406</ele>
        <time>2012-01-29T10:08:40Z</time>
      </trkpt>
      <trkpt lat="45.84808" lon="4.81615">
        <ele>406</ele>
        <time>2012-01-29T10:08:44Z</time>
      </trkpt>
      <trkpt lat="45.84806" lon="4.81615">
        <ele>406</ele>
        <time>2012-01-29T10:08:49Z</time>
      </trkpt>
      <trkpt lat="45.84802" lon="4.81614">
        <ele>406</ele>
        <time>2012-01-29T10:08:52Z</time>
      </trkpt>
      <trkpt lat="45.84791" lon="4.81613">
        <ele>406</ele>
        <time>2012-01-29T10:08:59Z</time>
      </trkpt>
      <trkpt lat="45.84788" lon="4.81612">
        <ele>406</ele>
        <time>2012-01-29T10:09:02Z</time>
      </trkpt>
      <trkpt lat="45.8478" lon="4.81612">
        <ele>406</ele>
        <time>2012-01-29T10:09:07Z</time>
      </trkpt>
      <trkpt lat="45.84775" lon="4.81604">
        <ele>406</ele>
        <time>2012-01-29T10:09:13Z</time>
      </trkpt>
      <trkpt lat="45.84773" lon="4.81602">
        <ele>406</ele>
        <time>2012-01-29T10:09:15Z</time>
      </trkpt>
      <trkpt lat="45.84766" lon="4.81598">
        <ele>407</ele>
        <time>2012-01-29T10:09:21Z</time>
      </trkpt>
      <trkpt lat="45.84759" lon="4.81594">
        <ele>407</ele>
        <time>2012-01-29T10:09:27Z</time>
      </trkpt>
      <trkpt lat="45.84756" lon="4.81593">
        <ele>408</ele>
        <time>2012-01-29T10:09:29Z</time>
      </trkpt>
      <trkpt lat="45.84753" lon="4.8159">
        <ele>408</ele>
        <time>2012-01-29T10:09:32Z</time>
      </trkpt>
      <trkpt lat="45.84746" lon="4.81582">
        <ele>407</ele>
        <time>2012-01-29T10:09:39Z</time>
      </trkpt>
      <trkpt lat="45.8474" lon="4.81578">
        <ele>403</ele>
        <time>2012-01-29T10:09:44Z</time>
      </trkpt>
      <trkpt lat="45.84737" lon="4.81576">
        <ele>402</ele>
        <time>2012-01-29T10:09:47Z</time>
      </trkpt>
      <trkpt lat="45.84732" lon="4.81575">
        <ele>400</ele>
        <time>2012-01-29T10:09:53Z</time>
      </trkpt>
      <trkpt lat="45.84727" lon="4.81574">
        <ele>399</ele>
        <time>2012-01-29T10:10:05Z</time>
      </trkpt>
      <trkpt lat="45.84722" lon="4.81571">
        <ele>397</ele>
        <time>2012-01-29T10:10:10Z</time>
      </trkpt>
      <trkpt lat="45.84721" lon="4.81569">
        <ele>397</ele>
        <time>2012-01-29T10:10:11Z</time>
      </trkpt>
      <trkpt lat="45.84714" lon="4.81566">
        <ele>395</ele>
        <time>2012-01-29T10:10:17Z</time>
      </trkpt>
      <trkpt lat="45.84711" lon="4.81563">
        <ele>394</ele>
        <time>2012-01-29T10:10:20Z</time>
      </trkpt>
      <trkpt lat="45.84711" lon="4.81563">
        <ele>394</ele>
        <time>2012-01-29T10:10:21Z</time>
      </trkpt>
      <trkpt lat="45.8471" lon="4.81562">
        <ele>394</ele>
        <time>2012-01-29T10:10:22Z</time>
      </trkpt>
      <trkpt lat="45.84707" lon="4.81557">
        <ele>393</ele>
        <time>2012-01-29T10:10:25Z</time>
      </trkpt>
      <trkpt lat="45.84706" lon="4.81554">
        <ele>393</ele>
        <time>2012-01-29T10:10:27Z</time>
      </trkpt>
      <trkpt lat="45.84704" lon="4.81551">
        <ele>392</ele>
        <time>2012-01-29T10:10:30Z</time>
      </trkpt>
      <trkpt lat="45.84703" lon="4.8155">
        <ele>392</ele>
        <time>2012-01-29T10:10:31Z</time>
      </trkpt>
      <trkpt lat="45.84703" lon="4.8155">
        <ele>392</ele>
        <time>2012-01-29T10:10:32Z</time>
      </trkpt>
      <trkpt lat="45.84699" lon="4.81549">
        <ele>392</ele>
        <time>2012-01-29T10:10:36Z</time>
      </trkpt>
      <trkpt lat="45.84698" lon="4.81547">
        <ele>391</ele>
        <time>2012-01-29T10:10:38Z</time>
      </trkpt>
      <trkpt lat="45.84696" lon="4.8154">
        <ele>391</ele>
        <time>2012-01-29T10:10:41Z</time>
      </trkpt>
      <trkpt lat="45.84695" lon="4.81535">
        <ele>390</ele>
        <time>2012-01-29T10:10:44Z</time>
      </trkpt>
      <trkpt lat="45.84693" lon="4.81531">
        <ele>390</ele>
        <time>2012-01-29T10:10:46Z</time>
      </trkpt>
      <trkpt lat="45.84689" lon="4.81527">
        <ele>389</ele>
        <time>2012-01-29T10:10:50Z</time>
      </trkpt>
      <trkpt lat="45.84688" lon="4.81527">
        <ele>389</ele>
        <time>2012-01-29T10:10:51Z</time>
      </trkpt>
      <trkpt lat="45.84685" lon="4.81523">
        <ele>388</ele>
        <time>2012-01-29T10:10:53Z</time>
      </trkpt>
      <trkpt lat="45.84684" lon="4.81523">
        <ele>387</ele>
        <time>2012-01-29T10:10:54Z</time>
      </trkpt>
      <trkpt lat="45.84684" lon="4.81523">
        <ele>387</ele>
        <time>2012-01-29T10:10:55Z</time>
      </trkpt>
      <trkpt lat="45.84683" lon="4.81523">
        <ele>387</ele>
        <time>2012-01-29T10:10:58Z</time>
      </trkpt>
      <trkpt lat="45.84682" lon="4.81523">
        <ele>387</ele>
        <time>2012-01-29T10:10:59Z</time>
      </trkpt>
      <trkpt lat="45.84681" lon="4.81523">
        <ele>387</ele>
        <time>2012-01-29T10:11:00Z</time>
      </trkpt>
      <trkpt lat="45.84676" lon="4.81523">
        <ele>386</ele>
        <time>2012-01-29T10:11:05Z</time>
      </trkpt>
      <trkpt lat="45.84674" lon="4.81523">
        <ele>386</ele>
        <time>2012-01-29T10:11:07Z</time>
      </trkpt>
      <trkpt lat="45.84674" lon="4.81524">
        <ele>386</ele>
        <time>2012-01-29T10:11:11Z</time>
      </trkpt>
      <trkpt lat="45.84672" lon="4.81528">
        <ele>386</ele>
        <time>2012-01-29T10:11:33Z</time>
      </trkpt>
      <trkpt lat="45.84668" lon="4.81526">
        <ele>386</ele>
        <time>2012-01-29T10:11:36Z</time>
      </trkpt>
      <trkpt lat="45.84668" lon="4.81525">
        <ele>385</ele>
        <time>2012-01-29T10:11:37Z</time>
      </trkpt>
      <trkpt lat="45.84667" lon="4.81525">
        <ele>385</ele>
        <time>2012-01-29T10:11:38Z</time>
      </trkpt>
      <trkpt lat="45.84666" lon="4.81524">
        <ele>366</ele>
        <time>2012-01-29T10:11:39Z</time>
      </trkpt>
      <trkpt lat="45.84664" lon="4.81522">
        <ele>366</ele>
        <time>2012-01-29T10:11:43Z</time>
      </trkpt>
      <trkpt lat="45.84663" lon="4.81519">
        <ele>367</ele>
        <time>2012-01-29T10:11:46Z</time>
      </trkpt>
      <trkpt lat="45.84662" lon="4.81509">
        <ele>369</ele>
        <time>2012-01-29T10:11:53Z</time>
      </trkpt>
      <trkpt lat="45.84662" lon="4.81504">
        <ele>371</ele>
        <time>2012-01-29T10:11:59Z</time>
      </trkpt>
      <trkpt lat="45.84662" lon="4.81502">
        <ele>372</ele>
        <time>2012-01-29T10:12:00Z</time>
      </trkpt>
      <trkpt lat="45.84663" lon="4.81492">
        <ele>370</ele>
        <time>2012-01-29T10:12:06Z</time>
      </trkpt>
      <trkpt lat="45.84663" lon="4.8149">
        <ele>370</ele>
        <time>2012-01-29T10:12:07Z</time>
      </trkpt>
      <trkpt lat="45.84667" lon="4.81484">
        <ele>380</ele>
        <time>2012-01-29T10:12:12Z</time>
      </trkpt>
      <trkpt lat="45.84668" lon="4.81483">
        <ele>380</ele>
        <time>2012-01-29T10:12:13Z</time>
      </trkpt>
      <trkpt lat="45.8467" lon="4.81479">
        <ele>381</ele>
        <time>2012-01-29T10:12:15Z</time>
      </trkpt>
      <trkpt lat="45.84671" lon="4.81475">
        <ele>381</ele>
        <time>2012-01-29T10:12:17Z</time>
      </trkpt>
      <trkpt lat="45.84674" lon="4.81465">
        <ele>382</ele>
        <time>2012-01-29T10:12:23Z</time>
      </trkpt>
      <trkpt lat="45.84676" lon="4.81461">
        <ele>382</ele>
        <time>2012-01-29T10:12:30Z</time>
      </trkpt>
      <trkpt lat="45.84676" lon="4.81457">
        <ele>381</ele>
        <time>2012-01-29T10:12:42Z</time>
      </trkpt>
      <trkpt lat="45.84675" lon="4.81452">
        <ele>381</ele>
        <time>2012-01-29T10:12:47Z</time>
      </trkpt>
      <trkpt lat="45.84673" lon="4.81448">
        <ele>380</ele>
        <time>2012-01-29T10:12:52Z</time>
      </trkpt>
      <trkpt lat="45.84672" lon="4.81447">
        <ele>380</ele>
        <time>2012-01-29T10:12:53Z</time>
      </trkpt>
      <trkpt lat="45.84667" lon="4.81441">
        <ele>379</ele>
        <time>2012-01-29T10:12:58Z</time>
      </trkpt>
      <trkpt lat="45.84667" lon="4.81441">
        <ele>379</ele>
        <time>2012-01-29T10:13:00Z</time>
      </trkpt>
      <trkpt lat="45.84662" lon="4.81438">
        <ele>365</ele>
        <time>2012-01-29T10:13:06Z</time>
      </trkpt>
      <trkpt lat="45.84659" lon="4.81432">
        <ele>365</ele>
        <time>2012-01-29T10:13:38Z</time>
      </trkpt>
      <trkpt lat="45.84658" lon="4.81429">
        <ele>365</ele>
        <time>2012-01-29T10:13:39Z</time>
      </trkpt>
      <trkpt lat="45.84655" lon="4.81418">
        <ele>366</ele>
        <time>2012-01-29T10:13:44Z</time>
      </trkpt>
      <trkpt lat="45.84654" lon="4.81414">
        <ele>371</ele>
        <time>2012-01-29T10:13:47Z</time>
      </trkpt>
      <trkpt lat="45.84654" lon="4.81414">
        <ele>371</ele>
        <time>2012-01-29T10:13:49Z</time>
      </trkpt>
      <trkpt lat="45.84656" lon="4.8142">
        <ele>366</ele>
        <time>2012-01-29T10:13:54Z</time>
      </trkpt>
      <trkpt lat="45.8466" lon="4.81436">
        <ele>365</ele>
        <time>2012-01-29T10:13:57Z</time>
      </trkpt>
      <trkpt lat="45.84658" lon="4.81445">
        <ele>364</ele>
        <time>2012-01-29T10:14:02Z</time>
      </trkpt>
      <trkpt lat="45.84654" lon="4.81449">
        <ele>363</ele>
        <time>2012-01-29T10:14:04Z</time>
      </trkpt>
      <trkpt lat="45.8465" lon="4.81449">
        <ele>363</ele>
        <time>2012-01-29T10:14:07Z</time>
      </trkpt>
      <trkpt lat="45.84646" lon="4.81448">
        <ele>363</ele>
        <time>2012-01-29T10:14:13Z</time>
      </trkpt>
      <trkpt lat="45.84641" lon="4.8145">
        <ele>362</ele>
        <time>2012-01-29T10:14:22Z</time>
      </trkpt>
      <trkpt lat="45.84636" lon="4.81451">
        <ele>361</ele>
        <time>2012-01-29T10:14:25Z</time>
      </trkpt>
      <trkpt lat="45.84626" lon="4.81455">
        <ele>360</ele>
        <time>2012-01-29T10:14:33Z</time>
      </trkpt>
      <trkpt lat="45.84623" lon="4.81456">
        <ele>359</ele>
        <time>2012-01-29T10:14:35Z</time>
      </trkpt>
      <trkpt lat="45.84616" lon="4.81461">
        <ele>358</ele>
        <time>2012-01-29T10:14:39Z</time>
      </trkpt>
      <trkpt lat="45.84613" lon="4.81463">
        <ele>357</ele>
        <time>2012-01-29T10:14:41Z</time>
      </trkpt>
      <trkpt lat="45.84609" lon="4.81469">
        <ele>356</ele>
        <time>2012-01-29T10:14:45Z</time>
      </trkpt>
      <trkpt lat="45.84605" lon="4.81469">
        <ele>355</ele>
        <time>2012-01-29T10:14:48Z</time>
      </trkpt>
      <trkpt lat="45.84602" lon="4.81469">
        <ele>355</ele>
        <time>2012-01-29T10:14:50Z</time>
      </trkpt>
      <trkpt lat="45.846" lon="4.81469">
        <ele>355</ele>
        <time>2012-01-29T10:14:51Z</time>
      </trkpt>
      <trkpt lat="45.84597" lon="4.8147">
        <ele>354</ele>
        <time>2012-01-29T10:14:53Z</time>
      </trkpt>
      <trkpt lat="45.84596" lon="4.81471">
        <ele>354</ele>
        <time>2012-01-29T10:14:54Z</time>
      </trkpt>
      <trkpt lat="45.84589" lon="4.81473">
        <ele>352</ele>
        <time>2012-01-29T10:15:00Z</time>
      </trkpt>
      <trkpt lat="45.84586" lon="4.81474">
        <ele>352</ele>
        <time>2012-01-29T10:15:03Z</time>
      </trkpt>
      <trkpt lat="45.84585" lon="4.81473">
        <ele>352</ele>
        <time>2012-01-29T10:15:05Z</time>
      </trkpt>
      <trkpt lat="45.84584" lon="4.81473">
        <ele>352</ele>
        <time>2012-01-29T10:15:06Z</time>
      </trkpt>
      <trkpt lat="45.84581" lon="4.81474">
        <ele>343</ele>
        <time>2012-01-29T10:15:10Z</time>
      </trkpt>
      <trkpt lat="45.84579" lon="4.81475">
        <ele>343</ele>
        <time>2012-01-29T10:15:12Z</time>
      </trkpt>
      <trkpt lat="45.84577" lon="4.81474">
        <ele>343</ele>
        <time>2012-01-29T10:15:13Z</time>
      </trkpt>
      <trkpt lat="45.84574" lon="4.81473">
        <ele>344</ele>
        <time>2012-01-29T10:15:14Z</time>
      </trkpt>
      <trkpt lat="45.84568" lon="4.81477">
        <ele>343</ele>
        <time>2012-01-29T10:15:20Z</time>
      </trkpt>
      <trkpt lat="45.84568" lon="4.81477">
        <ele>343</ele>
        <time>2012-01-29T10:15:22Z</time>
      </trkpt>
      <trkpt lat="45.84566" lon="4.8148">
        <ele>343</ele>
        <time>2012-01-29T10:15:26Z</time>
      </trkpt>
      <trkpt lat="45.84562" lon="4.81483">
        <ele>343</ele>
        <time>2012-01-29T10:15:31Z</time>
      </trkpt>
      <trkpt lat="45.84561" lon="4.81484">
        <ele>342</ele>
        <time>2012-01-29T10:15:32Z</time>
      </trkpt>
      <trkpt lat="45.84558" lon="4.81486">
        <ele>342</ele>
        <time>2012-01-29T10:15:35Z</time>
      </trkpt>
      <trkpt lat="45.84553" lon="4.81487">
        <ele>342</ele>
        <time>2012-01-29T10:15:40Z</time>
      </trkpt>
      <trkpt lat="45.84552" lon="4.81488">
        <ele>342</ele>
        <time>2012-01-29T10:15:41Z</time>
      </trkpt>
      <trkpt lat="45.84551" lon="4.81489">
        <ele>342</ele>
        <time>2012-01-29T10:15:42Z</time>
      </trkpt>
      <trkpt lat="45.84549" lon="4.81488">
        <ele>342</ele>
        <time>2012-01-29T10:15:44Z</time>
      </trkpt>
      <trkpt lat="45.84547" lon="4.81489">
        <ele>342</ele>
        <time>2012-01-29T10:15:46Z</time>
      </trkpt>
      <trkpt lat="45.84545" lon="4.81491">
        <ele>342</ele>
        <time>2012-01-29T10:15:48Z</time>
      </trkpt>
      <trkpt lat="45.84538" lon="4.81495">
        <ele>341</ele>
        <time>2012-01-29T10:15:54Z</time>
      </trkpt>
      <trkpt lat="45.84536" lon="4.81498">
        <ele>341</ele>
        <time>2012-01-29T10:15:56Z</time>
      </trkpt>
      <trkpt lat="45.84533" lon="4.815">
        <ele>331</ele>
        <time>2012-01-29T10:15:59Z</time>
      </trkpt>
      <trkpt lat="45.84531" lon="4.81499">
        <ele>341</ele>
        <time>2012-01-29T10:16:00Z</time>
      </trkpt>
      <trkpt lat="45.8453" lon="4.81497">
        <ele>341</ele>
        <time>2012-01-29T10:16:04Z</time>
      </trkpt>
      <trkpt lat="45.84531" lon="4.81501">
        <ele>331</ele>
        <time>2012-01-29T10:16:12Z</time>
      </trkpt>
      <trkpt lat="45.8453" lon="4.81507">
        <ele>330</ele>
        <time>2012-01-29T10:16:17Z</time>
      </trkpt>
      <trkpt lat="45.84528" lon="4.81509">
        <ele>330</ele>
        <time>2012-01-29T10:16:18Z</time>
      </trkpt>
      <trkpt lat="45.84525" lon="4.81512">
        <ele>330</ele>
        <time>2012-01-29T10:16:21Z</time>
      </trkpt>
      <trkpt lat="45.84522" lon="4.81516">
        <ele>330</ele>
        <time>2012-01-29T10:16:24Z</time>
      </trkpt>
      <trkpt lat="45.84517" lon="4.8152">
        <ele>329</ele>
        <time>2012-01-29T10:16:28Z</time>
      </trkpt>
      <trkpt lat="45.84512" lon="4.81526">
        <ele>329</ele>
        <time>2012-01-29T10:16:32Z</time>
      </trkpt>
      <trkpt lat="45.84509" lon="4.81526">
        <ele>329</ele>
        <time>2012-01-29T10:16:34Z</time>
      </trkpt>
      <trkpt lat="45.84508" lon="4.81527">
        <ele>329</ele>
        <time>2012-01-29T10:16:35Z</time>
      </trkpt>
      <trkpt lat="45.84505" lon="4.8153">
        <ele>328</ele>
        <time>2012-01-29T10:16:38Z</time>
      </trkpt>
      <trkpt lat="45.84502" lon="4.81534">
        <ele>328</ele>
        <time>2012-01-29T10:16:40Z</time>
      </trkpt>
      <trkpt lat="45.845" lon="4.8154">
        <ele>329</ele>
        <time>2012-01-29T10:16:45Z</time>
      </trkpt>
      <trkpt lat="45.845" lon="4.81546">
        <ele>326</ele>
        <time>2012-01-29T10:16:49Z</time>
      </trkpt>
      <trkpt lat="45.84499" lon="4.81548">
        <ele>328</ele>
        <time>2012-01-29T10:16:50Z</time>
      </trkpt>
      <trkpt lat="45.84495" lon="4.81566">
        <ele>323</ele>
        <time>2012-01-29T10:16:57Z</time>
      </trkpt>
      <trkpt lat="45.84494" lon="4.81571">
        <ele>321</ele>
        <time>2012-01-29T10:17:00Z</time>
      </trkpt>
      <trkpt lat="45.84492" lon="4.81578">
        <ele>319</ele>
        <time>2012-01-29T10:17:03Z</time>
      </trkpt>
      <trkpt lat="45.84489" lon="4.81585">
        <ele>313</ele>
        <time>2012-01-29T10:17:08Z</time>
      </trkpt>
      <trkpt lat="45.84491" lon="4.81584">
        <ele>313</ele>
        <time>2012-01-29T10:17:16Z</time>
      </trkpt>
      <trkpt lat="45.8449" lon="4.81587">
        <ele>313</ele>
        <time>2012-01-29T10:17:20Z</time>
      </trkpt>
      <trkpt lat="45.84488" lon="4.81594">
        <ele>313</ele>
        <time>2012-01-29T10:17:24Z</time>
      </trkpt>
      <trkpt lat="45.84487" lon="4.81596">
        <ele>314</ele>
        <time>2012-01-29T10:17:26Z</time>
      </trkpt>
      <trkpt lat="45.84482" lon="4.81606">
        <ele>314</ele>
        <time>2012-01-29T10:17:31Z</time>
      </trkpt>
      <trkpt lat="45.84481" lon="4.81616">
        <ele>313</ele>
        <time>2012-01-29T10:17:37Z</time>
      </trkpt>
      <trkpt lat="45.84479" lon="4.81627">
        <ele>312</ele>
        <time>2012-01-29T10:17:44Z</time>
      </trkpt>
      <trkpt lat="45.84479" lon="4.81631">
        <ele>311</ele>
        <time>2012-01-29T10:17:48Z</time>
      </trkpt>
      <trkpt lat="45.84479" lon="4.81633">
        <ele>311</ele>
        <time>2012-01-29T10:17:49Z</time>
      </trkpt>
      <trkpt lat="45.8448" lon="4.81637">
        <ele>311</ele>
        <time>2012-01-29T10:17:51Z</time>
      </trkpt>
      <trkpt lat="45.84479" lon="4.81642">
        <ele>310</ele>
        <time>2012-01-29T10:17:54Z</time>
      </trkpt>
      <trkpt lat="45.8448" lon="4.81643">
        <ele>309</ele>
        <time>2012-01-29T10:17:55Z</time>
      </trkpt>
      <trkpt lat="45.84479" lon="4.81654">
        <ele>308</ele>
        <time>2012-01-29T10:18:00Z</time>
      </trkpt>
      <trkpt lat="45.84478" lon="4.81658">
        <ele>307</ele>
        <time>2012-01-29T10:18:02Z</time>
      </trkpt>
      <trkpt lat="45.84476" lon="4.81665">
        <ele>307</ele>
        <time>2012-01-29T10:18:05Z</time>
      </trkpt>
      <trkpt lat="45.84475" lon="4.81666">
        <ele>307</ele>
        <time>2012-01-29T10:18:06Z</time>
      </trkpt>
      <trkpt lat="45.84474" lon="4.81668">
        <ele>298</ele>
        <time>2012-01-29T10:18:08Z</time>
      </trkpt>
      <trkpt lat="45.84472" lon="4.8167">
        <ele>298</ele>
        <time>2012-01-29T10:18:11Z</time>
      </trkpt>
      <trkpt lat="45.84471" lon="4.81673">
        <ele>298</ele>
        <time>2012-01-29T10:18:16Z</time>
      </trkpt>
      <trkpt lat="45.84467" lon="4.81682">
        <ele>298</ele>
        <time>2012-01-29T10:18:22Z</time>
      </trkpt>
      <trkpt lat="45.84465" lon="4.8168">
        <ele>298</ele>
        <time>2012-01-29T10:18:30Z</time>
      </trkpt>
      <trkpt lat="45.84463" lon="4.81686">
        <ele>298</ele>
        <time>2012-01-29T10:18:35Z</time>
      </trkpt>
      <trkpt lat="45.84462" lon="4.81694">
        <ele>297</ele>
        <time>2012-01-29T10:18:42Z</time>
      </trkpt>
      <trkpt lat="45.8446" lon="4.81703">
        <ele>297</ele>
        <time>2012-01-29T10:18:47Z</time>
      </trkpt>
      <trkpt lat="45.84457" lon="4.81711">
        <ele>296</ele>
        <time>2012-01-29T10:18:50Z</time>
      </trkpt>
      <trkpt lat="45.84455" lon="4.81718">
        <ele>295</ele>
        <time>2012-01-29T10:18:53Z</time>
      </trkpt>
      <trkpt lat="45.8445" lon="4.8173">
        <ele>295</ele>
        <time>2012-01-29T10:18:57Z</time>
      </trkpt>
      <trkpt lat="45.84446" lon="4.81735">
        <ele>294</ele>
        <time>2012-01-29T10:18:59Z</time>
      </trkpt>
      <trkpt lat="45.84442" lon="4.81743">
        <ele>294</ele>
        <time>2012-01-29T10:19:02Z</time>
      </trkpt>
      <trkpt lat="45.84433" lon="4.81755">
        <ele>286</ele>
        <time>2012-01-29T10:19:08Z</time>
      </trkpt>
      <trkpt lat="45.84428" lon="4.81761">
        <ele>286</ele>
        <time>2012-01-29T10:19:12Z</time>
      </trkpt>
      <trkpt lat="45.84422" lon="4.8177">
        <ele>285</ele>
        <time>2012-01-29T10:19:17Z</time>
      </trkpt>
      <trkpt lat="45.84418" lon="4.81774">
        <ele>284</ele>
        <time>2012-01-29T10:19:20Z</time>
      </trkpt>
      <trkpt lat="45.84416" lon="4.8178">
        <ele>293</ele>
        <time>2012-01-29T10:19:23Z</time>
      </trkpt>
      <trkpt lat="45.8441" lon="4.81786">
        <ele>293</ele>
        <time>2012-01-29T10:19:27Z</time>
      </trkpt>
      <trkpt lat="45.84406" lon="4.81792">
        <ele>292</ele>
        <time>2012-01-29T10:19:30Z</time>
      </trkpt>
      <trkpt lat="45.84401" lon="4.81801">
        <ele>291</ele>
        <time>2012-01-29T10:19:33Z</time>
      </trkpt>
      <trkpt lat="45.84398" lon="4.81811">
        <ele>290</ele>
        <time>2012-01-29T10:19:39Z</time>
      </trkpt>
      <trkpt lat="45.84397" lon="4.81813">
        <ele>290</ele>
        <time>2012-01-29T10:19:44Z</time>
      </trkpt>
      <trkpt lat="45.84396" lon="4.81814">
        <ele>290</ele>
        <time>2012-01-29T10:19:45Z</time>
      </trkpt>
      <trkpt lat="45.84396" lon="4.81819">
        <ele>289</ele>
        <time>2012-01-29T10:19:48Z</time>
      </trkpt>
      <trkpt lat="45.84395" lon="4.81824">
        <ele>288</ele>
        <time>2012-01-29T10:19:50Z</time>
      </trkpt>
      <trkpt lat="45.84393" lon="4.81827">
        <ele>289</ele>
        <time>2012-01-29T10:19:51Z</time>
      </trkpt>
      <trkpt lat="45.8439" lon="4.81835">
        <ele>283</ele>
        <time>2012-01-29T10:19:54Z</time>
      </trkpt>
      <trkpt lat="45.84389" lon="4.81838">
        <ele>283</ele>
        <time>2012-01-29T10:19:55Z</time>
      </trkpt>
      <trkpt lat="45.84388" lon="4.81843">
        <ele>284</ele>
        <time>2012-01-29T10:19:56Z</time>
      </trkpt>
      <trkpt lat="45.84384" lon="4.81857">
        <ele>284</ele>
        <time>2012-01-29T10:20:01Z</time>
      </trkpt>
      <trkpt lat="45.84385" lon="4.81863">
        <ele>284</ele>
        <time>2012-01-29T10:20:09Z</time>
      </trkpt>
      <trkpt lat="45.84385" lon="4.81865">
        <ele>284</ele>
        <time>2012-01-29T10:20:10Z</time>
      </trkpt>
      <trkpt lat="45.84388" lon="4.81877">
        <ele>283</ele>
        <time>2012-01-29T10:20:14Z</time>
      </trkpt>
      <trkpt lat="45.8439" lon="4.81883">
        <ele>283</ele>
        <time>2012-01-29T10:20:16Z</time>
      </trkpt>
      <trkpt lat="45.84392" lon="4.81891">
        <ele>282</ele>
        <time>2012-01-29T10:20:19Z</time>
      </trkpt>
      <trkpt lat="45.84396" lon="4.81905">
        <ele>279</ele>
        <time>2012-01-29T10:20:25Z</time>
      </trkpt>
      <trkpt lat="45.84398" lon="4.81912">
        <ele>277</ele>
        <time>2012-01-29T10:20:30Z</time>
      </trkpt>
      <trkpt lat="45.844" lon="4.81916">
        <ele>276</ele>
        <time>2012-01-29T10:20:49Z</time>
      </trkpt>
      <trkpt lat="45.844" lon="4.81917">
        <ele>273</ele>
        <time>2012-01-29T10:21:04Z</time>
      </trkpt>
      <trkpt lat="45.84403" lon="4.81926">
        <ele>273</ele>
        <time>2012-01-29T10:21:43Z</time>
      </trkpt>
      <trkpt lat="45.84403" lon="4.81931">
        <ele>273</ele>
        <time>2012-01-29T10:21:49Z</time>
      </trkpt>
      <trkpt lat="45.84403" lon="4.81937">
        <ele>274</ele>
        <time>2012-01-29T10:21:57Z</time>
      </trkpt>
      <trkpt lat="45.84403" lon="4.81943">
        <ele>274</ele>
        <time>2012-01-29T10:21:59Z</time>
      </trkpt>
      <trkpt lat="45.84403" lon="4.81954">
        <ele>274</ele>
        <time>2012-01-29T10:22:03Z</time>
      </trkpt>
      <trkpt lat="45.84402" lon="4.81968">
        <ele>273</ele>
        <time>2012-01-29T10:22:08Z</time>
      </trkpt>
      <trkpt lat="45.84401" lon="4.81971">
        <ele>273</ele>
        <time>2012-01-29T10:22:09Z</time>
      </trkpt>
      <trkpt lat="45.84401" lon="4.81975">
        <ele>272</ele>
        <time>2012-01-29T10:22:11Z</time>
      </trkpt>
      <trkpt lat="45.84399" lon="4.81979">
        <ele>272</ele>
        <time>2012-01-29T10:22:13Z</time>
      </trkpt>
      <trkpt lat="45.84398" lon="4.81982">
        <ele>272</ele>
        <time>2012-01-29T10:22:15Z</time>
      </trkpt>
      <trkpt lat="45.84394" lon="4.8199">
        <ele>272</ele>
        <time>2012-01-29T10:22:20Z</time>
      </trkpt>
      <trkpt lat="45.84392" lon="4.81995">
        <ele>272</ele>
        <time>2012-01-29T10:22:23Z</time>
      </trkpt>
      <trkpt lat="45.84387" lon="4.82006">
        <ele>268</ele>
        <time>2012-01-29T10:22:30Z</time>
      </trkpt>
      <trkpt lat="45.84379" lon="4.82015">
        <ele>270</ele>
        <time>2012-01-29T10:22:37Z</time>
      </trkpt>
      <trkpt lat="45.84377" lon="4.82016">
        <ele>270</ele>
        <time>2012-01-29T10:22:38Z</time>
      </trkpt>
      <trkpt lat="45.8437" lon="4.82022">
        <ele>271</ele>
        <time>2012-01-29T10:22:44Z</time>
      </trkpt>
      <trkpt lat="45.84362" lon="4.82028">
        <ele>272</ele>
        <time>2012-01-29T10:22:51Z</time>
      </trkpt>
      <trkpt lat="45.84359" lon="4.82032">
        <ele>272</ele>
        <time>2012-01-29T10:22:54Z</time>
      </trkpt>
      <trkpt lat="45.8435" lon="4.82039">
        <ele>272</ele>
        <time>2012-01-29T10:23:02Z</time>
      </trkpt>
      <trkpt lat="45.84347" lon="4.82042">
        <ele>273</ele>
        <time>2012-01-29T10:23:06Z</time>
      </trkpt>
      <trkpt lat="45.84343" lon="4.82047">
        <ele>273</ele>
        <time>2012-01-29T10:23:10Z</time>
      </trkpt>
      <trkpt lat="45.84334" lon="4.82056">
        <ele>273</ele>
        <time>2012-01-29T10:23:19Z</time>
      </trkpt>
      <trkpt lat="45.84332" lon="4.82058">
        <ele>284</ele>
        <time>2012-01-29T10:23:21Z</time>
      </trkpt>
      <trkpt lat="45.84324" lon="4.82066">
        <ele>283</ele>
        <time>2012-01-29T10:23:29Z</time>
      </trkpt>
      <trkpt lat="45.84317" lon="4.82074">
        <ele>283</ele>
        <time>2012-01-29T10:23:36Z</time>
      </trkpt>
      <trkpt lat="45.84314" lon="4.82077">
        <ele>283</ele>
        <time>2012-01-29T10:23:38Z</time>
      </trkpt>
      <trkpt lat="45.84305" lon="4.82085">
        <ele>278</ele>
        <time>2012-01-29T10:23:46Z</time>
      </trkpt>
      <trkpt lat="45.84302" lon="4.82087">
        <ele>278</ele>
        <time>2012-01-29T10:23:49Z</time>
      </trkpt>
      <trkpt lat="45.84301" lon="4.82088">
        <ele>279</ele>
        <time>2012-01-29T10:23:50Z</time>
      </trkpt>
      <trkpt lat="45.84297" lon="4.82091">
        <ele>279</ele>
        <time>2012-01-29T10:23:53Z</time>
      </trkpt>
      <trkpt lat="45.84288" lon="4.82099">
        <ele>280</ele>
        <time>2012-01-29T10:24:01Z</time>
      </trkpt>
      <trkpt lat="45.84284" lon="4.82103">
        <ele>280</ele>
        <time>2012-01-29T10:24:04Z</time>
      </trkpt>
      <trkpt lat="45.84277" lon="4.82108">
        <ele>281</ele>
        <time>2012-01-29T10:24:10Z</time>
      </trkpt>
      <trkpt lat="45.84267" lon="4.8211">
        <ele>282</ele>
        <time>2012-01-29T10:24:17Z</time>
      </trkpt>
      <trkpt lat="45.84266" lon="4.8211">
        <ele>282</ele>
        <time>2012-01-29T10:24:18Z</time>
      </trkpt>
      <trkpt lat="45.84254" lon="4.82113">
        <ele>282</ele>
        <time>2012-01-29T10:24:27Z</time>
      </trkpt>
      <trkpt lat="45.84249" lon="4.82115">
        <ele>289</ele>
        <time>2012-01-29T10:24:31Z</time>
      </trkpt>
      <trkpt lat="45.84243" lon="4.82118">
        <ele>289</ele>
        <time>2012-01-29T10:24:36Z</time>
      </trkpt>
      <trkpt lat="45.84231" lon="4.82121">
        <ele>289</ele>
        <time>2012-01-29T10:24:45Z</time>
      </trkpt>
      <trkpt lat="45.8423" lon="4.82122">
        <ele>289</ele>
        <time>2012-01-29T10:24:46Z</time>
      </trkpt>
      <trkpt lat="45.84217" lon="4.8212">
        <ele>290</ele>
        <time>2012-01-29T10:24:55Z</time>
      </trkpt>
      <trkpt lat="45.84213" lon="4.82119">
        <ele>290</ele>
        <time>2012-01-29T10:24:58Z</time>
      </trkpt>
      <trkpt lat="45.84203" lon="4.82117">
        <ele>291</ele>
        <time>2012-01-29T10:25:05Z</time>
      </trkpt>
      <trkpt lat="45.84197" lon="4.82113">
        <ele>291</ele>
        <time>2012-01-29T10:25:10Z</time>
      </trkpt>
      <trkpt lat="45.84195" lon="4.82113">
        <ele>291</ele>
        <time>2012-01-29T10:25:11Z</time>
      </trkpt>
      <trkpt lat="45.84184" lon="4.8211">
        <ele>292</ele>
        <time>2012-01-29T10:25:19Z</time>
      </trkpt>
      <trkpt lat="45.84177" lon="4.82107">
        <ele>293</ele>
        <time>2012-01-29T10:25:24Z</time>
      </trkpt>
      <trkpt lat="45.84172" lon="4.82105">
        <ele>293</ele>
        <time>2012-01-29T10:25:28Z</time>
      </trkpt>
      <trkpt lat="45.8416" lon="4.821">
        <ele>294</ele>
        <time>2012-01-29T10:25:37Z</time>
      </trkpt>
      <trkpt lat="45.84159" lon="4.82099">
        <ele>294</ele>
        <time>2012-01-29T10:25:38Z</time>
      </trkpt>
      <trkpt lat="45.84147" lon="4.82094">
        <ele>294</ele>
        <time>2012-01-29T10:25:47Z</time>
      </trkpt>
      <trkpt lat="45.84141" lon="4.82091">
        <ele>293</ele>
        <time>2012-01-29T10:25:52Z</time>
      </trkpt>
      <trkpt lat="45.84137" lon="4.82089">
        <ele>293</ele>
        <time>2012-01-29T10:25:55Z</time>
      </trkpt>
      <trkpt lat="45.84123" lon="4.82083">
        <ele>299</ele>
        <time>2012-01-29T10:26:05Z</time>
      </trkpt>
      <trkpt lat="45.84115" lon="4.8207">
        <ele>298</ele>
        <time>2012-01-29T10:26:14Z</time>
      </trkpt>
      <trkpt lat="45.84114" lon="4.82069">
        <ele>298</ele>
        <time>2012-01-29T10:26:15Z</time>
      </trkpt>
      <trkpt lat="45.84111" lon="4.8207">
        <ele>298</ele>
        <time>2012-01-29T10:26:19Z</time>
      </trkpt>
      <trkpt lat="45.84109" lon="4.8207">
        <ele>298</ele>
        <time>2012-01-29T10:26:20Z</time>
      </trkpt>
      <trkpt lat="45.84108" lon="4.82069">
        <ele>298</ele>
        <time>2012-01-29T10:26:21Z</time>
      </trkpt>
      <trkpt lat="45.84105" lon="4.82066">
        <ele>298</ele>
        <time>2012-01-29T10:26:24Z</time>
      </trkpt>
      <trkpt lat="45.84101" lon="4.8206">
        <ele>298</ele>
        <time>2012-01-29T10:26:29Z</time>
      </trkpt>
      <trkpt lat="45.841" lon="4.8206">
        <ele>298</ele>
        <time>2012-01-29T10:26:30Z</time>
      </trkpt>
      <trkpt lat="45.84101" lon="4.82061">
        <ele>298</ele>
        <time>2012-01-29T10:26:39Z</time>
      </trkpt>
      <trkpt lat="45.84099" lon="4.8207">
        <ele>297</ele>
        <time>2012-01-29T10:27:02Z</time>
      </trkpt>
      <trkpt lat="45.84098" lon="4.82077">
        <ele>296</ele>
        <time>2012-01-29T10:27:06Z</time>
      </trkpt>
      <trkpt lat="45.84098" lon="4.8208">
        <ele>295</ele>
        <time>2012-01-29T10:27:07Z</time>
      </trkpt>
      <trkpt lat="45.84093" lon="4.82085">
        <ele>291</ele>
        <time>2012-01-29T10:27:11Z</time>
      </trkpt>
      <trkpt lat="45.8409" lon="4.82091">
        <ele>291</ele>
        <time>2012-01-29T10:27:14Z</time>
      </trkpt>
      <trkpt lat="45.8409" lon="4.82092">
        <ele>291</ele>
        <time>2012-01-29T10:27:15Z</time>
      </trkpt>
      <trkpt lat="45.84089" lon="4.82099">
        <ele>290</ele>
        <time>2012-01-29T10:27:19Z</time>
      </trkpt>
      <trkpt lat="45.84088" lon="4.82101">
        <ele>290</ele>
        <time>2012-01-29T10:27:20Z</time>
      </trkpt>
      <trkpt lat="45.84089" lon="4.82105">
        <ele>290</ele>
        <time>2012-01-29T10:27:23Z</time>
      </trkpt>
      <trkpt lat="45.8409" lon="4.82111">
        <ele>290</ele>
        <time>2012-01-29T10:27:26Z</time>
      </trkpt>
      <trkpt lat="45.8409" lon="4.82112">
        <ele>290</ele>
        <time>2012-01-29T10:27:27Z</time>
      </trkpt>
      <trkpt lat="45.84091" lon="4.82115">
        <ele>289</ele>
        <time>2012-01-29T10:27:29Z</time>
      </trkpt>
      <trkpt lat="45.84091" lon="4.82116">
        <ele>289</ele>
        <time>2012-01-29T10:27:30Z</time>
      </trkpt>
      <trkpt lat="45.84091" lon="4.82117">
        <ele>289</ele>
        <time>2012-01-29T10:27:31Z</time>
      </trkpt>
      <trkpt lat="45.8409" lon="4.82119">
        <ele>289</ele>
        <time>2012-01-29T10:27:32Z</time>
      </trkpt>
      <trkpt lat="45.8409" lon="4.8212">
        <ele>289</ele>
        <time>2012-01-29T10:27:36Z</time>
      </trkpt>
      <trkpt lat="45.84091" lon="4.82133">
        <ele>288</ele>
        <time>2012-01-29T10:29:22Z</time>
      </trkpt>
      <trkpt lat="45.84092" lon="4.82139">
        <ele>287</ele>
        <time>2012-01-29T10:29:24Z</time>
      </trkpt>
      <trkpt lat="45.84094" lon="4.82144">
        <ele>287</ele>
        <time>2012-01-29T10:29:29Z</time>
      </trkpt>
      <trkpt lat="45.84094" lon="4.82144">
        <ele>287</ele>
        <time>2012-01-29T10:29:30Z</time>
      </trkpt>
      <trkpt lat="45.84091" lon="4.82139">
        <ele>287</ele>
        <time>2012-01-29T10:29:33Z</time>
      </trkpt>
      <trkpt lat="45.8409" lon="4.82135">
        <ele>288</ele>
        <time>2012-01-29T10:29:35Z</time>
      </trkpt>
      <trkpt lat="45.84088" lon="4.82132">
        <ele>288</ele>
        <time>2012-01-29T10:29:37Z</time>
      </trkpt>
      <trkpt lat="45.84087" lon="4.82129">
        <ele>288</ele>
        <time>2012-01-29T10:29:40Z</time>
      </trkpt>
      <trkpt lat="45.84084" lon="4.82133">
        <ele>288</ele>
        <time>2012-01-29T10:29:44Z</time>
      </trkpt>
      <trkpt lat="45.84084" lon="4.8214">
        <ele>287</ele>
        <time>2012-01-29T10:29:49Z</time>
      </trkpt>
      <trkpt lat="45.84088" lon="4.82145">
        <ele>287</ele>
        <time>2012-01-29T10:29:57Z</time>
      </trkpt>
      <trkpt lat="45.84088" lon="4.82148">
        <ele>286</ele>
        <time>2012-01-29T10:30:00Z</time>
      </trkpt>
      <trkpt lat="45.84088" lon="4.82152">
        <ele>285</ele>
        <time>2012-01-29T10:30:03Z</time>
      </trkpt>
      <trkpt lat="45.84084" lon="4.82161">
        <ele>284</ele>
        <time>2012-01-29T10:30:08Z</time>
      </trkpt>
      <trkpt lat="45.84083" lon="4.82163">
        <ele>281</ele>
        <time>2012-01-29T10:30:09Z</time>
      </trkpt>
      <trkpt lat="45.84082" lon="4.82169">
        <ele>280</ele>
        <time>2012-01-29T10:30:12Z</time>
      </trkpt>
      <trkpt lat="45.84081" lon="4.82174">
        <ele>278</ele>
        <time>2012-01-29T10:30:14Z</time>
      </trkpt>
      <trkpt lat="45.84076" lon="4.8219">
        <ele>272</ele>
        <time>2012-01-29T10:30:19Z</time>
      </trkpt>
      <trkpt lat="45.84073" lon="4.82198">
        <ele>270</ele>
        <time>2012-01-29T10:30:24Z</time>
      </trkpt>
      <trkpt lat="45.84073" lon="4.822">
        <ele>270</ele>
        <time>2012-01-29T10:30:25Z</time>
      </trkpt>
      <trkpt lat="45.84068" lon="4.8221">
        <ele>268</ele>
        <time>2012-01-29T10:30:31Z</time>
      </trkpt>
      <trkpt lat="45.84066" lon="4.82225">
        <ele>268</ele>
        <time>2012-01-29T10:30:36Z</time>
      </trkpt>
      <trkpt lat="45.84064" lon="4.82229">
        <ele>268</ele>
        <time>2012-01-29T10:30:37Z</time>
      </trkpt>
      <trkpt lat="45.8406" lon="4.82245">
        <ele>267</ele>
        <time>2012-01-29T10:30:42Z</time>
      </trkpt>
      <trkpt lat="45.84058" lon="4.8225">
        <ele>267</ele>
        <time>2012-01-29T10:30:44Z</time>
      </trkpt>
      <trkpt lat="45.84054" lon="4.82256">
        <ele>260</ele>
        <time>2012-01-29T10:30:48Z</time>
      </trkpt>
      <trkpt lat="45.84047" lon="4.82265">
        <ele>258</ele>
        <time>2012-01-29T10:30:53Z</time>
      </trkpt>
      <trkpt lat="45.84045" lon="4.82271">
        <ele>258</ele>
        <time>2012-01-29T10:30:55Z</time>
      </trkpt>
      <trkpt lat="45.84042" lon="4.8228">
        <ele>257</ele>
        <time>2012-01-29T10:30:58Z</time>
      </trkpt>
      <trkpt lat="45.8404" lon="4.8229">
        <ele>256</ele>
        <time>2012-01-29T10:31:04Z</time>
      </trkpt>
      <trkpt lat="45.84038" lon="4.82295">
        <ele>255</ele>
        <time>2012-01-29T10:31:07Z</time>
      </trkpt>
      <trkpt lat="45.84038" lon="4.82297">
        <ele>255</ele>
        <time>2012-01-29T10:31:08Z</time>
      </trkpt>
      <trkpt lat="45.84037" lon="4.823">
        <ele>255</ele>
        <time>2012-01-29T10:31:10Z</time>
      </trkpt>
      <trkpt lat="45.84032" lon="4.82306">
        <ele>254</ele>
        <time>2012-01-29T10:31:16Z</time>
      </trkpt>
      <trkpt lat="45.84025" lon="4.82305">
        <ele>253</ele>
        <time>2012-01-29T10:31:21Z</time>
      </trkpt>
      <trkpt lat="45.84023" lon="4.82304">
        <ele>253</ele>
        <time>2012-01-29T10:31:22Z</time>
      </trkpt>
      <trkpt lat="45.8402" lon="4.823">
        <ele>253</ele>
        <time>2012-01-29T10:31:25Z</time>
      </trkpt>
      <trkpt lat="45.84017" lon="4.823">
        <ele>253</ele>
        <time>2012-01-29T10:31:27Z</time>
      </trkpt>
      <trkpt lat="45.84016" lon="4.823">
        <ele>253</ele>
        <time>2012-01-29T10:31:29Z</time>
      </trkpt>
      <trkpt lat="45.84012" lon="4.823">
        <ele>253</ele>
        <time>2012-01-29T10:31:34Z</time>
      </trkpt>
      <trkpt lat="45.84011" lon="4.82299">
        <ele>253</ele>
        <time>2012-01-29T10:31:35Z</time>
      </trkpt>
      <trkpt lat="45.84008" lon="4.82294">
        <ele>253</ele>
        <time>2012-01-29T10:31:38Z</time>
      </trkpt>
      <trkpt lat="45.84006" lon="4.82288">
        <ele>253</ele>
        <time>2012-01-29T10:31:42Z</time>
      </trkpt>
      <trkpt lat="45.84005" lon="4.82283">
        <ele>253</ele>
        <time>2012-01-29T10:31:46Z</time>
      </trkpt>
      <trkpt lat="45.84005" lon="4.82283">
        <ele>253</ele>
        <time>2012-01-29T10:31:47Z</time>
      </trkpt>
      <trkpt lat="45.84004" lon="4.82281">
        <ele>253</ele>
        <time>2012-01-29T10:31:52Z</time>
      </trkpt>
      <trkpt lat="45.84002" lon="4.82277">
        <ele>253</ele>
        <time>2012-01-29T10:31:58Z</time>
      </trkpt>
      <trkpt lat="45.84001" lon="4.82273">
        <ele>253</ele>
        <time>2012-01-29T10:32:01Z</time>
      </trkpt>
      <trkpt lat="45.83998" lon="4.82269">
        <ele>241</ele>
        <time>2012-01-29T10:32:04Z</time>
      </trkpt>
      <trkpt lat="45.8399" lon="4.82256">
        <ele>243</ele>
        <time>2012-01-29T10:32:10Z</time>
      </trkpt>
      <trkpt lat="45.83989" lon="4.82254">
        <ele>243</ele>
        <time>2012-01-29T10:32:11Z</time>
      </trkpt>
      <trkpt lat="45.83983" lon="4.82241">
        <ele>242</ele>
        <time>2012-01-29T10:32:16Z</time>
      </trkpt>
      <trkpt lat="45.83977" lon="4.82232">
        <ele>239</ele>
        <time>2012-01-29T10:32:21Z</time>
      </trkpt>
      <trkpt lat="45.83977" lon="4.82231">
        <ele>239</ele>
        <time>2012-01-29T10:32:22Z</time>
      </trkpt>
      <trkpt lat="45.83974" lon="4.82221">
        <ele>238</ele>
        <time>2012-01-29T10:32:28Z</time>
      </trkpt>
      <trkpt lat="45.83973" lon="4.82221">
        <ele>238</ele>
        <time>2012-01-29T10:32:29Z</time>
      </trkpt>
      <trkpt lat="45.83971" lon="4.82219">
        <ele>238</ele>
        <time>2012-01-29T10:32:33Z</time>
      </trkpt>
      <trkpt lat="45.83971" lon="4.82218">
        <ele>238</ele>
        <time>2012-01-29T10:32:35Z</time>
      </trkpt>
      <trkpt lat="45.8397" lon="4.82215">
        <ele>238</ele>
        <time>2012-01-29T10:32:38Z</time>
      </trkpt>
      <trkpt lat="45.83972" lon="4.82213">
        <ele>238</ele>
        <time>2012-01-29T10:32:47Z</time>
      </trkpt>
      <trkpt lat="45.83972" lon="4.82209">
        <ele>238</ele>
        <time>2012-01-29T10:32:49Z</time>
      </trkpt>
      <trkpt lat="45.83972" lon="4.82208">
        <ele>238</ele>
        <time>2012-01-29T10:32:50Z</time>
      </trkpt>
      <trkpt lat="45.83971" lon="4.82208">
        <ele>238</ele>
        <time>2012-01-29T10:32:51Z</time>
      </trkpt>
      <trkpt lat="45.83969" lon="4.82205">
        <ele>237</ele>
        <time>2012-01-29T10:32:55Z</time>
      </trkpt>
      <trkpt lat="45.83969" lon="4.82205">
        <ele>237</ele>
        <time>2012-01-29T10:32:56Z</time>
      </trkpt>
      <trkpt lat="45.83968" lon="4.82206">
        <ele>237</ele>
        <time>2012-01-29T10:33:03Z</time>
      </trkpt>
      <trkpt lat="45.83968" lon="4.82205">
        <ele>237</ele>
        <time>2012-01-29T10:33:11Z</time>
      </trkpt>
      <trkpt lat="45.83967" lon="4.82207">
        <ele>237</ele>
        <time>2012-01-29T10:33:23Z</time>
      </trkpt>
      <trkpt lat="45.83964" lon="4.82213">
        <ele>236</ele>
        <time>2012-01-29T10:33:29Z</time>
      </trkpt>
      <trkpt lat="45.83962" lon="4.82215">
        <ele>236</ele>
        <time>2012-01-29T10:33:31Z</time>
      </trkpt>
      <trkpt lat="45.83962" lon="4.82216">
        <ele>236</ele>
        <time>2012-01-29T10:33:33Z</time>
      </trkpt>
      <trkpt lat="45.83962" lon="4.82217">
        <ele>236</ele>
        <time>2012-01-29T10:33:34Z</time>
      </trkpt>
      <trkpt lat="45.83961" lon="4.8222">
        <ele>236</ele>
        <time>2012-01-29T10:33:36Z</time>
      </trkpt>
      <trkpt lat="45.83958" lon="4.82226">
        <ele>235</ele>
        <time>2012-01-29T10:33:41Z</time>
      </trkpt>
      <trkpt lat="45.83958" lon="4.8223">
        <ele>235</ele>
        <time>2012-01-29T10:33:43Z</time>
      </trkpt>
      <trkpt lat="45.83954" lon="4.82239">
        <ele>233</ele>
        <time>2012-01-29T10:33:48Z</time>
      </trkpt>
      <trkpt lat="45.83953" lon="4.82243">
        <ele>233</ele>
        <time>2012-01-29T10:33:50Z</time>
      </trkpt>
      <trkpt lat="45.83952" lon="4.82246">
        <ele>233</ele>
        <time>2012-01-29T10:33:52Z</time>
      </trkpt>
      <trkpt lat="45.83949" lon="4.82252">
        <ele>230</ele>
        <time>2012-01-29T10:33:56Z</time>
      </trkpt>
      <trkpt lat="45.83949" lon="4.82253">
        <ele>230</ele>
        <time>2012-01-29T10:33:57Z</time>
      </trkpt>
      <trkpt lat="45.83948" lon="4.82255">
        <ele>230</ele>
        <time>2012-01-29T10:33:59Z</time>
      </trkpt>
      <trkpt lat="45.83948" lon="4.82256">
        <ele>230</ele>
        <time>2012-01-29T10:34:00Z</time>
      </trkpt>
      <trkpt lat="45.83948" lon="4.82263">
        <ele>230</ele>
        <time>2012-01-29T10:34:04Z</time>
      </trkpt>
      <trkpt lat="45.83948" lon="4.82265">
        <ele>230</ele>
        <time>2012-01-29T10:34:05Z</time>
      </trkpt>
      <trkpt lat="45.83947" lon="4.82266">
        <ele>230</ele>
        <time>2012-01-29T10:34:06Z</time>
      </trkpt>
      <trkpt lat="45.83948" lon="4.82268">
        <ele>230</ele>
        <time>2012-01-29T10:34:07Z</time>
      </trkpt>
      <trkpt lat="45.83946" lon="4.82272">
        <ele>230</ele>
        <time>2012-01-29T10:34:11Z</time>
      </trkpt>
      <trkpt lat="45.83939" lon="4.82277">
        <ele>229</ele>
        <time>2012-01-29T10:34:18Z</time>
      </trkpt>
      <trkpt lat="45.83939" lon="4.82278">
        <ele>229</ele>
        <time>2012-01-29T10:34:19Z</time>
      </trkpt>
      <trkpt lat="45.83936" lon="4.82281">
        <ele>228</ele>
        <time>2012-01-29T10:34:23Z</time>
      </trkpt>
      <trkpt lat="45.83933" lon="4.82287">
        <ele>228</ele>
        <time>2012-01-29T10:34:28Z</time>
      </trkpt>
      <trkpt lat="45.83926" lon="4.82294">
        <ele>227</ele>
        <time>2012-01-29T10:34:36Z</time>
      </trkpt>
      <trkpt lat="45.83922" lon="4.82297">
        <ele>227</ele>
        <time>2012-01-29T10:34:40Z</time>
      </trkpt>
      <trkpt lat="45.83918" lon="4.82302">
        <ele>226</ele>
        <time>2012-01-29T10:34:43Z</time>
      </trkpt>
      <trkpt lat="45.83914" lon="4.82303">
        <ele>214</ele>
        <time>2012-01-29T10:34:45Z</time>
      </trkpt>
      <trkpt lat="45.8391" lon="4.82304">
        <ele>214</ele>
        <time>2012-01-29T10:34:48Z</time>
      </trkpt>
      <trkpt lat="45.83904" lon="4.82304">
        <ele>214</ele>
        <time>2012-01-29T10:34:51Z</time>
      </trkpt>
      <trkpt lat="45.83903" lon="4.82304">
        <ele>214</ele>
        <time>2012-01-29T10:34:52Z</time>
      </trkpt>
      <trkpt lat="45.83899" lon="4.82303">
        <ele>214</ele>
        <time>2012-01-29T10:34:54Z</time>
      </trkpt>
      <trkpt lat="45.8389" lon="4.82305">
        <ele>213</ele>
        <time>2012-01-29T10:35:00Z</time>
      </trkpt>
      <trkpt lat="45.83886" lon="4.82302">
        <ele>213</ele>
        <time>2012-01-29T10:35:03Z</time>
      </trkpt>
      <trkpt lat="45.83879" lon="4.82299">
        <ele>212</ele>
        <time>2012-01-29T10:35:07Z</time>
      </trkpt>
      <trkpt lat="45.83867" lon="4.82296">
        <ele>212</ele>
        <time>2012-01-29T10:35:14Z</time>
      </trkpt>
      <trkpt lat="45.83865" lon="4.82294">
        <ele>212</ele>
        <time>2012-01-29T10:35:16Z</time>
      </trkpt>
      <trkpt lat="45.83858" lon="4.82291">
        <ele>211</ele>
        <time>2012-01-29T10:35:25Z</time>
      </trkpt>
      <trkpt lat="45.83856" lon="4.82291">
        <ele>211</ele>
        <time>2012-01-29T10:35:28Z</time>
      </trkpt>
      <trkpt lat="45.83856" lon="4.82296">
        <ele>211</ele>
        <time>2012-01-29T10:35:30Z</time>
      </trkpt>
      <trkpt lat="45.83855" lon="4.82302">
        <ele>211</ele>
        <time>2012-01-29T10:35:32Z</time>
      </trkpt>
      <trkpt lat="45.83854" lon="4.82306">
        <ele>210</ele>
        <time>2012-01-29T10:35:34Z</time>
      </trkpt>
      <trkpt lat="45.83855" lon="4.8231">
        <ele>210</ele>
        <time>2012-01-29T10:35:37Z</time>
      </trkpt>
      <trkpt lat="45.83856" lon="4.82323">
        <ele>209</ele>
        <time>2012-01-29T10:35:44Z</time>
      </trkpt>
      <trkpt lat="45.83855" lon="4.82324">
        <ele>209</ele>
        <time>2012-01-29T10:35:45Z</time>
      </trkpt>
      <trkpt lat="45.83854" lon="4.82326">
        <ele>209</ele>
        <time>2012-01-29T10:35:48Z</time>
      </trkpt>
      <trkpt lat="45.83854" lon="4.82325">
        <ele>209</ele>
        <time>2012-01-29T10:35:49Z</time>
      </trkpt>
      <trkpt lat="45.83852" lon="4.8232">
        <ele>209</ele>
        <time>2012-01-29T10:35:52Z</time>
      </trkpt>
      <trkpt lat="45.83852" lon="4.82318">
        <ele>209</ele>
        <time>2012-01-29T10:35:53Z</time>
      </trkpt>
      <trkpt lat="45.83851" lon="4.82302">
        <ele>210</ele>
        <time>2012-01-29T10:36:01Z</time>
      </trkpt>
      <trkpt lat="45.83851" lon="4.82298">
        <ele>211</ele>
        <time>2012-01-29T10:36:03Z</time>
      </trkpt>
      <trkpt lat="45.83851" lon="4.82277">
        <ele>211</ele>
        <time>2012-01-29T10:36:11Z</time>
      </trkpt>
      <trkpt lat="45.83851" lon="4.82272">
        <ele>212</ele>
        <time>2012-01-29T10:36:13Z</time>
      </trkpt>
      <trkpt lat="45.83852" lon="4.82263">
        <ele>212</ele>
        <time>2012-01-29T10:36:17Z</time>
      </trkpt>
      <trkpt lat="45.83851" lon="4.82249">
        <ele>214</ele>
        <time>2012-01-29T10:36:24Z</time>
      </trkpt>
      <trkpt lat="45.83851" lon="4.82244">
        <ele>214</ele>
        <time>2012-01-29T10:36:27Z</time>
      </trkpt>
      <trkpt lat="45.83852" lon="4.82234">
        <ele>214</ele>
        <time>2012-01-29T10:36:31Z</time>
      </trkpt>
      <trkpt lat="45.83849" lon="4.82218">
        <ele>215</ele>
        <time>2012-01-29T10:36:39Z</time>
      </trkpt>
      <trkpt lat="45.83849" lon="4.82217">
        <ele>215</ele>
        <time>2012-01-29T10:36:40Z</time>
      </trkpt>
      <trkpt lat="45.83845" lon="4.82216">
        <ele>215</ele>
        <time>2012-01-29T10:36:44Z</time>
      </trkpt>
      <trkpt lat="45.83839" lon="4.82218">
        <ele>215</ele>
        <time>2012-01-29T10:36:49Z</time>
      </trkpt>
      <trkpt lat="45.83832" lon="4.82223">
        <ele>213</ele>
        <time>2012-01-29T10:36:54Z</time>
      </trkpt>
      <trkpt lat="45.83831" lon="4.82223">
        <ele>213</ele>
        <time>2012-01-29T10:36:57Z</time>
      </trkpt>
      <trkpt lat="45.8383" lon="4.82223">
        <ele>213</ele>
        <time>2012-01-29T10:36:58Z</time>
      </trkpt>
      <trkpt lat="45.83821" lon="4.82226">
        <ele>213</ele>
        <time>2012-01-29T10:37:04Z</time>
      </trkpt>
      <trkpt lat="45.83816" lon="4.82231">
        <ele>213</ele>
        <time>2012-01-29T10:37:07Z</time>
      </trkpt>
      <trkpt lat="45.8381" lon="4.82235">
        <ele>213</ele>
        <time>2012-01-29T10:37:10Z</time>
      </trkpt>
      <trkpt lat="45.838" lon="4.82244">
        <ele>213</ele>
        <time>2012-01-29T10:37:14Z</time>
      </trkpt>
      <trkpt lat="45.83798" lon="4.82247">
        <ele>213</ele>
        <time>2012-01-29T10:37:15Z</time>
      </trkpt>
      <trkpt lat="45.83783" lon="4.82256">
        <ele>208</ele>
        <time>2012-01-29T10:37:21Z</time>
      </trkpt>
      <trkpt lat="45.83772" lon="4.82265">
        <ele>208</ele>
        <time>2012-01-29T10:37:26Z</time>
      </trkpt>
      <trkpt lat="45.83768" lon="4.8227">
        <ele>208</ele>
        <time>2012-01-29T10:37:28Z</time>
      </trkpt>
      <trkpt lat="45.83762" lon="4.82277">
        <ele>208</ele>
        <time>2012-01-29T10:37:31Z</time>
      </trkpt>
      <trkpt lat="45.83752" lon="4.82284">
        <ele>208</ele>
        <time>2012-01-29T10:37:36Z</time>
      </trkpt>
      <trkpt lat="45.83739" lon="4.82287">
        <ele>208</ele>
        <time>2012-01-29T10:37:41Z</time>
      </trkpt>
      <trkpt lat="45.83734" lon="4.82288">
        <ele>208</ele>
        <time>2012-01-29T10:37:43Z</time>
      </trkpt>
      <trkpt lat="45.83727" lon="4.82292">
        <ele>208</ele>
        <time>2012-01-29T10:37:46Z</time>
      </trkpt>
      <trkpt lat="45.83718" lon="4.823">
        <ele>208</ele>
        <time>2012-01-29T10:37:51Z</time>
      </trkpt>
      <trkpt lat="45.83706" lon="4.82303">
        <ele>208</ele>
        <time>2012-01-29T10:37:57Z</time>
      </trkpt>
      <trkpt lat="45.83699" lon="4.82304">
        <ele>208</ele>
        <time>2012-01-29T10:38:00Z</time>
      </trkpt>
      <trkpt lat="45.83694" lon="4.82306">
        <ele>208</ele>
        <time>2012-01-29T10:38:02Z</time>
      </trkpt>
      <trkpt lat="45.83685" lon="4.82303">
        <ele>208</ele>
        <time>2012-01-29T10:38:06Z</time>
      </trkpt>
      <trkpt lat="45.83683" lon="4.82303">
        <ele>208</ele>
        <time>2012-01-29T10:38:07Z</time>
      </trkpt>
      <trkpt lat="45.83681" lon="4.82304">
        <ele>208</ele>
        <time>2012-01-29T10:38:08Z</time>
      </trkpt>
      <trkpt lat="45.83675" lon="4.82304">
        <ele>208</ele>
        <time>2012-01-29T10:38:11Z</time>
      </trkpt>
      <trkpt lat="45.83672" lon="4.82302">
        <ele>208</ele>
        <time>2012-01-29T10:38:13Z</time>
      </trkpt>
      <trkpt lat="45.83666" lon="4.82297">
        <ele>212</ele>
        <time>2012-01-29T10:38:16Z</time>
      </trkpt>
      <trkpt lat="45.83663" lon="4.82296">
        <ele>213</ele>
        <time>2012-01-29T10:38:17Z</time>
      </trkpt>
      <trkpt lat="45.83655" lon="4.82292">
        <ele>213</ele>
        <time>2012-01-29T10:38:22Z</time>
      </trkpt>
      <trkpt lat="45.83654" lon="4.82292">
        <ele>213</ele>
        <time>2012-01-29T10:38:23Z</time>
      </trkpt>
      <trkpt lat="45.83648" lon="4.82293">
        <ele>213</ele>
        <time>2012-01-29T10:38:28Z</time>
      </trkpt>
      <trkpt lat="45.83647" lon="4.82294">
        <ele>213</ele>
        <time>2012-01-29T10:38:29Z</time>
      </trkpt>
      <trkpt lat="45.83646" lon="4.82294">
        <ele>213</ele>
        <time>2012-01-29T10:38:30Z</time>
      </trkpt>
      <trkpt lat="45.83642" lon="4.82291">
        <ele>214</ele>
        <time>2012-01-29T10:38:33Z</time>
      </trkpt>
      <trkpt lat="45.83641" lon="4.8229">
        <ele>214</ele>
        <time>2012-01-29T10:38:34Z</time>
      </trkpt>
      <trkpt lat="45.83632" lon="4.8228">
        <ele>214</ele>
        <time>2012-01-29T10:38:41Z</time>
      </trkpt>
      <trkpt lat="45.83631" lon="4.82279">
        <ele>214</ele>
        <time>2012-01-29T10:38:42Z</time>
      </trkpt>
      <trkpt lat="45.83624" lon="4.82273">
        <ele>214</ele>
        <time>2012-01-29T10:38:48Z</time>
      </trkpt>
      <trkpt lat="45.83619" lon="4.82269">
        <ele>214</ele>
        <time>2012-01-29T10:38:52Z</time>
      </trkpt>
      <trkpt lat="45.83616" lon="4.82268">
        <ele>214</ele>
        <time>2012-01-29T10:38:54Z</time>
      </trkpt>
      <trkpt lat="45.83615" lon="4.82268">
        <ele>215</ele>
        <time>2012-01-29T10:38:55Z</time>
      </trkpt>
      <trkpt lat="45.83606" lon="4.8227">
        <ele>215</ele>
        <time>2012-01-29T10:39:01Z</time>
      </trkpt>
      <trkpt lat="45.83602" lon="4.8228">
        <ele>215</ele>
        <time>2012-01-29T10:39:07Z</time>
      </trkpt>
      <trkpt lat="45.83602" lon="4.82283">
        <ele>215</ele>
        <time>2012-01-29T10:39:08Z</time>
      </trkpt>
      <trkpt lat="45.83602" lon="4.82294">
        <ele>216</ele>
        <time>2012-01-29T10:39:13Z</time>
      </trkpt>
      <trkpt lat="45.83603" lon="4.82309">
        <ele>217</ele>
        <time>2012-01-29T10:39:20Z</time>
      </trkpt>
      <trkpt lat="45.83603" lon="4.82311">
        <ele>217</ele>
        <time>2012-01-29T10:39:21Z</time>
      </trkpt>
      <trkpt lat="45.83606" lon="4.82331">
        <ele>218</ele>
        <time>2012-01-29T10:39:31Z</time>
      </trkpt>
      <trkpt lat="45.83606" lon="4.82335">
        <ele>219</ele>
        <time>2012-01-29T10:39:33Z</time>
      </trkpt>
      <trkpt lat="45.83607" lon="4.82348">
        <ele>219</ele>
        <time>2012-01-29T10:39:39Z</time>
      </trkpt>
      <trkpt lat="45.83606" lon="4.82362">
        <ele>218</ele>
        <time>2012-01-29T10:39:45Z</time>
      </trkpt>
      <trkpt lat="45.83607" lon="4.82366">
        <ele>218</ele>
        <time>2012-01-29T10:39:47Z</time>
      </trkpt>
      <trkpt lat="45.83606" lon="4.82381">
        <ele>218</ele>
        <time>2012-01-29T10:39:54Z</time>
      </trkpt>
      <trkpt lat="45.83605" lon="4.82387">
        <ele>218</ele>
        <time>2012-01-29T10:39:57Z</time>
      </trkpt>
      <trkpt lat="45.83603" lon="4.82396">
        <ele>219</ele>
        <time>2012-01-29T10:40:01Z</time>
      </trkpt>
      <trkpt lat="45.83596" lon="4.8241">
        <ele>221</ele>
        <time>2012-01-29T10:40:09Z</time>
      </trkpt>
      <trkpt lat="45.83589" lon="4.82424">
        <ele>222</ele>
        <time>2012-01-29T10:40:17Z</time>
      </trkpt>
      <trkpt lat="45.83586" lon="4.82432">
        <ele>221</ele>
        <time>2012-01-29T10:40:21Z</time>
      </trkpt>
      <trkpt lat="45.83584" lon="4.82437">
        <ele>221</ele>
        <time>2012-01-29T10:40:24Z</time>
      </trkpt>
      <trkpt lat="45.83578" lon="4.82449">
        <ele>230</ele>
        <time>2012-01-29T10:40:31Z</time>
      </trkpt>
      <trkpt lat="45.83576" lon="4.82453">
        <ele>230</ele>
        <time>2012-01-29T10:40:33Z</time>
      </trkpt>
      <trkpt lat="45.83567" lon="4.82467">
        <ele>230</ele>
        <time>2012-01-29T10:40:41Z</time>
      </trkpt>
      <trkpt lat="45.83564" lon="4.82474">
        <ele>230</ele>
        <time>2012-01-29T10:40:45Z</time>
      </trkpt>
      <trkpt lat="45.83562" lon="4.8248">
        <ele>230</ele>
        <time>2012-01-29T10:40:48Z</time>
      </trkpt>
      <trkpt lat="45.83556" lon="4.82491">
        <ele>230</ele>
        <time>2012-01-29T10:40:55Z</time>
      </trkpt>
      <trkpt lat="45.83554" lon="4.82497">
        <ele>230</ele>
        <time>2012-01-29T10:40:58Z</time>
      </trkpt>
      <trkpt lat="45.83552" lon="4.82502">
        <ele>230</ele>
        <time>2012-01-29T10:41:01Z</time>
      </trkpt>
      <trkpt lat="45.83551" lon="4.82503">
        <ele>231</ele>
        <time>2012-01-29T10:41:02Z</time>
      </trkpt>
      <trkpt lat="45.83547" lon="4.82503">
        <ele>231</ele>
        <time>2012-01-29T10:41:05Z</time>
      </trkpt>
      <trkpt lat="45.83547" lon="4.82498">
        <ele>231</ele>
        <time>2012-01-29T10:41:08Z</time>
      </trkpt>
      <trkpt lat="45.83547" lon="4.8249">
        <ele>231</ele>
        <time>2012-01-29T10:41:12Z</time>
      </trkpt>
      <trkpt lat="45.83547" lon="4.82486">
        <ele>232</ele>
        <time>2012-01-29T10:41:14Z</time>
      </trkpt>
      <trkpt lat="45.83547" lon="4.82474">
        <ele>232</ele>
        <time>2012-01-29T10:41:21Z</time>
      </trkpt>
      <trkpt lat="45.83547" lon="4.82463">
        <ele>232</ele>
        <time>2012-01-29T10:41:26Z</time>
      </trkpt>
      <trkpt lat="45.83545" lon="4.82454">
        <ele>232</ele>
        <time>2012-01-29T10:41:31Z</time>
      </trkpt>
      <trkpt lat="45.83544" lon="4.82438">
        <ele>232</ele>
        <time>2012-01-29T10:41:39Z</time>
      </trkpt>
      <trkpt lat="45.83544" lon="4.82436">
        <ele>232</ele>
        <time>2012-01-29T10:41:40Z</time>
      </trkpt>
      <trkpt lat="45.83543" lon="4.82418">
        <ele>233</ele>
        <time>2012-01-29T10:41:50Z</time>
      </trkpt>
      <trkpt lat="45.83542" lon="4.8241">
        <ele>233</ele>
        <time>2012-01-29T10:41:54Z</time>
      </trkpt>
      <trkpt lat="45.8354" lon="4.824">
        <ele>233</ele>
        <time>2012-01-29T10:41:59Z</time>
      </trkpt>
      <trkpt lat="45.83538" lon="4.82384">
        <ele>234</ele>
        <time>2012-01-29T10:42:07Z</time>
      </trkpt>
      <trkpt lat="45.83538" lon="4.82382">
        <ele>234</ele>
        <time>2012-01-29T10:42:08Z</time>
      </trkpt>
      <trkpt lat="45.83532" lon="4.82371">
        <ele>234</ele>
        <time>2012-01-29T10:42:14Z</time>
      </trkpt>
      <trkpt lat="45.83525" lon="4.82366">
        <ele>235</ele>
        <time>2012-01-29T10:42:18Z</time>
      </trkpt>
      <trkpt lat="45.83521" lon="4.82366">
        <ele>235</ele>
        <time>2012-01-29T10:42:20Z</time>
      </trkpt>
      <trkpt lat="45.83509" lon="4.82365">
        <ele>236</ele>
        <time>2012-01-29T10:42:27Z</time>
      </trkpt>
      <trkpt lat="45.83506" lon="4.82364">
        <ele>237</ele>
        <time>2012-01-29T10:42:29Z</time>
      </trkpt>
      <trkpt lat="45.83497" lon="4.82364">
        <ele>249</ele>
        <time>2012-01-29T10:42:34Z</time>
      </trkpt>
      <trkpt lat="45.83487" lon="4.82365">
        <ele>250</ele>
        <time>2012-01-29T10:42:41Z</time>
      </trkpt>
    </trkseg>
  </trk>
</gpx>